[[{"header":{"parameterUnit":"m.s-1","parameterCategory":1,"la1":31.0,"la2":29.5877,"lo1":-88.7671,"lo2":-86.6584,"dy":0.0162,"dx":0.0185,"nx":115,"ny":88,"refTime":"2024-05-18T06:00:00:Z","depth":0,"parameterNumber":2,"parameterNumberName":"U-component_of_WINDS"},"data":[0.0,0.0,0.0,0.0,0.0,0.0,0.0,0.0,0.0,0.0,0.0,0.0,0.0,0.0,0.0,0.0,0.0,0.0,0.0,0.0,0.0,0.0,0.0,0.0,0.0,0.0,0.0,0.0,0.0,0.0,0.0,0.0,0.0,0.0,0.0,0.0,0.0,0.0,0.0,0.0,0.0,0.0,0.0,0.0,0.0,0.0,0.0,0.0,0.0,0.0,0.0,0.0,0.0,0.0,0.0,0.0,0.0,0.0,0.0,0.0,0.0,0.0,0.0,0.0,0.0,0.0,0.0,0.0,0.0,0.0,0.0,0.0,0.0,0.0,0.0,0.0,0.0,0.0,0.0,0.0,0.0,0.0,0.0,0.0,0.0,0.0,0.0,0.0,0.0,0.0,0.0,0.0,0.0,0.0,0.0,0.0,0.0,0.0,0.0,0.0,0.0,0.0,0.0,0.0,0.0,0.0,0.0,0.0,0.0,0.0,0.0,0.0,0.0,0.0,0.0,0.0,0.0,0.0,0.0,0.0,0.0,0.0,0.0,0.0,0.0,0.0,0.0,0.0,0.0,0.0,0.0,0.0,0.0,0.0,0.0,0.0,0.0,0.0,0.0,0.0,0.0,0.0,0.0,0.0,0.0,0.0,0.0,0.0,0.0,0.0,0.0,0.0,0.0,0.0,0.0,0.0,0.0,0.0,0.0,0.0,0.0,0.0,0.0,0.0,0.0,0.0,0.0,0.0,0.0,0.0,0.0,0.0,0.0,0.0,0.0,0.0,0.0,0.0,0.0,0.0,0.0,0.0,0.0,0.0,0.0,0.0,0.0,0.0,0.0,0.0,0.0,0.0,0.0,0.0,0.0,0.0,0.0,0.0,0.0,0.0,0.0,0.0,0.0,0.0,0.0,0.0,0.0,0.0,0.0,0.0,0.0,0.0,0.0,0.0,0.0,0.0,0.0,0.0,0.0,0.0,0.0,0.0,0.0,0.0,0.0,0.0,0.0,0.0,0.0,0.0,0.0,0.0,0.0,0.0,0.0,0.0,0.0,0.0,0.0,0.0,0.0,0.0,0.0,0.0,0.0,0.0,0.0,0.0,0.0,0.0,0.0,0.0,0.0,0.0,0.0,0.0,0.0,0.0,0.0,0.0,0.0,0.0,0.0,0.0,0.0,0.0,0.0,0.0,0.0,0.0,0.0,0.0,0.0,0.0,0.0,0.0,0.0,0.0,0.0,0.0,0.0,0.0,0.0,0.0,0.0,0.0,0.0,0.0,0.0,0.0,0.0,0.0,0.0,0.0,0.0,0.0,0.0,0.0,0.0,0.0,0.0,0.0,0.0,0.0,0.0,0.0,0.0,0.0,0.0,0.0,0.0,0.0,0.0,0.0,0.0,0.0,0.0,0.0,0.0,0.0,0.0,0.0,0.0,0.0,0.0,0.0,0.0,0.0,0.0,0.0,0.0,0.0,0.0,0.0,0.0,0.0,0.0,0.0,0.0,0.0,0.0,0.0,0.0,0.0,0.0,0.0,0.0,0.0,0.0,0.0,0.0,0.0,0.0,0.0,0.0,0.0,0.0,0.0,0.0,0.0,0.0,0.0,0.0,0.0,0.0,0.0,0.0,0.0,0.0,0.0,0.0,0.0,0.0,0.0,0.0,0.0,0.0,0.0,0.0,0.0,0.0,0.0,0.0,0.0,0.0,0.0,0.0,0.0,0.0,0.0,0.0,0.0,0.0,0.0,0.0,0.0,0.0,0.0,0.0,0.0,0.0,0.0,0.0,0.0,0.0,0.0,0.0,0.0,0.0,0.0,0.0,0.0,0.0,0.0,0.0,0.0,0.0,0.0,0.0,0.0,0.0,0.0,0.0,0.0,0.0,0.0,0.0,0.0,0.0,0.0,0.0,0.0,0.0,0.0,0.0,0.0,0.0,0.0,0.0,0.0,0.0,0.0,0.0,0.0,0.0,0.0,0.0,0.0,0.0,0.0,0.0,0.0,0.0,0.0,0.0,0.0,0.0,0.0,0.0,0.0,0.0,0.0,0.0,0.0,0.0,0.0,0.0,0.0,0.0,0.0,0.0,0.0,0.0,0.0,0.0,0.0,0.0,0.0,0.0,0.0,0.0,0.0,0.0,0.0,0.0,0.0,0.0,0.0,0.0,0.0,0.0,0.0,0.0,0.0,0.0,0.0,0.0,0.0,0.0,0.0,0.0,0.0,0.0,0.0,0.0,0.0,0.0,0.0,0.0,0.0,0.0,0.0,0.0,0.0,0.0,0.0,0.0,0.0,0.0,0.0,0.0,0.0,0.0,0.0,0.0,0.0,0.0,0.0,0.0,0.0,0.0,0.0,0.0,0.0,0.0,0.0,0.0,0.0,0.0,0.0,0.0,0.0,0.0,0.0,0.0,0.0,0.0,0.0,0.0,0.0,0.0,0.0,0.0,0.0,0.0,0.0,0.0,0.0,0.0,0.0,0.0,0.0,0.0,0.0,0.0,0.0,0.0,0.0,0.0,0.0,0.0,0.0,0.0,0.0,0.0,0.0,0.0,0.0,0.0,0.0,0.0,0.0,0.0,0.0,0.0,0.0,0.0,0.0,0.0,0.0,0.0,0.0,0.0,0.0,0.0,0.0,0.0,0.0,0.0,0.0,0.0,0.0,0.0,0.0,0.0,0.0,0.0,0.0,0.0,0.0,0.0,0.0,0.0,0.0,0.0,0.0,0.0,0.0,0.0,0.0,0.0,0.0,0.0,0.0,0.0,0.0,0.0,0.0,0.0,0.0,0.0,0.0,0.0,0.0,0.0,0.0,0.0,0.0,0.0,0.0,0.0,0.0,0.0,0.0,0.0,0.0,0.0,0.0,0.0,0.0,0.0,0.0,0.0,0.0,0.0,0.0,0.0,0.0,0.0,0.0,0.0,0.0,0.0,0.0,0.0,0.0,0.0,0.0,0.0,0.0,0.0,0.0,0.0,0.0,0.0,0.0,0.0,0.0,0.0,0.0,0.0,0.0,0.0,0.0,0.0,0.0,0.0,0.0,0.0,0.0,0.0,0.0,0.0,0.0,0.0,0.0,0.0,0.0,0.0,0.0,0.0,0.0,0.0,0.0,0.0,0.0,0.0,0.0,0.0,0.0,0.0,0.0,0.0,0.0,0.0,0.0,0.0,0.0,0.0,0.0,0.0,0.0,0.0,0.0,0.0,0.0,0.0,0.0,0.0,0.0,0.0,0.0,0.0,0.0,0.0,0.0,0.0,0.0,0.0,0.0,0.0,0.0,0.0,0.0,0.0,0.0,0.0,0.0,0.0,0.0,0.0,0.0,0.0,0.0,0.0,0.0,0.0,0.0,0.0,0.0,0.0,0.0,0.0,0.0,0.0,0.0,0.0,0.0,0.0,0.0,0.0,0.0,0.0,0.0,0.0,0.0,0.0,0.0,0.0,0.0,0.0,0.0,0.0,0.0,0.0,0.0,0.0,0.0,0.0,0.0,0.0,0.0,0.0,0.0,0.0,0.0,0.0,0.0,0.0,0.0,0.0,0.0,0.0,0.0,0.0,0.0,0.0,0.0,0.0,0.0,0.0,0.0,0.0,0.0,0.0,0.0,0.0,0.0,0.0,0.0,0.0,0.0,0.0,0.0,0.0,0.0,0.0,0.0,0.0,0.0,0.0,0.0,0.0,0.0,0.0,0.0,0.0,0.0,0.0,0.0,0.0,0.0,0.0,0.0,0.0,0.0,0.0,0.0,0.0,0.0,0.0,0.0,0.0,0.0,0.0,0.0,0.0,0.0,0.0,0.0,0.0,0.0,0.0,0.0,0.0,0.0,0.0,0.0,0.0,0.0,0.0,0.0,0.0,0.0,0.0,0.0,0.0,0.0,0.0,0.0,0.0,0.0,0.0,0.0,0.0,0.0,0.0,0.0,0.0,0.0,0.0,0.0,0.0,0.0,0.0,0.0,0.0,0.0,0.0,0.0,0.0,0.0,0.0,0.0,0.0,0.0,0.0,0.0,0.0,0.0,0.0,0.0,0.0,0.0,0.0,0.0,0.0,0.0,0.0,0.0,0.0,0.0,0.0,0.0,0.0,0.0,0.0,0.0,0.0,0.0,0.0,0.0,0.0,0.0,0.0,0.0,0.0,0.0,0.0,0.0,0.0,0.0,0.0,0.0,0.0,0.0,0.0,0.0,0.0,0.0,0.0,0.0,0.0,0.0,0.0,0.0,0.0,0.0,0.0,0.0,0.0,0.0,0.0,0.0,0.0,0.0,-1.1018,0.0,0.0,0.0,0.0,0.0,0.0,0.0,0.0,0.0,0.0,0.0,0.0,0.0,0.0,0.0,0.0,0.0,0.0,0.0,0.0,0.0,0.0,0.0,0.0,0.0,0.0,0.0,0.0,0.0,0.0,0.0,0.0,0.0,0.0,0.0,0.0,0.0,0.0,0.0,0.0,0.0,0.0,0.0,0.0,0.0,0.0,0.0,0.0,0.0,0.0,0.0,0.0,0.0,0.0,0.0,0.0,0.0,0.0,0.0,0.0,0.0,0.0,0.0,0.0,0.0,0.0,0.0,0.0,0.0,0.0,0.0,0.0,0.0,0.0,0.0,0.0,0.0,0.0,0.0,0.0,0.0,0.0,0.0,0.0,0.0,0.0,0.0,0.0,0.0,0.0,0.0,0.0,0.0,0.0,0.0,0.0,0.0,0.0,0.0,0.0,0.0,0.0,0.0,0.0,0.0,0.0,0.0,0.0,0.0,0.0,-1.3178,-1.3635,-1.317,-1.2715,-1.2353,0.0,0.0,0.0,0.0,0.0,0.0,0.0,0.0,0.0,0.0,0.0,0.0,0.0,0.0,0.0,0.0,0.0,0.0,0.0,0.0,0.0,0.0,0.0,0.0,0.0,0.0,0.0,0.0,0.0,0.0,0.0,0.0,0.0,0.0,0.0,0.0,0.0,0.0,0.0,0.0,0.0,0.0,0.0,0.0,0.0,0.0,0.0,0.0,0.0,0.0,0.0,0.0,0.0,0.0,0.0,0.0,0.0,0.0,0.0,0.0,0.0,0.0,0.0,0.0,0.0,0.0,0.0,0.0,0.0,0.0,0.0,0.0,0.0,0.0,0.0,0.0,0.0,0.0,0.0,0.0,0.0,0.0,0.0,0.0,0.0,0.0,0.0,0.0,0.0,0.0,0.0,0.0,0.0,0.0,0.0,0.0,0.0,0.0,0.0,0.0,0.0,0.0,0.0,0.0,0.0,0.0,0.0,0.0,0.0,0.0,0.0,0.0,-1.4128,-1.3597,-1.3179,0.0,0.0,0.0,0.0,0.0,0.0,0.0,0.0,0.0,0.0,0.0,0.0,0.0,0.0,0.0,0.0,0.0,0.0,0.0,0.0,0.0,0.0,0.0,0.0,0.0,0.0,0.0,0.0,0.0,0.0,0.0,0.0,0.0,0.0,0.0,0.0,0.0,0.0,0.0,0.0,0.0,0.0,0.0,0.0,0.0,0.0,0.0,0.0,0.0,0.0,0.0,0.0,0.0,0.0,0.0,0.0,0.0,0.0,0.0,0.0,0.0,0.0,0.0,0.0,0.0,0.0,0.0,0.0,0.0,0.0,0.0,0.0,0.0,0.0,0.0,0.0,0.0,0.0,0.0,0.0,0.0,0.0,0.0,0.0,0.0,0.0,0.0,0.0,0.0,0.0,0.0,0.0,0.0,0.0,0.0,0.0,0.0,0.0,0.0,0.0,0.0,0.0,0.0,0.0,0.0,0.0,0.0,0.0,0.0,0.0,-1.4728,-1.4793,-1.4668,0.0,-1.2418,0.0,0.0,0.0,0.0,0.0,0.0,0.0,0.0,0.0,0.0,0.0,0.0,0.0,0.0,0.0,0.0,0.0,0.0,0.0,0.0,0.0,0.0,0.0,0.0,0.0,0.0,0.0,0.0,0.0,0.0,0.0,0.0,0.0,0.0,0.0,0.0,0.0,0.0,0.0,0.0,0.0,0.0,0.0,0.0,0.0,0.0,0.0,0.0,0.0,0.0,0.0,0.0,0.0,0.0,0.0,0.0,0.0,0.0,0.0,0.0,0.0,0.0,0.0,0.0,0.0,0.0,0.0,0.0,0.0,0.0,0.0,0.0,0.0,0.0,0.0,0.0,0.0,0.0,0.0,0.0,0.0,0.0,0.0,0.0,0.0,0.0,0.0,0.0,0.0,0.0,0.0,0.0,0.0,0.0,0.0,0.0,0.0,0.0,0.0,0.0,0.0,0.0,0.0,0.0,0.0,0.0,0.0,0.0,0.0,0.0,0.0,-1.4803,-1.4743,-1.3922,0.0,0.0,0.0,0.0,0.0,0.0,0.0,0.0,0.0,0.0,0.0,0.0,0.0,0.0,0.0,0.0,0.0,0.0,0.0,0.0,0.0,0.0,0.0,0.0,0.0,0.0,0.0,0.0,0.0,0.0,0.0,0.0,0.0,0.0,0.0,0.0,0.0,0.0,0.0,0.0,0.0,0.0,0.0,0.0,0.0,0.0,0.0,0.0,0.0,0.0,0.0,0.0,0.0,0.0,0.0,0.0,0.0,0.0,0.0,0.0,0.0,0.0,0.0,0.0,0.0,0.0,0.0,0.0,0.0,0.0,0.0,0.0,0.0,0.0,0.0,0.0,0.0,0.0,0.0,0.0,0.0,0.0,0.0,0.0,0.0,0.0,0.0,0.0,0.0,0.0,0.0,0.0,0.0,0.0,0.0,0.0,0.0,0.0,0.0,0.0,0.0,0.0,0.0,0.0,0.0,0.0,0.0,0.0,0.0,0.0,-1.4832,0.0,-1.4773,-1.4732,-1.3912,-1.2261,0.0,0.0,0.0,0.0,0.0,0.0,0.0,0.0,0.0,0.0,0.0,0.0,0.0,0.0,0.0,0.0,0.0,0.0,0.0,0.0,0.0,0.0,0.0,0.0,0.0,0.0,0.0,0.0,0.0,0.0,0.0,0.0,0.0,0.0,0.0,0.0,0.0,0.0,0.0,0.0,0.0,0.0,0.0,0.0,0.0,0.0,0.0,0.0,0.0,0.0,0.0,0.0,0.0,0.0,0.0,0.0,0.0,0.0,0.0,0.0,0.0,0.0,0.0,0.0,0.0,0.0,0.0,0.0,0.0,0.0,0.0,0.0,0.0,0.0,0.0,0.0,0.0,0.0,0.0,0.0,0.0,0.0,0.0,0.0,0.0,0.0,0.0,0.0,0.0,0.0,0.0,0.0,0.0,0.0,0.0,0.0,0.0,0.0,0.0,0.0,0.0,0.0,0.0,0.0,0.0,0.0,0.0,0.0,0.0,-1.4823,-1.4773,-1.4712,-1.4712,-1.3912,0.0,0.0,0.0,0.0,0.0,0.0,0.0,0.0,0.0,0.0,0.0,0.0,0.0,0.0,0.0,0.0,0.0,0.0,0.0,0.0,0.0,0.0,0.0,0.0,0.0,0.0,0.0,0.0,0.0,0.0,0.0,0.0,0.0,0.0,0.0,0.0,0.0,0.0,0.0,0.0,0.0,0.0,0.0,0.0,0.0,0.0,0.0,0.0,0.0,0.0,0.0,0.0,0.0,0.0,0.0,0.0,0.0,0.0,0.0,0.0,0.0,0.0,0.0,0.0,0.0,0.0,0.0,0.0,0.0,0.0,0.0,0.0,0.0,0.0,0.0,0.0,0.0,0.0,0.0,0.0,0.0,0.0,0.0,0.0,0.0,0.0,0.0,0.0,0.0,0.0,0.0,0.0,0.0,0.0,0.0,0.0,0.0,0.0,0.0,0.0,0.0,0.0,0.0,0.0,0.0,0.0,0.0,0.0,0.0,-1.4818,-1.4832,-1.4773,0.0,-1.4654,-1.3873,0.0,0.0,0.0,0.0,0.0,0.0,0.0,0.0,0.0,0.0,0.0,0.0,0.0,0.0,0.0,0.0,0.0,0.0,0.0,0.0,0.0,0.0,0.0,0.0,0.0,0.0,0.0,0.0,0.0,0.0,0.0,0.0,0.0,0.0,0.0,0.0,0.0,0.0,0.0,0.0,0.0,0.0,0.0,0.0,0.0,0.0,0.0,0.0,0.0,0.0,0.0,0.0,0.0,0.0,0.0,0.0,0.0,0.0,0.0,0.0,0.0,0.0,0.0,0.0,0.0,0.0,0.0,0.0,0.0,0.0,0.0,0.0,0.0,0.0,0.0,0.0,0.0,0.0,0.0,0.0,0.0,0.0,0.0,0.0,0.0,0.0,0.0,0.0,0.0,0.0,0.0,0.0,0.0,0.0,0.0,0.0,0.0,0.0,0.0,0.0,0.0,0.0,0.0,0.0,0.0,0.0,0.0,0.0,0.0,-1.4792,0.0,-1.4743,0.0,-1.4624,-1.3836,0.0,0.0,0.0,0.0,0.0,0.0,0.0,0.0,0.0,0.0,0.0,0.0,0.0,0.0,0.0,0.0,0.0,0.0,0.0,0.0,0.0,0.0,0.0,0.0,0.0,0.0,0.0,0.0,0.0,0.0,0.0,0.0,0.0,0.0,0.0,0.0,0.0,0.0,0.0,0.0,0.0,0.0,0.0,0.0,0.0,0.0,0.0,0.0,0.0,0.0,0.0,0.0,0.0,0.0,0.0,0.0,0.0,0.0,0.0,0.0,0.0,0.0,0.0,0.0,0.0,0.0,0.0,0.0,0.0,0.0,0.0,0.0,0.0,0.0,0.0,0.0,0.0,0.0,0.0,0.0,0.0,0.0,0.0,0.0,0.0,0.0,0.0,0.0,0.0,0.0,0.0,0.0,0.0,0.0,0.0,0.0,0.0,0.0,0.0,0.0,0.0,0.0,0.0,0.0,0.0,0.0,0.0,0.0,-1.4137,-1.4757,-1.4734,-1.4712,-1.4712,-1.4643,-1.3844,0.0,0.0,0.0,0.0,0.0,0.0,0.0,0.0,0.0,0.0,0.0,0.0,0.0,0.0,0.0,0.0,0.0,0.0,0.0,0.0,0.0,0.0,0.0,0.0,0.0,0.0,0.0,0.0,0.0,0.0,0.0,0.0,0.0,0.0,0.0,0.0,0.0,0.0,0.0,0.0,0.0,0.0,0.0,0.0,0.0,0.0,0.0,0.0,0.0,0.0,0.0,0.0,0.0,0.0,0.0,0.0,0.0,0.0,0.0,0.0,0.0,0.0,0.0,0.0,0.0,0.0,0.0,0.0,0.0,0.0,0.0,0.0,0.0,0.0,0.0,0.0,0.0,0.0,0.0,0.0,0.0,0.0,0.0,0.0,0.0,0.0,0.0,0.0,0.0,0.0,0.0,0.0,0.0,0.0,0.0,0.0,0.0,0.0,0.0,0.0,0.0,0.0,0.0,0.0,0.0,0.0,0.0,0.0,0.0,-1.4794,-1.4774,-1.4743,-1.4624,-1.4622,-1.3824,0.0,0.0,0.0,0.0,0.0,0.0,0.0,0.0,0.0,0.0,0.0,0.0,0.0,0.0,0.0,0.0,0.0,0.0,0.0,0.0,0.0,0.0,0.0,0.0,0.0,0.0,0.0,0.0,0.0,0.0,0.0,0.0,0.0,0.0,0.0,0.0,0.0,0.0,0.0,0.0,0.0,0.0,0.0,0.0,0.0,0.0,0.0,0.0,0.0,0.0,0.0,0.0,0.0,0.0,0.0,0.0,0.0,0.0,0.0,0.0,0.0,0.0,0.0,0.0,0.0,0.0,0.0,0.0,0.0,0.0,0.0,0.0,0.0,0.0,0.0,0.0,0.0,0.0,0.0,0.0,0.0,0.0,0.0,0.0,0.0,0.0,0.0,0.0,0.0,0.0,0.0,0.0,0.0,0.0,0.0,0.0,0.0,0.0,0.0,0.0,0.0,0.0,0.0,0.0,0.0,0.0,0.0,0.0,0.0,-1.4822,-1.4785,-1.4716,-1.4585,-1.4592,-1.3951,-1.2611,0.0,0.0,0.0,0.0,0.0,0.0,0.0,0.0,0.0,0.0,0.0,0.0,0.0,0.0,0.0,0.0,0.0,0.0,0.0,0.0,0.0,0.0,0.0,0.0,0.0,0.0,0.0,0.0,0.0,0.0,0.0,0.0,0.0,0.0,0.0,0.0,0.0,0.0,0.0,0.0,0.0,0.0,0.0,0.0,0.0,0.0,0.0,0.0,0.0,0.0,0.0,0.0,0.0,0.0,0.0,0.0,0.0,0.0,0.0,0.0,0.0,0.0,0.0,0.0,0.0,0.0,0.0,0.0,0.0,0.0,0.0,0.0,0.0,0.0,0.0,0.0,0.0,0.0,0.0,0.0,0.0,0.0,0.0,0.0,0.0,0.0,0.0,0.0,0.0,0.0,0.0,0.0,0.0,0.0,0.0,0.0,0.0,0.0,0.0,0.0,0.0,0.0,0.0,0.0,0.0,0.0,0.0,0.0,-1.4953,-1.4831,-1.4732,-1.4585,-1.4581,-1.4191,0.0,0.0,0.0,0.0,0.0,0.0,0.0,0.0,0.0,0.0,0.0,0.0,0.0,0.0,0.0,0.0,0.0,0.0,0.0,0.0,0.0,0.0,0.0,0.0,0.0,0.0,0.0,0.0,0.0,0.0,0.0,0.0,0.0,0.0,0.0,0.0,0.0,0.0,0.0,0.0,0.0,0.0,0.0,0.0,0.0,0.0,0.0,0.0,0.0,0.0,0.0,0.0,0.0,0.0,0.0,0.0,0.0,0.0,0.0,0.0,0.0,0.0,0.0,0.0,0.0,0.0,0.0,0.0,0.0,0.0,0.0,0.0,0.0,0.0,0.0,0.0,0.0,0.0,0.0,0.0,0.0,0.0,0.0,0.0,0.0,0.0,0.0,0.0,0.0,0.0,0.0,0.0,0.0,0.0,0.0,0.0,0.0,0.0,0.0,0.0,0.0,0.0,0.0,0.0,0.0,0.0,0.0,0.0,0.0,-1.5687,-1.5652,-1.5269,-1.4629,-1.4567,-1.4118,0.0,0.0,0.0,0.0,0.0,0.0,0.0,0.0,0.0,0.0,0.0,0.0,0.0,0.0,0.0,0.0,0.0,0.0,0.0,0.0,0.0,0.0,0.0,0.0,0.0,0.0,0.0,0.0,0.0,0.0,0.0,0.0,0.0,0.0,0.0,0.0,0.0,0.0,0.0,0.0,0.0,0.0,0.0,0.0,0.0,0.0,0.0,0.0,0.0,0.0,0.0,0.0,0.0,0.0,0.0,0.0,0.0,0.0,0.0,0.0,0.0,0.0,0.0,0.0,0.0,0.0,0.0,0.0,0.0,0.0,0.0,0.0,0.0,0.0,0.0,0.0,0.0,0.0,0.0,0.0,0.0,0.0,0.0,0.0,0.0,0.0,0.0,0.0,0.0,0.0,0.0,0.0,0.0,0.0,0.0,0.0,0.0,0.0,0.0,0.0,0.0,0.0,0.0,0.0,0.0,0.0,0.0,0.0,-1.5335,-1.6025,-1.5959,-1.5637,-1.5117,-1.5072,-1.4639,0.0,0.0,0.0,0.0,0.0,0.0,0.0,0.0,0.0,0.0,0.0,0.0,0.0,0.0,0.0,0.0,0.0,0.0,0.0,0.0,0.0,0.0,0.0,0.0,0.0,0.0,0.0,0.0,0.0,0.0,0.0,0.0,0.0,0.0,0.0,0.0,0.0,0.0,0.0,0.0,0.0,0.0,0.0,0.0,0.0,0.0,0.0,0.0,0.0,0.0,0.0,0.0,0.0,0.0,0.0,0.0,0.0,0.0,0.0,0.0,0.0,0.0,0.0,0.0,0.0,0.0,0.0,0.0,0.0,0.0,0.0,0.0,0.0,0.0,0.0,0.0,0.0,0.0,0.0,0.0,0.0,0.0,0.0,0.0,0.0,0.0,0.0,0.0,0.0,0.0,0.0,0.0,0.0,0.0,0.0,0.0,0.0,0.0,0.0,0.0,0.0,0.0,0.0,0.0,0.0,0.0,0.0,0.0,-1.5392,-1.6214,-1.6097,-1.5977,-1.5931,-1.5827,-1.5386,0.0,0.0,0.0,0.0,0.0,0.0,0.0,0.0,0.0,0.0,0.0,0.0,0.0,0.0,0.0,0.0,0.0,0.0,0.0,0.0,0.0,0.0,0.0,0.0,0.0,0.0,0.0,0.0,0.0,0.0,0.0,0.0,0.0,0.0,0.0,0.0,0.0,0.0,0.0,0.0,0.0,0.0,0.0,0.0,0.0,0.0,0.0,0.0,0.0,0.0,0.0,0.0,0.0,0.0,0.0,0.0,0.0,0.0,0.0,0.0,0.0,0.0,0.0,0.0,0.0,0.0,0.0,0.0,0.0,0.0,0.0,0.0,0.0,0.0,0.0,0.0,0.0,0.0,0.0,0.0,0.0,0.0,0.0,0.0,0.0,0.0,0.0,0.0,0.0,0.0,0.0,0.0,0.0,0.0,0.0,0.0,0.0,0.0,0.0,0.0,0.0,0.0,0.0,0.0,0.0,0.0,0.0,0.0,-1.5648,-1.6991,-1.6925,-1.6812,-1.6744,-1.6091,-1.5313,0.0,0.0,0.0,0.0,0.0,0.0,0.0,0.0,0.0,0.0,0.0,0.0,0.0,0.0,0.0,0.0,0.0,0.0,0.0,0.0,0.0,0.0,0.0,0.0,0.0,0.0,0.0,0.0,0.0,0.0,0.0,0.0,0.0,0.0,0.0,0.0,0.0,0.0,0.0,0.0,0.0,0.0,0.0,0.0,0.0,0.0,0.0,0.0,-1.1113,0.0,0.0,0.0,0.0,0.0,0.0,0.0,0.0,0.0,0.0,0.0,0.0,0.0,0.0,0.0,0.0,0.0,0.0,0.0,0.0,0.0,0.0,0.0,0.0,0.0,0.0,0.0,0.0,0.0,0.0,0.0,0.0,0.0,0.0,0.0,0.0,0.0,0.0,0.0,0.0,0.0,0.0,0.0,0.0,0.0,0.0,0.0,0.0,0.0,0.0,0.0,0.0,0.0,0.0,0.0,0.0,0.0,0.0,0.0,-1.5741,-1.7216,-1.6836,-1.6718,-1.6947,-1.6177,-1.5313,0.0,0.0,0.0,0.0,0.0,0.0,0.0,0.0,0.0,0.0,0.0,0.0,0.0,0.0,0.0,0.0,0.0,0.0,0.0,0.0,0.0,0.0,0.0,0.0,0.0,0.0,0.0,0.0,0.0,0.0,0.0,0.0,0.0,0.0,0.0,0.0,0.0,0.0,0.0,0.0,0.0,0.0,0.0,0.0,0.0,0.0,0.0,0.0,0.0,0.0,0.0,0.0,0.0,0.0,0.0,0.0,0.0,0.0,0.0,0.0,0.0,0.0,0.0,0.0,0.0,0.0,0.0,0.0,0.0,0.0,0.0,0.0,0.0,0.0,0.0,0.0,0.0,0.0,0.0,0.0,0.0,0.0,0.0,0.0,0.0,0.0,0.0,0.0,0.0,0.0,0.0,0.0,0.0,0.0,0.0,0.0,0.0,0.0,0.0,0.0,0.0,0.0,0.0,0.0,0.0,0.0,0.0,-1.5038,-1.5759,-1.7192,-1.6461,-1.6325,-1.696,-1.6226,-1.5362,-1.4417,0.0,0.0,0.0,0.0,0.0,0.0,0.0,0.0,0.0,0.0,0.0,0.0,0.0,0.0,0.0,0.0,0.0,0.0,0.0,0.0,0.0,0.0,0.0,0.0,0.0,0.0,0.0,0.0,0.0,0.0,0.0,0.0,0.0,0.0,0.0,0.0,0.0,0.0,-0.8946,-1.0676,0.0,0.0,0.0,0.0,0.0,0.0,0.0,0.0,-1.365,0.0,0.0,0.0,0.0,0.0,0.0,0.0,0.0,0.0,0.0,0.0,0.0,0.0,0.0,0.0,0.0,0.0,0.0,0.0,0.0,0.0,0.0,0.0,0.0,0.0,0.0,0.0,0.0,0.0,0.0,0.0,0.0,0.0,0.0,0.0,0.0,0.0,0.0,0.0,0.0,0.0,0.0,0.0,0.0,0.0,0.0,0.0,0.0,0.0,0.0,0.0,0.0,0.0,0.0,0.0,0.0,-1.5108,-1.5038,-1.5778,-1.7317,-1.649,-1.6336,-1.7009,-1.6208,-1.5301,-1.4417,0.0,0.0,0.0,0.0,0.0,0.0,0.0,0.0,0.0,0.0,0.0,0.0,0.0,0.0,0.0,0.0,0.0,0.0,0.0,0.0,0.0,0.0,0.0,0.0,0.0,0.0,0.0,0.0,0.0,0.0,0.0,0.0,0.0,0.0,0.0,0.0,0.0,0.0,0.0,-1.1866,-1.262,0.0,0.0,0.0,0.0,0.0,0.0,0.0,0.0,-1.3646,0.0,0.0,0.0,0.0,0.0,0.0,0.0,0.0,0.0,0.0,0.0,0.0,0.0,0.0,0.0,0.0,0.0,0.0,0.0,0.0,0.0,0.0,0.0,0.0,0.0,0.0,0.0,0.0,0.0,0.0,0.0,0.0,0.0,0.0,0.0,0.0,0.0,0.0,0.0,0.0,0.0,0.0,0.0,0.0,0.0,0.0,0.0,0.0,0.0,0.0,0.0,0.0,0.0,0.0,0.0,-1.5108,-1.5066,-1.582,-1.7291,-1.6071,-1.594,-1.7003,-1.5777,-1.4854,0.0,0.0,0.0,0.0,0.0,0.0,0.0,0.0,0.0,0.0,0.0,0.0,0.0,0.0,0.0,0.0,0.0,0.0,0.0,0.0,0.0,0.0,0.0,0.0,0.0,0.0,0.0,0.0,0.0,0.0,0.0,0.0,0.0,0.0,0.0,0.0,0.0,0.0,0.0,0.0,-1.2611,-1.3263,-1.4441,0.0,0.0,0.0,0.0,0.0,0.0,-1.41,-1.3912,0.0,0.0,0.0,0.0,0.0,0.0,0.0,0.0,0.0,0.0,0.0,0.0,0.0,0.0,0.0,0.0,0.0,0.0,0.0,0.0,0.0,0.0,0.0,0.0,0.0,0.0,0.0,0.0,0.0,0.0,0.0,0.0,0.0,0.0,0.0,0.0,0.0,0.0,0.0,0.0,0.0,0.0,0.0,0.0,0.0,0.0,0.0,0.0,0.0,0.0,0.0,0.0,0.0,0.0,0.0,-1.5108,-1.5113,-1.5853,-1.7254,-1.5706,-1.5532,-1.6996,-1.5402,-1.4462,0.0,0.0,0.0,0.0,0.0,0.0,0.0,0.0,0.0,0.0,0.0,0.0,0.0,0.0,0.0,0.0,0.0,0.0,0.0,0.0,0.0,0.0,0.0,0.0,0.0,0.0,0.0,0.0,0.0,0.0,0.0,0.0,0.0,0.0,0.0,0.0,0.0,0.0,0.0,0.0,0.0,-1.382,-1.4635,-1.4717,0.0,0.0,0.0,0.0,-1.4381,-1.4229,0.0,0.0,0.0,0.0,0.0,0.0,0.0,0.0,0.0,0.0,0.0,0.0,0.0,0.0,0.0,0.0,0.0,0.0,0.0,0.0,0.0,0.0,0.0,0.0,0.0,0.0,0.0,0.0,0.0,0.0,0.0,0.0,0.0,0.0,0.0,0.0,0.0,0.0,0.0,0.0,0.0,0.0,0.0,0.0,0.0,0.0,0.0,0.0,0.0,0.0,0.0,0.0,0.0,0.0,0.0,0.0,-1.5114,-1.5119,-1.5853,-1.7227,-1.5706,-1.5542,-1.7027,-1.5408,-1.4476,0.0,0.0,0.0,0.0,0.0,0.0,0.0,0.0,0.0,0.0,0.0,0.0,0.0,0.0,0.0,0.0,0.0,0.0,0.0,0.0,0.0,0.0,0.0,0.0,0.0,0.0,0.0,0.0,0.0,0.0,0.0,0.0,0.0,0.0,0.0,0.0,0.0,0.0,0.0,0.0,0.0,-1.3952,-1.4756,-1.4832,-1.4776,0.0,0.0,-1.4622,-1.4478,-1.4375,0.0,0.0,0.0,0.0,0.0,0.0,0.0,0.0,0.0,0.0,0.0,0.0,0.0,0.0,0.0,0.0,0.0,0.0,0.0,0.0,0.0,0.0,0.0,0.0,0.0,0.0,0.0,0.0,0.0,0.0,0.0,0.0,0.0,0.0,0.0,0.0,0.0,0.0,0.0,0.0,0.0,0.0,0.0,0.0,0.0,0.0,0.0,0.0,0.0,0.0,0.0,0.0,0.0,0.0,0.0,-1.5171,-1.5101,-1.5113,-1.5857,-1.734,-1.5753,-1.5591,-1.713,-1.5425,-1.4469,0.0,0.0,0.0,0.0,0.0,0.0,0.0,0.0,0.0,0.0,0.0,0.0,0.0,0.0,0.0,0.0,0.0,0.0,0.0,0.0,0.0,0.0,0.0,0.0,0.0,0.0,0.0,0.0,0.0,0.0,0.0,0.0,0.0,0.0,0.0,0.0,0.0,0.0,0.0,0.0,0.0,0.0,-1.4917,-1.4904,0.0,0.0,0.0,-1.4705,-1.4632,0.0,0.0,0.0,0.0,0.0,0.0,0.0,0.0,0.0,0.0,0.0,0.0,0.0,0.0,0.0,0.0,0.0,0.0,0.0,0.0,0.0,0.0,0.0,0.0,0.0,0.0,0.0,0.0,0.0,0.0,0.0,0.0,0.0,0.0,0.0,0.0,0.0,0.0,0.0,0.0,0.0,0.0,0.0,0.0,0.0,0.0,0.0,0.0,0.0,0.0,0.0,0.0,0.0,0.0,0.0,0.0,0.0,-1.5114,-1.5107,-1.5777,-1.7074,-1.5696,-1.5555,-1.6817,-1.5355,0.0,0.0,0.0,0.0,0.0,0.0,0.0,0.0,0.0,0.0,0.0,0.0,0.0,0.0,0.0,0.0,0.0,0.0,0.0,0.0,0.0,0.0,0.0,0.0,0.0,0.0,0.0,-0.7349,0.0,0.0,0.0,0.0,0.0,0.0,0.0,0.0,0.0,0.0,0.0,0.0,0.0,0.0,-1.5008,-1.5027,-1.4971,-1.493,0.0,0.0,-1.4794,-1.4744,-1.4629,-1.4499,0.0,0.0,0.0,0.0,0.0,0.0,0.0,0.0,0.0,0.0,0.0,0.0,0.0,0.0,0.0,0.0,0.0,0.0,0.0,0.0,0.0,0.0,0.0,0.0,0.0,0.0,0.0,0.0,0.0,0.0,0.0,0.0,0.0,0.0,0.0,0.0,0.0,0.0,0.0,0.0,0.0,0.0,0.0,0.0,0.0,0.0,0.0,0.0,0.0,0.0,0.0,0.0,0.0,0.0,0.0,-1.5114,-1.5107,-1.5491,-1.6231,-1.5383,-1.5283,-1.6044,-1.5099,-1.4537,0.0,0.0,0.0,0.0,0.0,0.0,0.0,0.0,0.0,0.0,0.0,0.0,0.0,0.0,0.0,0.0,0.0,0.0,0.0,0.0,0.0,0.0,0.0,0.0,0.0,0.0,0.0,0.0,0.0,0.0,0.0,0.0,0.0,0.0,0.0,0.0,0.0,0.0,0.0,0.0,0.0,-1.5105,-1.509,-1.5023,-1.4992,0.0,0.0,-1.4857,-1.4822,-1.4754,-1.4651,-1.4519,0.0,0.0,0.0,0.0,0.0,0.0,0.0,0.0,0.0,0.0,0.0,0.0,0.0,0.0,0.0,0.0,0.0,0.0,0.0,0.0,0.0,0.0,0.0,0.0,0.0,0.0,0.0,0.0,0.0,0.0,0.0,0.0,0.0,0.0,0.0,0.0,0.0,0.0,0.0,0.0,0.0,0.0,0.0,0.0,0.0,0.0,0.0,0.0,0.0,0.0,0.0,0.0,0.0,-1.5158,-1.5114,-1.5101,-1.5482,-1.6189,-1.5363,-1.5254,-1.5982,-1.5083,-1.4549,0.0,0.0,0.0,0.0,0.0,0.0,0.0,0.0,0.0,0.0,0.0,0.0,0.0,0.0,0.0,0.0,0.0,0.0,0.0,0.0,0.0,0.0,0.0,0.0,0.0,0.0,0.0,0.0,-0.9849,-1.0063,-1.0108,0.0,0.0,0.0,0.0,0.0,0.0,0.0,0.0,0.0,0.0,-1.5344,-1.584,-1.5842,0.0,0.0,-1.655,-1.6307,-1.5761,-1.5612,-1.5336,-1.4741,-1.4552,0.0,0.0,0.0,0.0,0.0,0.0,0.0,0.0,0.0,0.0,0.0,0.0,0.0,0.0,0.0,0.0,0.0,0.0,0.0,0.0,0.0,0.0,0.0,0.0,0.0,0.0,0.0,0.0,0.0,0.0,0.0,0.0,0.0,0.0,0.0,0.0,0.0,0.0,0.0,0.0,0.0,0.0,0.0,0.0,0.0,0.0,0.0,0.0,0.0,0.0,0.0,0.0,-1.5164,-1.514,-1.5114,-1.5388,-1.5906,-1.5291,-1.5177,-1.562,-1.5005,-1.4463,0.0,0.0,0.0,0.0,0.0,0.0,0.0,0.0,0.0,0.0,0.0,0.0,0.0,0.0,0.0,0.0,0.0,0.0,0.0,0.0,0.0,0.0,0.0,0.0,0.0,0.0,0.0,0.0,-1.0063,-1.0204,-1.0472,0.0,0.0,0.0,0.0,0.0,0.0,0.0,0.0,0.0,0.0,-1.5498,-1.6277,-1.6357,-1.6651,-1.7511,-1.7589,-1.7308,-1.6704,-1.6564,-1.629,-1.5628,0.0,0.0,0.0,0.0,0.0,0.0,0.0,0.0,0.0,0.0,0.0,0.0,0.0,0.0,0.0,0.0,0.0,0.0,0.0,0.0,0.0,0.0,0.0,0.0,0.0,0.0,0.0,0.0,0.0,0.0,-1.2819,0.0,0.0,0.0,0.0,0.0,0.0,0.0,0.0,0.0,0.0,0.0,0.0,0.0,0.0,0.0,0.0,0.0,0.0,0.0,0.0,0.0,0.0,-1.5203,-1.521,-1.5178,-1.5133,-1.5188,-1.5053,-1.5009,-1.4971,-1.4766,-1.4314,-1.3426,0.0,0.0,0.0,0.0,0.0,0.0,0.0,0.0,0.0,0.0,0.0,0.0,0.0,0.0,0.0,0.0,0.0,0.0,0.0,0.0,0.0,0.0,0.0,0.0,0.0,0.0,-1.0139,-1.0108,-1.0448,0.0,0.0,0.0,0.0,0.0,0.0,0.0,0.0,0.0,0.0,-1.5243,-1.551,-1.6311,-1.6406,-1.6788,-1.7623,-1.7681,-1.7619,-1.7591,-1.7508,-1.7453,0.0,0.0,0.0,0.0,0.0,0.0,0.0,0.0,0.0,0.0,0.0,0.0,0.0,0.0,0.0,0.0,0.0,0.0,0.0,0.0,0.0,0.0,0.0,0.0,0.0,0.0,0.0,-1.6204,-1.6196,0.0,0.0,0.0,0.0,0.0,0.0,0.0,0.0,0.0,0.0,0.0,-1.7794,-1.7794,0.0,0.0,0.0,0.0,0.0,0.0,0.0,0.0,0.0,0.0,0.0,0.0,-1.5472,-1.5965,-1.5984,-1.6225,-1.6743,-1.6165,-1.5852,-1.5762,-1.5076,-1.4025,-1.2593,0.0,0.0,0.0,0.0,0.0,0.0,0.0,0.0,0.0,0.0,0.0,0.0,0.0,0.0,0.0,0.0,0.0,0.0,0.0,0.0,0.0,0.0,0.0,0.0,0.0,-1.0334,0.0,0.0,0.0,0.0,0.0,0.0,0.0,0.0,0.0,0.0,0.0,-1.5299,-1.5279,-1.5787,-1.6403,-1.7151,-1.776,-1.8439,0.0,0.0,0.0,0.0,0.0,0.0,0.0,0.0,0.0,0.0,0.0,0.0,0.0,0.0,-1.4841,-1.326,-1.2704,-1.2403,-1.2024,0.0,0.0,0.0,0.0,0.0,0.0,0.0,0.0,0.0,0.0,0.0,0.0,0.0,0.0,-1.8794,0.0,-1.846,0.0,0.0,0.0,0.0,0.0,0.0,0.0,0.0,-1.8832,-1.9186,-1.9296,-1.9477,-1.9554,0.0,-1.8975,-1.841,0.0,0.0,0.0,0.0,0.0,0.0,0.0,0.0,-1.6324,-1.6836,-1.6847,-1.7114,-1.757,-1.6761,-1.6295,-1.6214,-1.4963,-1.3607,-1.2197,-1.1306,-1.044,0.0,0.0,0.0,0.0,0.0,0.0,0.0,0.0,0.0,0.0,0.0,0.0,0.0,0.0,0.0,0.0,0.0,0.0,0.0,0.0,0.0,0.0,0.0,-1.0774,0.0,0.0,0.0,0.0,0.0,0.0,0.0,0.0,0.0,-1.5355,-1.5582,-1.5749,-1.5752,-1.6503,-1.7316,-1.8088,0.0,0.0,0.0,0.0,0.0,0.0,0.0,-1.9194,-1.8599,-1.845,-1.827,-1.7885,-1.7412,-1.7077,-1.7009,0.0,0.0,-1.4324,-1.3813,-1.3514,-1.2975,-1.274,-1.249,-1.2024,-1.0788,-0.8446,0.0,0.0,0.0,0.0,0.0,0.0,0.0,0.0,-2.0579,-2.0536,0.0,-1.9711,0.0,0.0,0.0,0.0,0.0,-1.8896,0.0,0.0,-2.0824,-2.1855,-2.2112,-2.259,-2.2861,-2.2784,-2.1217,-2.0444,-2.0236,-1.7851,0.0,0.0,0.0,0.0,0.0,0.0,-1.7696,-1.7741,-1.7745,-1.7761,-1.7799,-1.6858,-1.6306,-1.6219,-1.4473,-1.3104,-1.2224,-1.1369,-1.0492,-0.9641,-0.9535,0.0,0.0,0.0,0.0,0.0,0.0,0.0,0.0,0.0,0.0,0.0,0.0,0.0,0.0,0.0,0.0,0.0,0.0,0.0,0.0,-1.0847,0.0,0.0,0.0,0.0,0.0,0.0,0.0,0.0,0.0,0.0,-1.5477,-1.6107,-1.6619,-1.6635,0.0,0.0,0.0,0.0,-1.9426,-2.0192,-2.0295,-2.0306,-2.0281,-2.0273,-2.0269,-2.0171,0.0,0.0,-1.882,-1.7963,-1.7412,-1.7315,-1.7363,-1.6881,-1.5681,-1.5302,-1.4905,-1.4147,-1.3878,-1.3625,-1.3176,-1.1684,-0.8829,-2.2596,0.0,0.0,0.0,0.0,-2.191,-2.2061,-2.2275,-2.229,-2.2285,-2.2236,-2.2011,0.0,0.0,0.0,0.0,0.0,0.0,-2.1759,-2.1713,-2.23,-2.259,-2.2687,-2.2823,-2.2881,-2.2861,-2.2402,-2.2176,-2.2057,-2.0176,-1.871,-1.7715,0.0,0.0,0.0,0.0,-1.801,-1.8588,-1.8643,-1.8908,-1.9468,-1.8021,-1.6611,-1.5335,-1.4137,-1.3085,-1.2224,-1.136,-1.0501,-0.9641,-0.9535,0.0,0.0,0.0,0.0,0.0,0.0,0.0,0.0,0.0,0.0,0.0,0.0,0.0,0.0,0.0,0.0,0.0,0.0,0.0,-1.0933,-1.1244,-1.1906,0.0,0.0,0.0,0.0,0.0,0.0,0.0,0.0,0.0,-1.6337,-1.6539,-1.6898,0.0,0.0,-1.8919,-1.9129,-1.9662,-2.0103,-2.0319,0.0,0.0,0.0,-2.0318,-2.03,-2.0269,-2.0209,-2.005,-1.9725,-1.9418,-1.9218,-1.917,-1.92,-1.8907,-1.8047,-1.716,-1.6536,-1.6252,-1.6093,-1.5777,-1.5127,-1.3249,-0.9855,-2.4336,-2.3894,-2.3269,-2.3201,-2.3509,-2.3514,-2.3708,-2.4019,-2.4033,-2.4028,-2.4008,-2.3667,-2.3506,-2.3506,-2.316,0.0,0.0,0.0,-2.3035,-2.3248,-2.3364,-2.3596,-2.3925,-2.3925,-2.3944,-2.3906,-2.357,-2.3412,-2.3377,-2.2022,-2.0793,-1.9711,0.0,0.0,-1.8734,-1.8734,-1.8965,-1.9485,-1.9508,-1.9715,-2.015,-1.8499,-1.6755,-1.5003,-1.436,-1.3475,-1.2278,-1.1708,-1.0865,-0.9658,-0.956,-0.9517,0.0,0.0,0.0,0.0,0.0,0.0,0.0,0.0,0.0,0.0,0.0,-0.9803,0.0,0.0,0.0,0.0,-1.0288,-1.0746,-1.135,-1.2003,0.0,0.0,0.0,0.0,0.0,0.0,0.0,-1.5404,-1.6161,-1.6852,-1.7166,-1.7511,-1.7891,-1.837,-1.9156,-1.971,-1.9713,0.0,-2.0444,-2.0448,-2.0418,-2.0377,-2.0386,-2.0372,-2.0325,-2.0308,-2.0269,-2.0216,-2.0144,-2.0116,-2.0078,-2.0096,-2.009,-1.9983,-1.956,-1.8906,-1.815,-1.7498,-1.7108,-1.6622,-1.5771,-1.3461,-0.978,-2.5409,-2.5367,-2.3836,-2.367,-2.4393,-2.4405,-2.4863,-2.5582,-2.5601,-2.5601,-2.5543,-2.4752,-2.4416,-2.436,-2.3554,0.0,-2.3198,-2.3127,-2.3422,-2.3937,-2.4196,-2.4737,-2.5492,-2.5511,-2.5511,-2.5472,-2.4679,-2.4304,-2.4242,-2.3416,-2.2967,-2.2827,-2.0489,-1.9704,-2.0446,-2.0446,-2.0408,-2.04,-2.0257,-2.0184,-2.0073,-1.8463,-1.6802,-1.5155,-1.4957,-1.4107,-1.2506,-1.2278,-1.1432,-0.9818,-0.964,-0.9578,-0.9508,0.0,0.0,0.0,0.0,0.0,0.0,0.0,0.0,0.0,0.0,0.0,0.0,0.0,0.0,0.0,-1.0844,0.0,-1.1575,-1.2982,0.0,0.0,0.0,-1.5293,-1.5291,-1.541,-1.5493,-1.5518,0.0,0.0,-1.7991,0.0,-1.937,-1.9322,-1.9999,-2.0516,-2.0506,-2.0488,-2.0511,-2.0497,-2.0444,-2.0424,-2.0404,-2.0405,-2.0386,-2.0318,-2.0292,-2.0277,-2.0208,-2.0235,-2.0231,-2.0215,-2.0276,-2.0318,-2.0372,-2.0234,-1.9777,-1.8076,-1.7402,-1.6697,-1.5368,-1.2775,-0.8872,-2.6222,-2.6168,-2.5222,-2.5006,-2.5304,-2.531,-2.5413,-2.5593,-2.5607,-2.5601,-2.5582,-2.5368,-2.5284,-2.5286,-2.5066,-2.4949,-2.4902,-2.4895,-2.4958,-2.5097,-2.5163,-2.5318,-2.5511,-2.5511,-2.5511,-2.5492,-2.5279,-2.5174,-2.5073,-2.4246,-2.3796,-2.3722,-2.2502,-2.2004,-2.2177,-2.1543,-2.1216,-2.1188,-2.0592,-1.9923,-1.9211,-1.8149,-1.7088,-1.601,-1.5287,-1.437,-1.3251,-1.2566,-1.1699,-1.0646,-0.9947,-0.9588,-0.95,-0.9552,0.0,0.0,0.0,0.0,0.0,0.0,0.0,0.0,0.0,-0.9798,-0.9787,0.0,-1.0194,0.0,-1.1686,-1.2515,-1.3242,-1.3654,0.0,0.0,-1.5135,-1.5298,-1.5288,-1.5889,-1.6337,-1.6381,-1.7679,-1.8683,-1.8962,-1.9749,-2.0279,-2.0275,-2.0404,-2.0511,-2.0503,-2.0513,-2.0503,-2.0511,-2.0487,-2.0483,-2.0468,-2.0421,-2.0392,-2.0386,-2.0379,-2.036,-2.0282,-2.0321,-2.0347,-2.0363,-2.0428,-2.0433,-2.0409,-2.0314,-1.9941,-1.9077,-1.8471,-1.7537,-1.5676,-1.2416,-0.8243,-2.7094,-2.708,-2.667,-2.6346,-2.6074,-2.5687,-2.557,-2.5601,-2.5615,-2.5615,-2.5601,-2.5601,-2.5595,-2.5609,-2.5602,-2.5564,-2.551,-2.5522,-2.5507,-2.5511,-2.5511,-2.5511,-2.5511,-2.5511,-2.5511,-2.5511,-2.5511,-2.5484,-2.5429,-2.4921,-2.4664,-2.4656,-2.4158,-2.3908,-2.3851,-2.2697,-2.1889,-2.1504,-2.068,-1.983,-1.8915,-1.8425,-1.7581,-1.6358,-1.5767,-1.4866,-1.3596,-1.2704,-1.1818,-1.0929,-1.0072,-0.9585,-0.9542,-0.9578,-0.9621,0.0,0.0,0.0,0.0,0.0,0.0,0.0,0.0,0.0,0.0,0.0,-1.0854,-1.1756,-1.2573,-1.3303,-1.3837,-1.4249,-1.4662,-1.5163,-1.5618,-1.5879,-1.5889,-1.6654,-1.7198,-1.7248,-1.8393,-1.9222,-1.9312,-2.0059,-2.0591,-2.0593,-2.0568,-2.0543,-2.0536,-2.0528,-2.05,-2.0513,-2.0508,-2.0502,-2.0464,-2.0418,-2.0377,-2.039,-2.039,-2.0396,-2.0352,-2.0399,-2.0449,-2.0441,-2.0467,-2.0483,-2.0417,-2.0211,-1.9865,-1.913,-1.8179,-1.6838,-1.4951,-1.1535,-0.729,-2.7988,-2.8044,-2.795,-2.7489,-2.6809,-2.6122,-2.5725,-2.5596,-2.5577,-2.5602,-2.5595,-2.5601,-2.5601,-2.5601,-2.5609,-2.557,-2.5518,-2.5517,-2.5507,-2.5511,-2.5511,-2.5511,-2.5511,-2.5511,-2.5511,-2.5511,-2.5511,-2.5511,-2.5492,-2.5432,-2.5387,-2.5387,-2.5332,-2.5313,-2.5226,-2.3851,-2.2581,-2.1523,-2.0636,-1.9824,-1.9068,-1.8958,-1.8113,-1.6573,-1.6295,-1.542,-1.3846,-1.2915,-1.2065,-1.1249,-1.038,-0.9871,-0.9755,-0.9749,-0.9745,0.0,-0.9646,0.0,0.0,0.0,0.0,0.0,0.0,0.0,0.0,-1.0955,-1.187,-1.2674,-1.3494,-1.3991,-1.4047,-1.4736,-1.5245,-1.5375,-1.6101,-1.6629,-1.6788,-1.7553,-1.8056,-1.8088,-1.8832,-1.9392,-1.9483,-2.0133,-2.0607,-2.0591,-2.0593,-2.0591,-2.0586,-2.0558,-2.0506,-2.0503,-2.0503,-2.048,-2.0434,-2.0415,-2.041,-2.041,-2.0415,-2.0405,-2.0405,-2.0472,-2.0503,-2.0511,-2.05,-2.0466,-2.0393,-2.0102,-1.9595,-1.8776,-1.7287,-1.5604,-1.3617,-1.0336,-0.6168,-2.8864,-2.8818,-2.8181,-2.7797,-2.7663,-2.7518,-2.6721,-2.5518,-2.5518,-2.5551,-2.5602,-2.5615,-2.5601,-2.5601,-2.5601,-2.5583,-2.5511,-2.5511,-2.551,-2.5511,-2.5511,-2.5511,-2.5511,-2.5511,-2.5511,-2.5511,-2.5511,-2.5511,-2.5511,-2.5432,-2.5387,-2.5387,-2.5332,-2.5313,-2.5293,0.0,0.0,0.0,-2.0636,-2.012,-1.992,-1.9245,-1.8408,-1.7384,-1.6599,0.0,-1.4699,-1.3774,-1.317,-1.2919,-1.2087,0.0,0.0,0.0,0.0,0.0,0.0,0.0,0.0,0.0,0.0,0.0,-1.0438,-1.0858,-1.0928,-1.2303,-1.3332,-1.3577,-1.4341,-1.4858,-1.4859,-1.5061,-1.5474,-1.6166,-1.6479,-1.6876,-1.7563,-1.8426,-1.8954,-1.8967,-1.9721,-2.024,-2.0255,-2.0482,-2.0605,-2.0607,-2.0591,-2.0593,-2.0593,-2.0543,-2.0514,-2.0514,-2.0513,-2.0496,-2.048,-2.0476,-2.0472,-2.0495,-2.0476,-2.0484,-2.0492,-2.0487,-2.0514,-2.0516,-2.0508,-2.0441,-2.0274,-1.9922,-1.9338,-1.8342,-1.671,-1.4829,-1.2756,-0.9257,-0.5161,-2.9721,0.0,-2.9313,-2.8893,0.0,-2.8539,-2.7836,-2.6688,-2.6715,-2.6524,-2.6165,-2.5777,-2.5609,-2.5609,-2.5609,-2.5557,-2.5511,-2.5524,-2.5522,-2.5511,-2.5511,-2.5511,-2.5511,-2.5511,-2.5511,-2.5511,-2.5511,-2.5511,-2.5503,-2.5432,-2.5387,-2.5387,-2.5332,-2.5313,-2.5293,-2.4909,-2.387,-2.2158,-2.1289,-2.0638,-2.0208,-1.9743,-1.8877,-1.7659,0.0,0.0,0.0,0.0,0.0,0.0,0.0,0.0,0.0,0.0,0.0,-1.0383,-0.9991,-0.9815,-0.9862,-1.0212,-1.0436,-1.0468,-1.1643,-1.2402,-1.2418,-1.3242,-1.3942,-1.441,-1.487,-1.5101,-1.5114,-1.5522,-1.6019,-1.6461,-1.7291,-1.8019,-1.8494,-1.9265,-1.9808,-1.9877,-2.022,-2.0503,-2.0503,-2.0531,-2.056,-2.0605,-2.0607,-2.0591,-2.0593,-2.0545,-2.0516,-2.0506,-2.0513,-2.0499,-2.0508,-2.0508,-2.0508,-2.0508,-2.0515,-2.0506,-2.0513,-2.0536,-2.0534,-2.0508,-2.0477,-2.0379,-2.016,-1.9762,-1.9044,-1.7881,-1.6207,-1.4002,-1.1491,-0.8102,-0.4315,-3.0348,-3.0398,-3.0398,-3.0017,-2.9393,-2.9404,-2.9012,-2.8319,0.0,0.0,0.0,-2.632,-2.5958,-2.581,-2.5803,-2.5699,-2.5511,-2.5503,-2.5507,-2.5511,-2.5511,-2.5511,-2.5511,-2.5511,-2.5511,-2.5511,-2.5511,-2.5511,-2.5503,-2.5432,-2.5387,-2.5387,-2.5332,-2.5303,-2.5245,-2.4649,-2.3812,-2.2803,-2.195,-2.106,-2.0235,-2.0144,-1.9373,-1.7849,-1.7613,-1.6762,-1.5188,-1.4213,-1.3728,-1.37,-1.3012,-1.2558,-1.2401,-1.1771,-1.1362,-1.1209,-1.0603,-1.0271,-1.0344,-1.0969,-1.1401,-1.1535,-1.2885,-1.3724,-1.379,-1.3923,-1.4306,-1.5042,-1.5247,-1.5337,-1.5344,-1.6169,-1.6796,-1.6943,-1.8219,-1.9123,-1.9352,-1.9949,-2.0415,-2.05,-2.0484,-2.0515,-2.05,-2.0503,-2.0511,-2.056,-2.0584,-2.0586,-2.0588,-2.0523,-2.0511,-2.0513,-2.051,-2.0503,-2.0515,-2.0515,-2.0515,-2.0499,-2.0513,-2.0506,-2.0516,-2.0573,-2.0585,-2.0523,-2.0433,-2.0303,-2.0084,-1.956,-1.8768,-1.7624,-1.5697,-1.3311,-1.0242,-0.6959,-0.3317,-3.0367,-3.0316,-3.0379,-3.0309,-3.0155,-3.0206,-3.0183,-2.9927,-2.8618,-2.7948,-2.7826,-2.7772,-2.7334,-2.6636,-2.6636,-2.6202,-2.5522,-2.5515,-2.5507,0.0,-2.5511,-2.5511,-2.5511,-2.5511,-2.5511,-2.5511,-2.5511,-2.5511,-2.5484,-2.5432,-2.5387,-2.5387,-2.5332,-2.5293,-2.5292,-2.5177,-2.4322,-2.2757,-2.1903,-2.1078,-2.0235,-2.0201,-1.9678,-1.8669,-1.788,-1.7045,-1.6064,-1.5104,-1.4579,-1.4539,-1.4425,-1.4013,-1.3269,-1.3123,-1.278,-1.2172,-1.2007,-1.1982,-1.2023,-1.2174,-1.2554,-1.3263,-1.3577,-1.374,-1.3809,-1.4418,-1.4897,-1.5125,-1.5765,-1.6201,-1.6272,-1.7067,-1.7883,-1.8564,-1.8946,-1.9391,-2.0084,-2.0337,-2.0493,-2.0511,-2.05,-2.0511,-2.0506,-2.05,-2.0506,-2.0509,-2.0516,-2.0519,-2.0533,-2.0514,-2.0511,-2.05,-2.0516,-2.0516,-2.0513,-2.05,-2.05,-2.0503,-2.0514,-2.0525,-2.0554,-2.0563,-2.0566,-2.051,-2.0395,-2.0231,-1.9973,-1.9393,-1.8449,-1.7205,-1.5224,-1.2665,-0.9579,-0.5762,-0.1798,-3.0316,-3.0304,-3.0343,-3.033,-3.0299,-3.0328,-3.0364,-3.034,-2.962,-2.9062,-2.8683,-2.8244,-2.7823,-2.7416,-2.6989,-2.6595,-2.618,-2.572,-2.5519,-2.5511,-2.5511,-2.5511,-2.5511,-2.5511,-2.5484,-2.5437,-2.5437,-2.5448,-2.5451,-2.5406,-2.5388,-2.5388,-2.5332,-2.5302,-2.5311,-2.5252,-2.4417,-2.2738,-2.2336,-2.1521,-2.0248,-2.0164,-1.9726,-1.8831,-1.7984,-1.713,-1.6234,-1.5329,-1.4823,-1.4756,-1.4746,-1.4556,-1.4164,-1.37,-1.3318,-1.3017,-1.2566,-1.2327,-1.238,-1.2828,-1.3409,-1.426,-1.4344,-1.4592,-1.511,-1.5053,-1.5228,-1.5725,-1.6187,-1.6591,-1.7072,-1.7953,-1.868,-1.9046,-1.9488,-1.9967,-2.0302,-2.0454,-2.0512,-2.0506,-2.05,-2.0511,-2.0503,-2.0513,-2.0503,-2.0506,-2.0514,-2.0514,-2.0506,-2.0509,-2.0509,-2.05,-2.05,-2.0503,-2.0503,-2.0509,-2.0511,-2.0514,-2.0525,-2.0573,-2.0601,-2.0566,-2.054,-2.0509,-2.0371,-2.013,-1.9838,-1.9165,-1.8159,-1.6771,-1.476,-1.2104,-0.8685,-0.3428,0.1863,-3.0477,-3.0311,-3.0305,-3.0312,-3.0312,-3.0316,-3.0333,-3.0375,-3.0378,-3.0083,-2.9496,-2.8829,-2.8468,-2.8225,-2.7625,-2.716,-2.6715,-2.6091,-2.5677,-2.5503,-2.5476,-2.5476,-2.5476,-2.5456,-2.5448,-2.5393,-2.5393,-2.5385,-2.5387,-2.5388,-2.5389,-2.5351,-2.5302,-2.5262,-2.5271,-2.5231,-2.4462,-2.3054,-2.2785,-2.1856,-2.0287,-2.0155,-1.9802,-1.9097,-1.8298,-1.7528,-1.6772,-1.5762,-1.517,-1.5085,-1.4925,-1.4803,-1.4765,-1.4167,-1.3811,-1.3802,-1.323,-1.289,-1.2997,-1.3532,-1.4273,-1.5119,-1.5203,-1.5578,-1.6385,-1.5967,-1.5865,-1.6555,-1.6922,-1.7301,-1.7963,-1.884,-1.9368,-1.9413,-1.9985,-2.0349,-2.0399,-2.0434,-2.0468,-2.0502,-2.0515,-2.0508,-2.0499,-2.051,-2.0516,-2.0503,-2.0509,-2.0511,-2.0506,-2.0503,-2.0503,-2.0503,-2.0503,-2.0506,-2.0509,-2.0533,-2.0538,-2.0521,-2.0552,-2.0599,-2.0605,-2.0545,-2.049,-2.0464,-2.0324,-2.006,-1.97,-1.9002,-1.7892,-1.645,-1.4323,-1.1285,-0.6481,-0.0694,0.4984,-3.104,-3.0363,-3.0331,-3.0312,-3.0292,-3.0311,-3.0316,-3.0309,-3.0394,-3.0359,-3.0254,-3.0288,-2.9825,-2.9224,-2.9079,-2.818,-2.6845,-2.6627,-2.6174,-2.5479,-2.5404,-2.5415,-2.5415,-2.5395,-2.5395,-2.5395,-2.5395,-2.5387,-2.5387,-2.5388,-2.5351,-2.5321,-2.5233,-2.5201,-2.5198,-2.5214,-2.474,-2.379,-2.3004,-2.1825,-2.0326,-2.0192,-2.0098,-1.9897,-1.9097,-1.8621,-1.8333,-1.6924,-1.6055,-1.5931,-1.5235,-1.4813,-1.4812,-1.4719,-1.4682,-1.4663,-1.4579,-1.4588,-1.4651,-1.4715,-1.5148,-1.5959,-1.6072,-1.6438,-1.728,-1.7308,-1.7341,-1.7681,-1.8252,-1.8613,-1.8888,-1.9656,-2.0082,-2.0069,-2.027,-2.0377,-2.0394,-2.039,-2.042,-2.0507,-2.0502,-2.0515,-2.0508,-2.0581,-2.0588,-2.0792,-2.0834,-2.0815,-2.0815,-2.0792,-2.0776,-2.0639,-2.0564,-2.0547,-2.0536,-2.0543,-2.0586,-2.0572,-2.0581,-2.0605,-2.0585,-2.0536,-2.047,-2.0433,-2.0257,-1.9991,-1.9532,-1.8845,-1.7704,-1.5936,-1.3408,-0.9848,-0.3273,0.1764,0.5588,-3.182,-3.1078,-3.0986,-3.0661,-3.0253,-3.0228,-3.0273,-3.0299,-3.0328,-3.0352,-3.0394,-3.0409,-3.0267,-2.997,-2.9497,-2.8811,-2.8135,-2.7161,-2.6524,-2.6137,-2.5646,-2.5387,-2.5387,-2.5387,-2.5387,-2.5388,-2.5351,-2.5332,-2.5341,-2.5293,-2.5273,-2.5222,-2.5209,-2.5195,-2.5203,-2.5175,-2.4719,-2.3838,-2.3039,-2.204,-2.0937,-2.0356,-2.0069,-1.9924,-1.922,-1.8764,-1.86,-1.7539,-1.6904,-1.6828,-1.6092,-1.5621,-1.5631,-1.5142,-1.4859,-1.4841,-1.4859,-1.5085,-1.5649,-1.5658,-1.6035,-1.6924,-1.6971,-1.734,-1.8164,-1.8279,-1.8495,-1.9049,-1.9019,-1.9112,-1.9696,-2.0099,-2.0294,-2.0301,-2.0341,-2.0396,-2.0394,-2.039,-2.042,-2.0507,-2.0502,-2.0511,-2.0585,-2.0951,-2.1448,-2.188,-2.2017,-2.1961,-2.202,-2.2036,-2.2042,-2.2051,-2.2035,-2.155,-2.0894,-2.059,-2.0614,-2.0618,-2.0603,-2.0605,-2.0601,-2.0547,-2.0474,-2.0425,-2.0203,-1.9888,-1.9481,-1.8606,-1.7497,-1.5323,-1.1091,-0.6722,-0.143,0.2571,0.6076,-3.267,-3.1928,-3.1589,-3.0963,-3.0213,-3.0207,-3.0221,-3.0279,-3.0299,-3.0323,-3.0374,-3.0371,-3.0414,-3.034,-2.9813,-2.9438,-2.9052,-2.7933,-2.7113,-2.668,-2.6015,-2.5601,-2.537,-2.5351,-2.5361,-2.5341,-2.5303,-2.5283,-2.5282,-2.522,-2.5209,-2.5198,-2.5191,-2.5156,-2.5156,-2.5114,-2.4765,-2.4119,-2.3327,-2.249,-2.1635,-2.0779,-2.0218,-1.9979,-1.9428,-1.9095,-1.9046,-1.8211,-1.7756,-1.7718,-1.6971,-1.6527,-1.6517,-1.5932,-1.5592,-1.5583,-1.5573,-1.5866,-1.6489,-1.6545,-1.6914,-1.771,-1.7823,-1.8194,-1.8926,-1.9135,-1.944,-1.998,-1.9632,-1.9611,-2.0131,-2.0292,-2.0294,-2.0301,-2.0341,-2.039,-2.0394,-2.0385,-2.0434,-2.0488,-2.0517,-2.0608,-2.0932,-2.1613,-2.2383,-2.2854,-2.303,-2.3111,-2.3111,-2.3033,-2.3036,-2.311,-2.3074,-2.2608,-2.1505,-2.1141,-2.1008,-2.0875,-2.0878,-2.0585,-2.058,-2.0538,-2.0453,-2.0349,-2.0142,-1.9766,-1.9277,-1.8414,-1.6607,-1.3765,-0.9671,-0.475,-0.0678,0.3375,0.6968,-3.3532,-3.2675,-3.1838,-3.1006,-3.0223,-3.0213,-3.0207,-3.0221,-3.0279,-3.0312,-3.0312,-3.0305,-3.0305,-3.0337,-3.0329,-2.9997,-2.9283,-2.904,-2.8104,-2.6774,-2.6542,-2.606,-2.5241,-2.5222,-2.5222,-2.5233,-2.5222,-2.5192,-2.5212,-2.5195,-2.521,-2.521,-2.5132,-2.5114,-2.5082,-2.5038,-2.4974,-2.4752,-2.3999,-2.3247,-2.2438,-2.1585,-2.0725,-2.0139,-1.9941,-1.9893,-1.9804,-1.9092,-1.8657,-1.8636,-1.7812,-1.7349,-1.7339,-1.7272,-1.7178,-1.7207,-1.7216,-1.7264,-1.734,-1.7397,-1.7804,-1.8505,-1.8657,-1.9009,-1.9716,-1.9811,-1.9926,-2.0192,-2.0103,-2.0129,-2.0246,-2.0292,-2.0294,-2.0301,-2.0366,-2.0379,-2.0388,-2.0394,-2.0424,-2.0561,-2.0687,-2.1109,-2.171,-2.2505,-2.3038,-2.324,-2.3205,-2.3263,-2.3361,-2.3263,-2.3313,-2.3322,-2.3288,-2.3098,-2.2933,-2.2276,-2.1888,-2.1715,-2.1289,-2.068,-2.057,-2.0483,-2.0424,-2.0289,-2.0073,-1.9681,-1.9096,-1.7495,-1.5148,-1.2157,-0.8397,-0.3971,-0.0085,0.4809,0.8254,-3.4347,-3.344,-3.2091,-3.1312,-3.0987,-3.0447,-3.0218,-3.0213,-3.0221,-3.0234,-3.0253,-3.0279,-3.0312,-3.0312,-3.0343,-3.0213,-2.9874,-2.9344,-2.8449,-2.7374,-2.6825,-2.6066,-2.5269,-2.5212,-2.5212,-2.5212,-2.522,-2.5168,-2.5141,-2.5144,-2.512,-2.512,-2.507,-2.5038,-2.5025,-2.4985,-2.4926,-2.4818,-2.4052,-2.3491,-2.3094,-2.189,-2.105,-2.0778,-2.0259,-1.9985,-1.9993,-1.969,-1.9547,-1.9528,-1.8684,-1.823,-1.8182,-1.7728,-1.7463,-1.7463,-1.7463,-1.77,-1.8135,-1.8259,-1.8638,-1.9425,-1.9539,-1.9617,-1.9934,-2.0001,-2.006,-2.0164,-2.0199,-2.0225,-2.0238,-2.0265,-2.0294,-2.0301,-2.034,-2.0392,-2.0396,-2.0388,-2.0612,-2.1191,-2.1716,-2.2435,-2.3106,-2.3674,-2.4077,-2.4577,-2.4678,-2.4662,-2.4725,-2.4744,-2.4674,-2.4742,-2.4768,-2.4776,-2.4783,-2.3506,-2.2633,-2.2421,-2.2051,-2.1595,-2.1345,-2.0744,-2.0565,-2.0411,-2.0153,-1.9482,-1.879,-1.6617,-1.4154,-1.1001,-0.7155,-0.3392,0.0467,0.4883,0.8119,-3.4791,-3.3888,-3.2783,-3.2,-3.1446,-3.0854,-3.0433,-3.0242,-3.0213,-3.0213,-3.0226,-3.0253,-3.0272,-3.0253,-3.0286,-3.0266,-3.0228,-2.9653,-2.8976,-2.8152,-2.729,-2.6416,-2.5658,-2.5294,-2.5179,-2.5176,-2.5172,-2.5137,-2.5107,-2.5082,-2.507,-2.5057,-2.498,-2.4966,-2.4966,-2.4898,-2.4837,-2.4672,-2.4242,-2.3884,-2.3501,-2.2287,-2.145,-2.1121,-2.0414,-1.9982,-1.9982,-1.9993,-1.9993,-1.9918,-1.9433,-1.9111,-1.9054,-1.86,-1.8297,-1.8297,-1.8326,-1.8524,-1.9016,-1.9122,-1.9357,-1.9918,-1.9993,-1.9996,-1.9981,-1.9982,-2.005,-2.0136,-2.019,-2.0197,-2.0222,-2.025,-2.0287,-2.0294,-2.034,-2.0386,-2.041,-2.0679,-2.1219,-2.2031,-2.2862,-2.3616,-2.4209,-2.4521,-2.4939,-2.5561,-2.5604,-2.5628,-2.5652,-2.5679,-2.5703,-2.5691,-2.5587,-2.5537,-2.5447,-2.456,-2.3746,-2.3476,-2.2812,-2.2393,-2.1998,-2.1313,-2.0787,-2.0588,-2.0048,-1.9318,-1.7818,-1.5702,-1.3014,-1.0055,-0.6547,-0.2822,0.0963,0.4633,0.7937,-3.481,-3.4098,-3.3968,-3.2955,-3.1694,-3.1389,-3.0911,-3.028,-3.0204,-3.0218,-3.0218,-3.0218,-3.0218,-3.0218,-3.0218,-3.0218,-3.0213,-3.0138,-2.9679,-2.8823,-2.8077,-2.7198,-2.6282,-2.555,-2.5175,-2.5107,-2.5101,-2.5082,-2.5082,-2.5044,-2.5012,-2.4999,-2.4945,-2.4917,-2.4898,-2.4842,-2.4794,-2.4775,-2.4685,-2.4379,-2.362,-2.2827,-2.2086,-2.1374,-2.0505,-2.0055,-2.0058,-2.0031,-1.9993,-1.9993,-1.9955,-1.9974,-1.988,-1.9804,-1.9899,-1.9774,-1.9869,-1.9918,-1.9918,-1.9918,-1.9861,-1.9993,-1.9993,-1.9985,-1.9979,-1.9991,-2.0011,-2.0098,-2.0164,-2.0197,-2.0205,-2.0246,-2.0292,-2.0294,-2.0295,-2.0341,-2.0617,-2.1241,-2.2039,-2.2935,-2.3756,-2.4247,-2.4491,-2.4982,-2.5473,-2.5566,-2.5615,-2.5604,-2.5628,-2.5652,-2.5683,-2.5691,-2.5701,-2.5693,-2.5703,-2.5615,-2.5074,-2.4531,-2.3709,-2.3072,-2.2848,-2.2313,-2.1707,-2.1361,-2.0207,-1.9355,-1.7288,-1.5099,-1.2467,-0.943,-0.5817,-0.2233,0.155,0.5178,0.8287,-3.5117,-3.477,-3.4216,-3.3356,-3.2306,-3.1713,-3.0987,-3.0242,-3.0204,-3.0204,-3.0204,-3.0204,-3.0204,-3.0204,-3.0204,-3.0204,-3.0204,-3.0166,-2.9713,-2.9006,-2.8643,-2.7719,-2.6517,-2.6041,-2.5647,-2.5165,-2.5057,-2.5025,-2.5044,-2.4999,-2.4991,-2.4945,-2.4912,-2.4889,-2.4827,-2.4817,-2.4787,-2.4738,-2.4738,-2.4588,-2.4302,-2.3583,-2.3027,-2.2746,-2.1525,-2.0812,-2.0808,-2.0297,-2.0012,-1.9993,-1.9993,-1.9993,-1.9993,-1.9993,-1.9993,-1.9993,-1.9993,-1.9993,-1.9993,-1.9993,-1.9993,-1.9993,-1.9993,-1.9985,-1.9998,-1.9981,-2.003,-2.0088,-2.0174,-2.0209,-2.0197,-2.0203,-2.0281,-2.0294,-2.0295,-2.0643,-2.1404,-2.2572,-2.3488,-2.39,-2.4669,-2.5135,-2.5199,-2.5549,-2.5574,-2.5604,-2.5595,-2.56,-2.56,-2.5609,-2.5652,-2.5683,-2.5678,-2.569,-2.5698,-2.5691,-2.5446,-2.5078,-2.447,-2.3985,-2.3719,-2.3208,-2.2629,-2.1701,-2.056,-1.9001,-1.6897,-1.4544,-1.2029,-0.8844,-0.5308,-0.1585,0.2238,0.5612,0.8793,-3.5273,-3.5152,-3.4655,-3.3968,-3.3127,-3.2306,-3.1465,-3.0663,-3.0319,-3.0204,-3.0204,-3.0204,-3.0204,-3.0204,-3.0204,-3.0204,-3.0185,-3.0123,-2.9808,-2.9332,-2.8955,-2.8084,-2.6749,-2.6032,-2.5614,-2.5164,-2.5018,-2.4999,-2.4999,-2.4977,-2.4931,-2.4917,-2.4875,-2.4846,-2.4802,-2.4772,-2.4742,-2.4707,-2.4707,-2.4673,-2.4538,-2.3915,-2.3531,-2.3385,-2.2312,-2.1544,-2.1202,-2.0702,-2.0316,-2.0069,-1.9993,-1.9993,-1.9993,-1.9993,-1.9993,-1.9993,-1.9993,-1.9993,-1.9993,-1.9993,-1.9993,-1.9993,-1.9993,-1.9993,-1.9977,-1.999,-2.001,-2.0069,-2.0127,-2.0173,-2.0227,-2.054,-2.0677,-2.0781,-2.0822,-2.1352,-2.2462,-2.3599,-2.4394,-2.4748,-2.5265,-2.5543,-2.5601,-2.5601,-2.5601,-2.5613,-2.5599,-2.5604,-2.5605,-2.56,-2.5628,-2.566,-2.5678,-2.5687,-2.569,-2.5689,-2.5701,-2.5488,-2.5191,-2.4937,-2.4725,-2.395,-2.3272,-2.201,-2.0831,-1.9464,-1.7476,-1.4828,-1.2189,-0.8545,-0.508,-0.1045,0.2707,0.625,0.9382,-3.5261,-3.5209,-3.519,-3.4674,-3.3853,-3.2993,-3.21,-3.1312,-3.0548,-3.0204,-3.0204,-3.0204,-3.0204,-3.0204,-3.0204,-3.0204,-3.0204,-3.0142,-3.0079,-2.9817,-2.9292,-2.8388,-2.7329,-2.5991,-2.5275,-2.5048,-2.4991,-2.4996,-2.4977,-2.4912,-2.4903,-2.487,-2.4832,-2.4806,-2.4772,-2.4723,-2.4707,-2.4707,-2.4673,-2.4673,-2.467,-2.4031,-2.3633,-2.3625,-2.2876,-2.218,-2.167,-2.127,-2.077,-2.0126,-1.9993,-1.9993,-1.9993,-1.9993,-1.9993,-1.9993,-1.9993,-1.9993,-1.9993,-1.9993,-1.9993,-1.9993,-1.9993,-1.9993,-1.9993,-1.9988,-2.0,-2.003,-2.0165,-2.0288,-2.0487,-2.1069,-2.1545,-2.1729,-2.1895,-2.2588,-2.3862,-2.429,-2.4755,-2.5318,-2.5589,-2.5601,-2.5601,-2.5601,-2.5601,-2.5601,-2.5613,-2.5599,-2.5609,-2.5605,-2.56,-2.5617,-2.5655,-2.5684,-2.569,-2.5689,-2.5701,-2.5644,-2.5463,-2.54,-2.5279,-2.4555,-2.3678,-2.2412,-2.1166,-1.9774,-1.7744,-1.5021,-1.2304,-0.9243,-0.5307,-0.0849,0.3227,0.6928,1.005,-3.5261,-3.519,-3.519,-3.4751,-3.3929,-3.3089,-3.2214,-3.135,-3.0548,-3.0204,-3.0204,-3.0204,-3.0204,-3.0204,-3.0204,-3.0204,-3.019,-3.0147,-3.0083,-3.0049,-2.9817,-2.8795,-2.7561,-2.6408,-2.5541,-2.5086,-2.4996,-2.4964,-2.4931,-2.4917,-2.4875,-2.4817,-2.4787,-2.4772,-2.4723,-2.4707,-2.4689,-2.4673,-2.4673,-2.4673,-2.467,-2.4501,-2.4422,-2.4377,-2.3658,-2.3172,-2.288,-2.1839,-2.0816,-2.0088,-1.9993,-1.9993,-1.9993,-1.9993,-1.9993,-1.9993,-1.9993,-1.9993,-1.9993,-1.9993,-1.9993,-1.9993,-1.9993,-1.9993,-1.9993,-1.9996,-1.999,-2.0115,-2.0536,-2.0986,-2.1187,-2.1866,-2.2612,-2.3328,-2.34,-2.3651,-2.4176,-2.4798,-2.5304,-2.5499,-2.5557,-2.5583,-2.5609,-2.5589,-2.5601,-2.5601,-2.5601,-2.5607,-2.5599,-2.5604,-2.5605,-2.5628,-2.5644,-2.5678,-2.5693,-2.5693,-2.5701,-2.5703,-2.5618,-2.5567,-2.5393,-2.4982,-2.3985,-2.2875,-2.1774,-2.0458,-1.7823,-1.5077,-1.2363,-0.9787,-0.4942,-0.0228,0.4145,0.8063,1.0962,-3.5245,-3.519,-3.519,-3.4942,-3.4369,-3.3203,-3.242,-3.179,-3.0701,-3.0204,-3.0204,-3.0204,-3.0204,-3.0204,-3.0204,-3.0204,-3.0171,-3.0132,-3.0102,-3.0068,-2.9937,-2.8976,-2.7612,-2.6607,-2.5773,-2.5072,-2.4977,-2.495,-2.4884,-2.4875,-2.485,-2.4806,-2.4757,-2.4742,-2.4707,-2.4673,-2.4673,-2.4673,-2.4673,-2.4673,-2.4673,-2.4673,-2.4707,-2.4682,-2.4245,-2.3988,-2.358,-2.2413,-2.1202,-2.0285,-1.9993,-1.9993,-1.9993,-1.9993,-1.9993,-1.9993,-1.9993,-1.9993,-1.9993,-1.9993,-1.9993,-1.9993,-1.9993,-1.9993,-1.9993,-2.0004,-2.0064,-2.06,-2.1039,-2.1452,-2.198,-2.2719,-2.3602,-2.437,-2.4675,-2.4717,-2.4703,-2.5182,-2.5456,-2.5517,-2.5538,-2.557,-2.557,-2.5557,-2.5564,-2.5544,-2.5583,-2.5595,-2.5601,-2.5613,-2.5609,-2.5615,-2.5656,-2.5691,-2.569,-2.5689,-2.5702,-2.5703,-2.5661,-2.5621,-2.5402,-2.5138,-2.4393,-2.3362,-2.2313,-2.0787,-1.8186,-1.5538,-1.2858,-0.942,-0.4424,0.0478,0.4965,0.8769,1.1679,-3.5193,-3.5193,-3.5193,-3.5174,-3.4887,-3.3417,-3.2638,-3.2367,-3.0897,-3.019,-3.019,-3.0171,-3.0171,-3.0185,-3.0171,-3.0185,-3.0171,-3.0117,-3.0087,-3.0038,-2.9861,-2.9112,-2.7809,-2.691,-2.5944,-2.5129,-2.4931,-2.4884,-2.487,-2.4817,-2.4806,-2.4757,-2.4723,-2.4707,-2.4673,-2.4673,-2.4673,-2.4673,-2.4692,-2.4692,-2.4692,-2.4692,-2.4692,-2.4707,-2.4716,-2.4275,-2.369,-2.2848,-2.189,-2.0342,-2.0172,-2.0145,-2.0088,-1.9993,-1.9993,-1.9993,-1.9993,-1.9993,-1.9993,-1.9993,-1.9993,-1.9993,-1.9993,-2.0069,-2.0164,-2.0259,-2.0584,-2.1347,-2.1502,-2.2174,-2.2915,-2.3696,-2.435,-2.4985,-2.5265,-2.5369,-2.5404,-2.5448,-2.5472,-2.5488,-2.5498,-2.5511,-2.5511,-2.5511,-2.5518,-2.5531,-2.5551,-2.5557,-2.5589,-2.5601,-2.5604,-2.561,-2.5648,-2.5687,-2.5687,-2.5705,-2.5701,-2.5702,-2.5639,-2.5565,-2.534,-2.5023,-2.4591,-2.3787,-2.2576,-2.1026,-1.9061,-1.6346,-1.3324,-0.9649,-0.5104,0.0537,0.5922,0.9213,1.2223,-3.5127,-3.5127,-3.5127,-3.5127,-3.4861,-3.3375,-3.2632,-3.248,-3.086,-3.0189,-3.0132,-3.0128,-3.0109,-3.0123,-3.0123,-3.0142,-3.0128,-3.0068,-3.0007,-2.994,-2.9924,-2.9396,-2.8392,-2.7536,-2.6413,-2.5375,-2.495,-2.487,-2.4827,-2.4802,-2.4772,-2.4742,-2.4707,-2.4673,-2.4673,-2.4673,-2.4673,-2.4692,-2.4695,-2.4679,-2.4698,-2.4679,-2.4679,-2.4714,-2.476,-2.4373,-2.3729,-2.3412,-2.2854,-2.201,-2.1297,-2.0816,-2.024,-2.0069,-2.005,-1.9993,-1.9993,-1.9993,-1.9993,-1.9993,-2.0012,-2.0088,-2.0126,-2.0278,-2.0903,-2.0941,-2.135,-2.2133,-2.284,-2.3446,-2.4289,-2.4736,-2.499,-2.5184,-2.5273,-2.5322,-2.5332,-2.5387,-2.5401,-2.5418,-2.5461,-2.5503,-2.5503,-2.5505,-2.5505,-2.5511,-2.5518,-2.5544,-2.5577,-2.5602,-2.5613,-2.56,-2.5619,-2.566,-2.569,-2.5689,-2.5703,-2.5677,-2.5644,-2.5538,-2.5311,-2.4984,-2.4569,-2.3765,-2.2746,-2.1085,-1.926,-1.6266,-1.3086,-0.942,-0.5344,0.0963,0.6376,0.9668,1.2727,-3.5092,-3.5092,-3.5092,-3.5092,-3.4883,-3.3722,-3.2961,-3.2409,-3.1248,-3.043,-3.0141,-3.0098,-3.0079,-3.0079,-3.0079,-3.0079,-3.0083,-3.0038,-2.9956,-2.9924,-2.9869,-2.9453,-2.8676,-2.7858,-2.6792,-2.5622,-2.5055,-2.4861,-2.4813,-2.4768,-2.4723,-2.4707,-2.4673,-2.4673,-2.4673,-2.4673,-2.4692,-2.4695,-2.4698,-2.4682,-2.4666,-2.4631,-2.4666,-2.4698,-2.4726,-2.4494,-2.417,-2.4143,-2.3733,-2.31,-2.2527,-2.1758,-2.0778,-2.0562,-2.041,-2.005,-1.9993,-1.9993,-1.9993,-2.0012,-2.0164,-2.0543,-2.0562,-2.1055,-2.1566,-2.1794,-2.2211,-2.2899,-2.3531,-2.4157,-2.5022,-2.5172,-2.5206,-2.5209,-2.5231,-2.5262,-2.5264,-2.5322,-2.5395,-2.5404,-2.5429,-2.5456,-2.5464,-2.5449,-2.5449,-2.5449,-2.549,-2.5517,-2.555,-2.5564,-2.5601,-2.5604,-2.5605,-2.5632,-2.5687,-2.5694,-2.5703,-2.5668,-2.5636,-2.5506,-2.5321,-2.4948,-2.4572,-2.3669,-2.2757,-2.1088,-1.9081,-1.5972,-1.2711,-0.8883,-0.4209,0.1937,0.6829,1.0011,1.3066,-3.5057,-3.5057,-3.5057,-3.5076,-3.4924,-3.4106,-3.327,-3.2488,-3.1654,-3.0741,-3.0167,-3.0087,-3.0087,-3.0087,-3.0068,-3.0087,-3.0053,-3.0003,-2.994,-2.9924,-2.9907,-2.9547,-2.8881,-2.7991,-2.7157,-2.6328,-2.5309,-2.485,-2.4798,-2.4753,-2.4707,-2.4673,-2.4673,-2.4673,-2.4673,-2.4673,-2.4692,-2.4698,-2.4682,-2.4631,-2.4599,-2.458,-2.4615,-2.4666,-2.4679,-2.4707,-2.4629,-2.464,-2.4411,-2.3832,-2.379,-2.2967,-2.2004,-2.1384,-2.1168,-2.0456,-2.0581,-2.0657,-2.0695,-2.06,-2.0808,-2.1377,-2.1396,-2.1813,-2.2438,-2.2722,-2.3101,-2.3607,-2.4145,-2.4372,-2.4993,-2.5125,-2.516,-2.5195,-2.5198,-2.5201,-2.5222,-2.5322,-2.5341,-2.5369,-2.5395,-2.5432,-2.5412,-2.5401,-2.5401,-2.5401,-2.5453,-2.5495,-2.5522,-2.555,-2.5564,-2.5599,-2.56,-2.564,-2.5693,-2.5696,-2.5702,-2.5683,-2.5652,-2.5506,-2.5321,-2.501,-2.4554,-2.3745,-2.2621,-2.1009,-1.8917,-1.6038,-1.2524,-0.8538,-0.3819,0.1638,0.6113,1.0228,1.3299,-3.4849,-3.4849,-3.4849,-3.4868,-3.4794,-3.3999,-3.3165,-3.2386,-3.1571,-3.0736,-3.0016,-3.0007,-3.0022,-3.0022,-3.0022,-3.0007,-2.9956,-2.994,-2.9924,-2.9907,-2.9907,-2.9699,-2.9396,-2.8142,-2.7388,-2.6813,-2.5672,-2.4832,-2.4798,-2.4753,-2.4707,-2.4673,-2.4673,-2.4673,-2.4673,-2.4692,-2.4676,-2.4682,-2.465,-2.4599,-2.4547,-2.4547,-2.4564,-2.4615,-2.4631,-2.4647,-2.4698,-2.4732,-2.4689,-2.4618,-2.4599,-2.4063,-2.3256,-2.2584,-2.2193,-2.1895,-2.1801,-2.1744,-2.1775,-2.1945,-2.2097,-2.2267,-2.2267,-2.2665,-2.3253,-2.3518,-2.3878,-2.4384,-2.4701,-2.4841,-2.4987,-2.5082,-2.5101,-2.5125,-2.516,-2.5195,-2.5198,-2.5212,-2.5253,-2.5313,-2.5351,-2.5378,-2.5378,-2.5378,-2.5395,-2.5385,-2.541,-2.5445,-2.548,-2.551,-2.5531,-2.5562,-2.5609,-2.5644,-2.5701,-2.5699,-2.5702,-2.5683,-2.5636,-2.5505,-2.532,-2.5065,-2.4516,-2.3802,-2.2687,-2.1151,-1.8758,-1.6092,-1.2625,-0.8806,-0.3959,0.1013,0.5474,0.9807,1.3104,-3.4768,-3.4788,-3.4788,-3.4827,-3.4696,-3.3922,-3.3091,-3.2297,-3.1484,-3.0652,-3.0063,-2.9924,-2.994,-2.9959,-2.994,-2.9921,-2.9905,-2.9907,-2.9907,-2.9907,-2.9907,-2.9907,-2.9702,-2.8206,-2.7566,-2.6896,-2.568,-2.4802,-2.4802,-2.4738,-2.4707,-2.4673,-2.4673,-2.4673,-2.4673,-2.4692,-2.466,-2.4647,-2.4615,-2.4582,-2.4497,-2.4513,-2.453,-2.4547,-2.4599,-2.4615,-2.465,-2.465,-2.4647,-2.466,-2.4711,-2.4535,-2.4166,-2.378,-2.3237,-2.2659,-2.2496,-2.2489,-2.2451,-2.2483,-2.2628,-2.3063,-2.3101,-2.3518,-2.4106,-2.4428,-2.4555,-2.4839,-2.4991,-2.4999,-2.4993,-2.5044,-2.507,-2.5095,-2.512,-2.5144,-2.516,-2.5164,-2.5209,-2.5252,-2.5293,-2.5341,-2.5351,-2.5361,-2.5388,-2.5387,-2.5385,-2.5421,-2.5437,-2.5476,-2.5518,-2.5562,-2.5595,-2.5664,-2.5701,-2.5699,-2.5703,-2.5687,-2.5625,-2.5523,-2.5335,-2.5091,-2.4614,-2.4008,-2.2676,-2.1375,-1.9105,-1.6532,-1.2865,-0.9069,-0.4389,0.037,0.5108,0.9276,1.2623,-3.4666,-3.4708,-3.4727,-3.4747,-3.4636,-3.3843,-3.3033,-3.226,-3.1449,-3.0599,-2.9883,-2.9859,-2.9893,-2.9876,-2.9893,-2.9891,-2.9872,-2.9891,-2.9874,-2.9874,-2.9874,-2.9893,-2.9423,-2.8348,-2.733,-2.7072,-2.5627,-2.4825,-2.4806,-2.4723,-2.4707,-2.4673,-2.4673,-2.4673,-2.4673,-2.4673,-2.466,-2.4613,-2.4599,-2.4566,-2.4515,-2.4515,-2.4513,-2.4513,-2.4566,-2.4582,-2.4582,-2.4564,-2.4599,-2.4615,-2.4666,-2.4679,-2.4692,-2.4742,-2.4151,-2.3069,-2.286,-2.2873,-2.2943,-2.3012,-2.3436,-2.3884,-2.3941,-2.4352,-2.4674,-2.4858,-2.4953,-2.4991,-2.4991,-2.4991,-2.4999,-2.4999,-2.5044,-2.5057,-2.507,-2.5082,-2.512,-2.5125,-2.516,-2.5195,-2.5239,-2.5282,-2.5302,-2.5322,-2.5341,-2.537,-2.5369,-2.5395,-2.5421,-2.548,-2.5524,-2.5556,-2.5605,-2.5668,-2.5698,-2.5697,-2.5703,-2.5696,-2.5639,-2.5546,-2.5348,-2.5135,-2.4634,-2.4154,-2.3137,-2.1686,-1.9366,-1.6837,-1.3309,-0.9366,-0.4912,-0.0316,0.432,0.8598,1.2195,-3.445,-3.4431,-3.4431,-3.4517,-3.4492,-3.3721,-3.2954,-3.2223,-3.1374,-3.0618,-2.979,-2.9809,-2.9809,-2.9808,-2.9806,-2.9806,-2.9806,-2.9806,-2.9823,-2.9823,-2.9823,-2.9825,-2.9561,-2.8088,-2.7415,-2.6987,-2.5596,-2.4919,-2.4791,-2.4723,-2.4689,-2.4673,-2.4673,-2.4673,-2.4673,-2.4692,-2.466,-2.4615,-2.4599,-2.4566,-2.4517,-2.45,-2.4517,-2.4517,-2.4517,-2.4534,-2.453,-2.4512,-2.4547,-2.4599,-2.4599,-2.4615,-2.4615,-2.4663,-2.4679,-2.4485,-2.4471,-2.4507,-2.4374,-2.4275,-2.4289,-2.4525,-2.4633,-2.485,-2.4926,-2.4964,-2.4964,-2.4991,-2.4977,-2.4977,-2.4977,-2.4991,-2.5023,-2.5018,-2.5012,-2.5044,-2.5082,-2.5076,-2.5101,-2.5137,-2.5184,-2.5239,-2.5271,-2.5292,-2.5312,-2.5332,-2.5361,-2.5388,-2.5412,-2.5472,-2.5543,-2.5576,-2.56,-2.5664,-2.5693,-2.5694,-2.5703,-2.5699,-2.5632,-2.5566,-2.5406,-2.5187,-2.4815,-2.4204,-2.3279,-2.2027,-1.9936,-1.7131,-1.3762,-0.9915,-0.5682,-0.1153,0.3506,0.7603,1.177,-3.4269,-3.4386,-3.4386,-3.4427,-3.4326,-3.3165,-3.2435,-3.1914,-3.0753,-2.9983,-2.9701,-2.9719,-2.9775,-2.979,-2.9789,-2.9789,-2.9789,-2.9771,-2.9789,-2.9771,-2.9771,-2.9771,-2.9358,-2.8152,-2.7307,-2.6841,-2.5716,-2.4798,-2.4742,-2.4707,-2.4673,-2.4673,-2.4673,-2.4673,-2.4692,-2.4695,-2.4663,-2.4599,-2.4566,-2.4534,-2.45,-2.45,-2.45,-2.45,-2.45,-2.4517,-2.4498,-2.4515,-2.4515,-2.4549,-2.453,-2.4547,-2.4582,-2.4599,-2.4631,-2.4631,-2.4676,-2.47,-2.4746,-2.4798,-2.4827,-2.4842,-2.4856,-2.4818,-2.487,-2.4889,-2.4889,-2.4889,-2.4889,-2.4889,-2.4889,-2.4889,-2.4898,-2.4926,-2.494,-2.498,-2.5012,-2.5038,-2.5051,-2.5088,-2.5125,-2.5184,-2.5239,-2.5271,-2.5292,-2.5312,-2.5351,-2.5388,-2.5412,-2.5468,-2.5531,-2.5601,-2.562,-2.5636,-2.5687,-2.5689,-2.5702,-2.5681,-2.5637,-2.5556,-2.5479,-2.5236,-2.4879,-2.4356,-2.3524,-2.2082,-2.0337,-1.7707,-1.4615,-1.0707,-0.6635,-0.2082,0.2536,0.7341,1.1582,-3.4124,-3.4293,-3.4316,-3.4223,-3.3911,-3.2571,-3.1862,-3.1507,-3.0165,-2.9531,-2.9531,-2.9626,-2.9701,-2.9719,-2.97,-2.97,-2.9737,-2.9737,-2.9737,-2.9718,-2.9718,-2.9682,-2.9156,-2.8104,-2.7204,-2.715,-2.5499,-2.4786,-2.4707,-2.4673,-2.4673,-2.4673,-2.4673,-2.4692,-2.4676,-2.4679,-2.4666,-2.4564,-2.4515,-2.4517,-2.45,-2.45,-2.45,-2.45,-2.45,-2.45,-2.45,-2.45,-2.45,-2.4517,-2.4515,-2.4532,-2.4532,-2.4566,-2.4564,-2.4599,-2.4647,-2.4698,-2.4742,-2.4753,-2.4783,-2.4798,-2.4813,-2.4808,-2.4813,-2.4813,-2.4813,-2.4827,-2.4827,-2.4813,-2.4813,-2.4813,-2.4823,-2.487,-2.4884,-2.4926,-2.4972,-2.4985,-2.5012,-2.5051,-2.5088,-2.5125,-2.5184,-2.5258,-2.5271,-2.5292,-2.5332,-2.5379,-2.5432,-2.548,-2.5524,-2.557,-2.5604,-2.5619,-2.5675,-2.5701,-2.5698,-2.5683,-2.5644,-2.5578,-2.5517,-2.5318,-2.5008,-2.4379,-2.3744,-2.2573,-2.1095,-1.8368,-1.5489,-1.1705,-0.7729,-0.3131,0.1516,0.6633,1.1659,-3.4023,-3.4023,-3.4062,-3.3709,-3.3069,-3.2259,-3.1483,-3.087,-2.9919,-2.949,-2.9492,-2.9512,-2.9512,-2.9531,-2.9551,-2.9569,-2.955,-2.9512,-2.9551,-2.9551,-2.9531,-2.9551,-2.9008,-2.811,-2.7081,-2.6873,-2.5487,-2.4751,-2.4692,-2.4657,-2.4673,-2.4673,-2.4692,-2.4695,-2.4679,-2.4666,-2.4634,-2.453,-2.4498,-2.45,-2.45,-2.45,-2.45,-2.45,-2.45,-2.45,-2.45,-2.45,-2.4482,-2.4482,-2.4482,-2.4464,-2.4464,-2.4497,-2.4513,-2.4513,-2.4564,-2.4631,-2.4679,-2.4711,-2.4757,-2.4787,-2.4802,-2.4798,-2.4798,-2.4794,-2.4794,-2.4798,-2.4783,-2.4798,-2.4798,-2.4813,-2.4779,-2.4827,-2.4861,-2.4875,-2.4917,-2.4931,-2.4959,-2.5012,-2.5051,-2.5101,-2.5118,-2.5206,-2.525,-2.5282,-2.5332,-2.537,-2.5425,-2.5464,-2.5503,-2.5544,-2.5562,-2.562,-2.5675,-2.5687,-2.5691,-2.5703,-2.5676,-2.5626,-2.5591,-2.5345,-2.5116,-2.4634,-2.3971,-2.2939,-2.1675,-1.9182,-1.6321,-1.2878,-0.8764,-0.3782,0.2208,0.8167,1.275,-3.3151,-3.3114,-3.2674,-3.2656,-3.2778,-3.1506,-3.0828,-3.046,-2.9678,-2.9349,-2.9373,-2.9375,-2.9414,-2.9472,-2.9511,-2.9511,-2.9511,-2.9511,-2.9511,-2.9511,-2.9511,-2.9511,-2.8932,-2.8073,-2.7082,-2.6746,-2.551,-2.4631,-2.4629,-2.4645,-2.4629,-2.4647,-2.4663,-2.4663,-2.4631,-2.4599,-2.4566,-2.4534,-2.4517,-2.45,-2.45,-2.45,-2.45,-2.45,-2.45,-2.4482,-2.4447,-2.4447,-2.4411,-2.4375,-2.4375,-2.4375,-2.4393,-2.441,-2.4428,-2.4445,-2.4497,-2.4547,-2.4599,-2.4647,-2.4711,-2.4723,-2.4738,-2.4753,-2.4753,-2.4734,-2.4719,-2.4738,-2.4753,-2.4734,-2.4753,-2.4738,-2.4753,-2.4787,-2.4817,-2.4832,-2.4861,-2.4889,-2.4917,-2.4972,-2.5025,-2.5076,-2.5125,-2.5153,-2.5198,-2.5241,-2.5322,-2.537,-2.5406,-2.5459,-2.548,-2.5505,-2.5544,-2.5579,-2.5654,-2.5675,-2.5701,-2.5699,-2.5703,-2.5644,-2.5598,-2.5467,-2.5188,-2.4752,-2.4255,-2.3307,-2.1917,-1.9954,-1.7194,-1.3762,-0.9156,-0.3984,0.2467,0.9361,1.3421,-3.2247,-3.2155,-3.1415,-3.1489,-3.1869,-3.0859,-3.0272,-2.9958,-2.9459,-2.9243,-2.927,-2.927,-2.933,-2.9392,-2.9431,-2.9392,-2.9392,-2.9392,-2.9392,-2.9392,-2.9411,-2.9431,-2.8852,-2.7977,-2.6935,-2.6637,-2.5517,-2.4582,-2.4596,-2.4599,-2.458,-2.4599,-2.4617,-2.4582,-2.4564,-2.453,-2.4515,-2.45,-2.45,-2.45,-2.45,-2.45,-2.4482,-2.4465,-2.4465,-2.443,-2.4394,-2.4394,-2.4358,-2.4321,-2.4303,-2.4303,-2.4303,-2.4339,-2.4376,-2.4393,-2.4429,-2.4461,-2.4513,-2.4615,-2.4698,-2.4695,-2.4707,-2.4707,-2.4673,-2.4673,-2.4707,-2.4707,-2.4689,-2.4673,-2.4673,-2.4707,-2.4723,-2.4757,-2.4757,-2.4768,-2.4798,-2.4827,-2.4889,-2.4945,-2.4999,-2.5082,-2.5132,-2.516,-2.5198,-2.5241,-2.5283,-2.5351,-2.5388,-2.5423,-2.5456,-2.5476,-2.5518,-2.5556,-2.5609,-2.5632,-2.5662,-2.5687,-2.5683,-2.5655,-2.5597,-2.5485,-2.5316,-2.4958,-2.4376,-2.3649,-2.2302,-2.0615,-1.7845,-1.4705,-0.9069,-0.2819,0.3425,0.9913,1.3239,-3.1421,-3.1329,-3.054,-3.0294,-3.0438,-3.0397,-2.9954,-2.9381,-2.9233,-2.9178,-2.92,-2.92,-2.9222,-2.9243,-2.9265,-2.9265,-2.9265,-2.9243,-2.9243,-2.9243,-2.9265,-2.9222,-2.863,-2.7763,-2.6821,-2.6488,-2.5392,-2.4515,-2.4582,-2.4549,-2.453,-2.4513,-2.4498,-2.4498,-2.4495,-2.4498,-2.45,-2.45,-2.4482,-2.4482,-2.4482,-2.4482,-2.4447,-2.4412,-2.4393,-2.4375,-2.4321,-2.4321,-2.4284,-2.4284,-2.4266,-2.4266,-2.4266,-2.4303,-2.4303,-2.4321,-2.4358,-2.4411,-2.45,-2.4636,-2.4666,-2.4663,-2.4676,-2.4692,-2.4692,-2.4673,-2.4673,-2.4673,-2.4673,-2.4673,-2.4673,-2.4707,-2.4707,-2.4707,-2.4707,-2.4723,-2.4768,-2.4817,-2.4861,-2.4903,-2.4972,-2.5025,-2.5107,-2.5168,-2.5198,-2.5252,-2.5283,-2.5322,-2.5379,-2.5406,-2.5432,-2.5464,-2.5503,-2.5538,-2.5576,-2.56,-2.5621,-2.5671,-2.5696,-2.5663,-2.5622,-2.5541,-2.5355,-2.5109,-2.4625,-2.3989,-2.2764,-2.1366,-1.7849,-1.385,-0.7242,-0.0943,0.5097,0.9935,1.3031,-3.0613,-3.054,-2.9751,-2.9402,-2.9425,-2.9448,-2.9306,-2.9104,-2.9067,-2.9108,-2.9152,-2.9152,-2.9156,-2.9197,-2.9197,-2.9178,-2.9197,-2.9218,-2.9218,-2.9178,-2.9197,-2.9218,-2.8661,-2.7606,-2.6742,-2.6299,-2.5245,-2.4375,-2.4375,-2.441,-2.4393,-2.4357,-2.4375,-2.4357,-2.4375,-2.4375,-2.4375,-2.4357,-2.4358,-2.4375,-2.4375,-2.4375,-2.4358,-2.4339,-2.4339,-2.4321,-2.4247,-2.4247,-2.4229,-2.4228,-2.4228,-2.4228,-2.4247,-2.4247,-2.4247,-2.4247,-2.4284,-2.4339,-2.4393,-2.4481,-2.4566,-2.4615,-2.4663,-2.4679,-2.4679,-2.4692,-2.4692,-2.4673,-2.4673,-2.4673,-2.4673,-2.4673,-2.4707,-2.4707,-2.4707,-2.4689,-2.4738,-2.4787,-2.4836,-2.4861,-2.4931,-2.5012,-2.5095,-2.5144,-2.5176,-2.5239,-2.5271,-2.5322,-2.5361,-2.5379,-2.5397,-2.5451,-2.5464,-2.5495,-2.5538,-2.5562,-2.5586,-2.5629,-2.5681,-2.5681,-2.5638,-2.5603,-2.5451,-2.5241,-2.4809,-2.4284,-2.2789,-2.0812,-1.7037,-1.2347,-0.686,-0.1469,0.3884,0.848,1.2305,-2.9716,-2.9661,-2.9148,-2.8905,-2.8929,-2.8994,-2.8975,-2.8975,-2.8975,-2.9021,-2.9062,-2.9044,-2.9044,-2.9067,-2.9067,-2.9067,-2.9067,-2.9067,-2.9067,-2.9067,-2.9067,-2.8842,-2.8198,-2.7337,-2.651,-2.5959,-2.5114,-2.4284,-2.4303,-2.4303,-2.4284,-2.4284,-2.4247,-2.4228,-2.421,-2.4247,-2.4303,-2.4303,-2.4303,-2.4303,-2.4303,-2.4303,-2.4284,-2.4284,-2.4266,-2.4247,-2.421,-2.4191,-2.4209,-2.419,-2.419,-2.419,-2.419,-2.419,-2.4191,-2.421,-2.4229,-2.4266,-2.4321,-2.4375,-2.4464,-2.4534,-2.4617,-2.4666,-2.4666,-2.4679,-2.4695,-2.4676,-2.4692,-2.4692,-2.4692,-2.4692,-2.4673,-2.4673,-2.4689,-2.4689,-2.4707,-2.4757,-2.4802,-2.4846,-2.4903,-2.4985,-2.5095,-2.5125,-2.5153,-2.5206,-2.5239,-2.5292,-2.5341,-2.5351,-2.537,-2.5397,-2.5443,-2.5456,-2.5495,-2.5511,-2.5568,-2.5595,-2.5639,-2.5668,-2.5683,-2.5634,-2.5492,-2.5362,-2.5001,-2.4245,-2.2597,-2.0166,-1.705,-1.3216,-0.8477,-0.3034,0.2467,0.7052,1.1357,-2.8804,-2.8804,-2.8804,-2.8828,-2.8828,-2.8947,-2.8975,-2.8975,-2.8975,-2.8975,-2.8994,-2.8929,-2.8929,-2.8887,-2.8834,-2.8852,-2.8876,-2.8834,-2.8834,-2.8852,-2.8881,-2.8401,-2.7707,-2.6867,-2.62,-2.5399,-2.4649,-2.419,-2.4266,-2.4247,-2.4228,-2.419,-2.4133,-2.4095,-2.4114,-2.4172,-2.4229,-2.4229,-2.4229,-2.4229,-2.4229,-2.4247,-2.4229,-2.421,-2.4173,-2.4172,-2.4171,-2.4152,-2.417,-2.417,-2.417,-2.419,-2.419,-2.4208,-2.419,-2.419,-2.4191,-2.4229,-2.4284,-2.4303,-2.4339,-2.4411,-2.4479,-2.4547,-2.4596,-2.4631,-2.4663,-2.4679,-2.4695,-2.4676,-2.4692,-2.4692,-2.4673,-2.4673,-2.4673,-2.4707,-2.4707,-2.4757,-2.4768,-2.4813,-2.4889,-2.4959,-2.5057,-2.512,-2.5118,-2.5172,-2.5206,-2.5239,-2.5282,-2.5293,-2.5303,-2.5351,-2.5379,-2.5415,-2.5456,-2.5461,-2.5511,-2.5549,-2.5591,-2.5636,-2.5652,-2.5644,-2.5559,-2.5404,-2.5185,-2.4285,-2.2727,-2.0535,-1.7789,-1.3699,-0.9644,-0.4321,0.1204,0.6248,1.0663,-2.8804,-2.8804,-2.8804,-2.8804,-2.8828,-2.8834,-2.8858,-2.8858,-2.8876,-2.8876,-2.8834,-2.8852,-2.8834,-2.8834,-2.881,-2.8804,-2.8804,-2.8804,-2.8828,-2.8785,-2.8694,-2.8202,-2.7533,-2.6695,-2.5969,-2.5205,-2.4531,-2.4094,-2.4075,-2.4095,-2.4095,-2.4056,-2.4016,-2.3996,-2.4016,-2.4037,-2.4057,-2.4095,-2.4095,-2.4114,-2.4096,-2.4096,-2.4077,-2.4077,-2.4077,-2.4075,-2.4056,-2.4056,-2.4074,-2.4056,-2.4056,-2.4056,-2.4074,-2.4074,-2.4074,-2.4074,-2.4075,-2.4134,-2.4171,-2.421,-2.4247,-2.4266,-2.4357,-2.4426,-2.4495,-2.4564,-2.4615,-2.4631,-2.4682,-2.4679,-2.4679,-2.4676,-2.4676,-2.4676,-2.4676,-2.4692,-2.4692,-2.4726,-2.4738,-2.4817,-2.4875,-2.4945,-2.5044,-2.5063,-2.5094,-2.5137,-2.516,-2.5214,-2.5228,-2.5241,-2.5262,-2.5293,-2.5313,-2.5341,-2.5369,-2.5385,-2.5434,-2.5505,-2.5543,-2.5591,-2.5623,-2.5619,-2.5582,-2.5433,-2.5153,-2.426,-2.3012,-2.0739,-1.8599,-1.5028,-1.0917,-0.5458,-0.0103,0.5031,0.9955,-2.8687,-2.8687,-2.8662,-2.8637,-2.8656,-2.8619,-2.8637,-2.8662,-2.8755,-2.8804,-2.8804,-2.8804,-2.8761,-2.8761,-2.8755,-2.873,-2.8712,-2.8712,-2.8712,-2.8658,-2.8446,-2.7658,-2.7009,-2.6245,-2.5394,-2.4738,-2.4322,-2.3996,-2.3976,-2.3937,-2.3937,-2.3917,-2.3935,-2.3912,-2.3891,-2.3873,-2.3873,-2.3915,-2.3955,-2.3978,-2.3978,-2.3978,-2.3978,-2.3978,-2.3978,-2.3978,-2.3978,-2.3978,-2.3978,-2.3978,-2.3978,-2.3978,-2.3996,-2.3996,-2.3996,-2.4016,-2.4036,-2.4056,-2.4094,-2.4095,-2.4153,-2.4191,-2.4247,-2.4321,-2.441,-2.4479,-2.453,-2.4564,-2.4615,-2.4666,-2.4647,-2.4663,-2.4663,-2.466,-2.466,-2.466,-2.4676,-2.4695,-2.4742,-2.4787,-2.4861,-2.4931,-2.4999,-2.5019,-2.5076,-2.5107,-2.512,-2.5144,-2.518,-2.5206,-2.522,-2.5233,-2.5243,-2.5264,-2.5293,-2.5322,-2.5367,-2.5445,-2.5498,-2.5543,-2.5585,-2.5598,-2.5585,-2.5368,-2.5087,-2.4199,-2.3349,-2.1693,-1.946,-1.5932,-1.2243,-0.7212,-0.1686,0.3968,0.8754,-2.8492,-2.851,-2.8406,-2.8424,-2.8424,-2.8406,-2.8424,-2.845,-2.8656,-2.8779,-2.8737,-2.8712,-2.8662,-2.8637,-2.8612,-2.8587,-2.8587,-2.8587,-2.8569,-2.8533,-2.7888,-2.7164,-2.6372,-2.5407,-2.4853,-2.4242,-2.3896,-2.3894,-2.3935,-2.3915,-2.3834,-2.3813,-2.3807,-2.3786,-2.3765,-2.3743,-2.3765,-2.3786,-2.3852,-2.3935,-2.3935,-2.3955,-2.3976,-2.3955,-2.3955,-2.3955,-2.3955,-2.3976,-2.3976,-2.3976,-2.3958,-2.3976,-2.3958,-2.3958,-2.3958,-2.3958,-2.3976,-2.3996,-2.3996,-2.4016,-2.4075,-2.4133,-2.417,-2.4247,-2.4303,-2.4411,-2.4445,-2.4515,-2.4568,-2.4582,-2.4599,-2.4615,-2.4631,-2.4613,-2.4629,-2.4629,-2.4647,-2.4663,-2.4729,-2.4791,-2.4817,-2.4889,-2.4931,-2.4985,-2.5044,-2.5089,-2.5114,-2.5114,-2.512,-2.5149,-2.5153,-2.5168,-2.5179,-2.519,-2.5252,-2.5283,-2.5322,-2.5378,-2.5437,-2.5483,-2.5511,-2.5539,-2.5576,-2.54,-2.52,-2.4636,-2.371,-2.22,-2.031,-1.7348,-1.3461,-0.8934,-0.3468,0.2393,0.7824,-2.8432,-2.8406,-2.8424,-2.8424,-2.8424,-2.8424,-2.8398,-2.8424,-2.8476,-2.8484,-2.8484,-2.8484,-2.8502,-2.8484,-2.8502,-2.8458,-2.8458,-2.8484,-2.8484,-2.8167,-2.7597,-2.6754,-2.6108,-2.5222,-2.4538,-2.4067,-2.3831,-2.3828,-2.3807,-2.3786,-2.3747,-2.3725,-2.3721,-2.3718,-2.3678,-2.3696,-2.3696,-2.3678,-2.3721,-2.3768,-2.3768,-2.3786,-2.3765,-2.3786,-2.3786,-2.3807,-2.3807,-2.3786,-2.3807,-2.3828,-2.3847,-2.3831,-2.3837,-2.3855,-2.3855,-2.3837,-2.3915,-2.3915,-2.3935,-2.3955,-2.4014,-2.4016,-2.4074,-2.4133,-2.4228,-2.4303,-2.4375,-2.4429,-2.4464,-2.4515,-2.453,-2.4547,-2.4582,-2.4582,-2.4599,-2.4599,-2.4615,-2.4666,-2.4698,-2.4745,-2.4787,-2.4832,-2.4875,-2.4936,-2.501,-2.505,-2.5089,-2.5082,-2.507,-2.5095,-2.5082,-2.5101,-2.5118,-2.5141,-2.5195,-2.5228,-2.5271,-2.5293,-2.5351,-2.5404,-2.5441,-2.5512,-2.5556,-2.5522,-2.5293,-2.4832,-2.4166,-2.3048,-2.0931,-1.8361,-1.4939,-1.0493,-0.517,0.0609,0.6347,-2.8264,-2.8264,-2.8237,-2.8237,-2.8219,-2.8237,-2.8219,-2.8219,-2.8219,-2.8237,-2.8246,-2.8327,-2.8424,-2.8424,-2.8424,-2.8398,-2.8398,-2.8424,-2.8126,-2.7756,-2.7108,-2.6285,-2.5569,-2.4888,-2.431,-2.3801,-2.3765,-2.3743,-2.3718,-2.37,-2.3682,-2.3656,-2.3674,-2.3634,-2.3611,-2.3629,-2.3611,-2.3589,-2.3611,-2.3611,-2.3611,-2.3656,-2.3718,-2.3718,-2.37,-2.3718,-2.3718,-2.3718,-2.3739,-2.3743,-2.3761,-2.3765,-2.375,-2.3768,-2.375,-2.375,-2.3771,-2.381,-2.3831,-2.3873,-2.3915,-2.3935,-2.3955,-2.4016,-2.4074,-2.4153,-2.4247,-2.4284,-2.4375,-2.4393,-2.441,-2.4446,-2.4481,-2.4481,-2.4515,-2.4549,-2.4566,-2.4615,-2.4631,-2.4663,-2.4711,-2.4772,-2.4802,-2.4827,-2.4889,-2.4903,-2.4959,-2.4972,-2.4972,-2.4985,-2.4991,-2.5004,-2.5025,-2.5076,-2.5144,-2.5168,-2.5172,-2.5228,-2.5262,-2.5351,-2.5401,-2.5492,-2.5535,-2.5506,-2.5417,-2.5182,-2.4426,-2.3544,-2.21,-1.9796,-1.6169,-1.2192,-0.6689,-0.1154,0.4824,-2.8099,-2.8071,-2.8042,-2.7996,-2.7996,-2.7996,-2.7996,-2.7996,-2.7996,-2.7996,-2.8042,-2.8246,-2.8345,-2.8371,-2.8371,-2.8353,-2.8264,-2.8022,-2.7697,-2.7184,-2.6278,-2.5673,-2.4977,-2.4226,-2.388,-2.3736,-2.3678,-2.3678,-2.3674,-2.3634,-2.3611,-2.3585,-2.3562,-2.3522,-2.3494,-2.3471,-2.3453,-2.3494,-2.3494,-2.3471,-2.3522,-2.3571,-2.3652,-2.3656,-2.3678,-2.3696,-2.3674,-2.3674,-2.3674,-2.3674,-2.3656,-2.37,-2.3721,-2.3721,-2.3721,-2.3721,-2.3721,-2.3721,-2.3739,-2.3765,-2.3789,-2.3792,-2.3855,-2.3915,-2.3955,-2.4036,-2.4114,-2.4172,-2.4247,-2.4303,-2.4321,-2.4358,-2.4375,-2.4393,-2.4446,-2.4481,-2.4515,-2.4547,-2.4564,-2.458,-2.4629,-2.4676,-2.4707,-2.4734,-2.4764,-2.4783,-2.4798,-2.4798,-2.4794,-2.4827,-2.4842,-2.4875,-2.4884,-2.4972,-2.5044,-2.507,-2.5057,-2.5094,-2.5134,-2.5253,-2.5339,-2.5398,-2.5477,-2.5545,-2.5429,-2.527,-2.4894,-2.419,-2.2571,-2.1053,-1.7886,-1.3988,-0.8638,-0.2911,0.3384,-2.8042,-2.8014,-2.8014,-2.7968,-2.7968,-2.7968,-2.7996,-2.7996,-2.7968,-2.7996,-2.7968,-2.8025,-2.8081,-2.8081,-2.8154,-2.811,-2.7924,-2.7629,-2.736,-2.6974,-2.5678,-2.5141,-2.4626,-2.3957,-2.3705,-2.3611,-2.3589,-2.3585,-2.3562,-2.3539,-2.3539,-2.3499,-2.3471,-2.3448,-2.3407,-2.3383,-2.336,-2.336,-2.336,-2.336,-2.3383,-2.3453,-2.3517,-2.3539,-2.3522,-2.3499,-2.3476,-2.3453,-2.3453,-2.3476,-2.3544,-2.3629,-2.3652,-2.3674,-2.3634,-2.3652,-2.3652,-2.3656,-2.3656,-2.3678,-2.3682,-2.3721,-2.3768,-2.3831,-2.3873,-2.3896,-2.3958,-2.4036,-2.4114,-2.4228,-2.4247,-2.4303,-2.4321,-2.4339,-2.4357,-2.4393,-2.4411,-2.4464,-2.4498,-2.4532,-2.4564,-2.4615,-2.4615,-2.4645,-2.4676,-2.4692,-2.4692,-2.4689,-2.4689,-2.4689,-2.4704,-2.4738,-2.4768,-2.4846,-2.4917,-2.4931,-2.494,-2.4961,-2.5,-2.5122,-2.5203,-2.5303,-2.5379,-2.5449,-2.5478,-2.5409,-2.4977,-2.4629,-2.3633,-2.2033,-1.954,-1.5838,-1.0615,-0.4617,0.1815]},{"header":{"parameterUnit":"m.s-1","parameterCategory":1,"la1":31.0,"la2":29.5877,"lo1":-88.7671,"lo2":-86.6584,"dy":0.0162,"dx":0.0185,"nx":115,"ny":88,"refTime":"2024-05-18T06:00:00:Z","depth":0,"parameterNumber":3,"parameterNumberName":"V-component_of_WINDS"},"data":[0.0,0.0,0.0,0.0,0.0,0.0,0.0,0.0,0.0,0.0,0.0,0.0,0.0,0.0,0.0,0.0,0.0,0.0,0.0,0.0,0.0,0.0,0.0,0.0,0.0,0.0,0.0,0.0,0.0,0.0,0.0,0.0,0.0,0.0,0.0,0.0,0.0,0.0,0.0,0.0,0.0,0.0,0.0,0.0,0.0,0.0,0.0,0.0,0.0,0.0,0.0,0.0,0.0,0.0,0.0,0.0,0.0,0.0,0.0,0.0,0.0,0.0,0.0,0.0,0.0,0.0,0.0,0.0,0.0,0.0,0.0,0.0,0.0,0.0,0.0,0.0,0.0,0.0,0.0,0.0,0.0,0.0,0.0,0.0,0.0,0.0,0.0,0.0,0.0,0.0,0.0,0.0,0.0,0.0,0.0,0.0,0.0,0.0,0.0,0.0,0.0,0.0,0.0,0.0,0.0,0.0,0.0,0.0,0.0,0.0,0.0,0.0,0.0,0.0,0.0,0.0,0.0,0.0,0.0,0.0,0.0,0.0,0.0,0.0,0.0,0.0,0.0,0.0,0.0,0.0,0.0,0.0,0.0,0.0,0.0,0.0,0.0,0.0,0.0,0.0,0.0,0.0,0.0,0.0,0.0,0.0,0.0,0.0,0.0,0.0,0.0,0.0,0.0,0.0,0.0,0.0,0.0,0.0,0.0,0.0,0.0,0.0,0.0,0.0,0.0,0.0,0.0,0.0,0.0,0.0,0.0,0.0,0.0,0.0,0.0,0.0,0.0,0.0,0.0,0.0,0.0,0.0,0.0,0.0,0.0,0.0,0.0,0.0,0.0,0.0,0.0,0.0,0.0,0.0,0.0,0.0,0.0,0.0,0.0,0.0,0.0,0.0,0.0,0.0,0.0,0.0,0.0,0.0,0.0,0.0,0.0,0.0,0.0,0.0,0.0,0.0,0.0,0.0,0.0,0.0,0.0,0.0,0.0,0.0,0.0,0.0,0.0,0.0,0.0,0.0,0.0,0.0,0.0,0.0,0.0,0.0,0.0,0.0,0.0,0.0,0.0,0.0,0.0,0.0,0.0,0.0,0.0,0.0,0.0,0.0,0.0,0.0,0.0,0.0,0.0,0.0,0.0,0.0,0.0,0.0,0.0,0.0,0.0,0.0,0.0,0.0,0.0,0.0,0.0,0.0,0.0,0.0,0.0,0.0,0.0,0.0,0.0,0.0,0.0,0.0,0.0,0.0,0.0,0.0,0.0,0.0,0.0,0.0,0.0,0.0,0.0,0.0,0.0,0.0,0.0,0.0,0.0,0.0,0.0,0.0,0.0,0.0,0.0,0.0,0.0,0.0,0.0,0.0,0.0,0.0,0.0,0.0,0.0,0.0,0.0,0.0,0.0,0.0,0.0,0.0,0.0,0.0,0.0,0.0,0.0,0.0,0.0,0.0,0.0,0.0,0.0,0.0,0.0,0.0,0.0,0.0,0.0,0.0,0.0,0.0,0.0,0.0,0.0,0.0,0.0,0.0,0.0,0.0,0.0,0.0,0.0,0.0,0.0,0.0,0.0,0.0,0.0,0.0,0.0,0.0,0.0,0.0,0.0,0.0,0.0,0.0,0.0,0.0,0.0,0.0,0.0,0.0,0.0,0.0,0.0,0.0,0.0,0.0,0.0,0.0,0.0,0.0,0.0,0.0,0.0,0.0,0.0,0.0,0.0,0.0,0.0,0.0,0.0,0.0,0.0,0.0,0.0,0.0,0.0,0.0,0.0,0.0,0.0,0.0,0.0,0.0,0.0,0.0,0.0,0.0,0.0,0.0,0.0,0.0,0.0,0.0,0.0,0.0,0.0,0.0,0.0,0.0,0.0,0.0,0.0,0.0,0.0,0.0,0.0,0.0,0.0,0.0,0.0,0.0,0.0,0.0,0.0,0.0,0.0,0.0,0.0,0.0,0.0,0.0,0.0,0.0,0.0,0.0,0.0,0.0,0.0,0.0,0.0,0.0,0.0,0.0,0.0,0.0,0.0,0.0,0.0,0.0,0.0,0.0,0.0,0.0,0.0,0.0,0.0,0.0,0.0,0.0,0.0,0.0,0.0,0.0,0.0,0.0,0.0,0.0,0.0,0.0,0.0,0.0,0.0,0.0,0.0,0.0,0.0,0.0,0.0,0.0,0.0,0.0,0.0,0.0,0.0,0.0,0.0,0.0,0.0,0.0,0.0,0.0,0.0,0.0,0.0,0.0,0.0,0.0,0.0,0.0,0.0,0.0,0.0,0.0,0.0,0.0,0.0,0.0,0.0,0.0,0.0,0.0,0.0,0.0,0.0,0.0,0.0,0.0,0.0,0.0,0.0,0.0,0.0,0.0,0.0,0.0,0.0,0.0,0.0,0.0,0.0,0.0,0.0,0.0,0.0,0.0,0.0,0.0,0.0,0.0,0.0,0.0,0.0,0.0,0.0,0.0,0.0,0.0,0.0,0.0,0.0,0.0,0.0,0.0,0.0,0.0,0.0,0.0,0.0,0.0,0.0,0.0,0.0,0.0,0.0,0.0,0.0,0.0,0.0,0.0,0.0,0.0,0.0,0.0,0.0,0.0,0.0,0.0,0.0,0.0,0.0,0.0,0.0,0.0,0.0,0.0,0.0,0.0,0.0,0.0,0.0,0.0,0.0,0.0,0.0,0.0,0.0,0.0,0.0,0.0,0.0,0.0,0.0,0.0,0.0,0.0,0.0,0.0,0.0,0.0,0.0,0.0,0.0,0.0,0.0,0.0,0.0,0.0,0.0,0.0,0.0,0.0,0.0,0.0,0.0,0.0,0.0,0.0,0.0,0.0,0.0,0.0,0.0,0.0,0.0,0.0,0.0,0.0,0.0,0.0,0.0,0.0,0.0,0.0,0.0,0.0,0.0,0.0,0.0,0.0,0.0,0.0,0.0,0.0,0.0,0.0,0.0,0.0,0.0,0.0,0.0,0.0,0.0,0.0,0.0,0.0,0.0,0.0,0.0,0.0,0.0,0.0,0.0,0.0,0.0,0.0,0.0,0.0,0.0,0.0,0.0,0.0,0.0,0.0,0.0,0.0,0.0,0.0,0.0,0.0,0.0,0.0,0.0,0.0,0.0,0.0,0.0,0.0,0.0,0.0,0.0,0.0,0.0,0.0,0.0,0.0,0.0,0.0,0.0,0.0,0.0,0.0,0.0,0.0,0.0,0.0,0.0,0.0,0.0,0.0,0.0,0.0,0.0,0.0,0.0,0.0,0.0,0.0,0.0,0.0,0.0,0.0,0.0,0.0,0.0,0.0,0.0,0.0,0.0,0.0,0.0,0.0,0.0,0.0,0.0,0.0,0.0,0.0,0.0,0.0,0.0,0.0,0.0,0.0,0.0,0.0,0.0,0.0,0.0,0.0,0.0,0.0,0.0,0.0,0.0,0.0,0.0,0.0,0.0,0.0,0.0,0.0,0.0,0.0,0.0,0.0,0.0,0.0,0.0,0.0,0.0,0.0,0.0,0.0,0.0,0.0,0.0,0.0,0.0,0.0,0.0,0.0,0.0,0.0,0.0,0.0,0.0,0.0,0.0,0.0,0.0,0.0,0.0,0.0,0.0,0.0,0.0,0.0,0.0,0.0,0.0,0.0,0.0,0.0,0.0,0.0,0.0,0.0,0.0,0.0,0.0,0.0,0.0,0.0,0.0,0.0,0.0,0.0,0.0,0.0,0.0,0.0,0.0,0.0,0.0,0.0,0.0,0.0,0.0,0.0,0.0,0.0,0.0,0.0,0.0,0.0,0.0,0.0,0.0,0.0,0.0,0.0,0.0,0.0,0.0,0.0,0.0,0.0,0.0,0.0,0.0,0.0,0.0,0.0,0.0,0.0,0.0,0.0,0.0,0.0,0.0,0.0,0.0,0.0,0.0,0.0,0.0,0.0,0.0,0.0,0.0,0.0,0.0,0.0,0.0,0.0,0.0,0.0,0.0,0.0,0.0,0.0,0.0,0.0,0.0,0.0,0.0,0.0,0.0,0.0,0.0,0.0,0.0,0.0,0.0,0.0,0.0,0.0,0.0,0.0,0.0,0.0,0.0,0.0,0.0,0.0,0.0,0.0,0.0,0.0,0.0,0.0,0.0,0.0,0.0,0.0,0.0,0.0,0.0,0.0,0.0,0.0,0.0,0.0,0.0,0.0,0.0,0.0,0.0,0.0,0.0,0.0,0.0,0.0,0.0,0.0,0.0,0.0,0.0,0.0,0.0,0.0,0.0,0.0,0.3633,0.0,0.0,0.0,0.0,0.0,0.0,0.0,0.0,0.0,0.0,0.0,0.0,0.0,0.0,0.0,0.0,0.0,0.0,0.0,0.0,0.0,0.0,0.0,0.0,0.0,0.0,0.0,0.0,0.0,0.0,0.0,0.0,0.0,0.0,0.0,0.0,0.0,0.0,0.0,0.0,0.0,0.0,0.0,0.0,0.0,0.0,0.0,0.0,0.0,0.0,0.0,0.0,0.0,0.0,0.0,0.0,0.0,0.0,0.0,0.0,0.0,0.0,0.0,0.0,0.0,0.0,0.0,0.0,0.0,0.0,0.0,0.0,0.0,0.0,0.0,0.0,0.0,0.0,0.0,0.0,0.0,0.0,0.0,0.0,0.0,0.0,0.0,0.0,0.0,0.0,0.0,0.0,0.0,0.0,0.0,0.0,0.0,0.0,0.0,0.0,0.0,0.0,0.0,0.0,0.0,0.0,0.0,0.0,0.0,0.0,0.406,0.4169,0.4216,0.4162,0.4014,0.0,0.0,0.0,0.0,0.0,0.0,0.0,0.0,0.0,0.0,0.0,0.0,0.0,0.0,0.0,0.0,0.0,0.0,0.0,0.0,0.0,0.0,0.0,0.0,0.0,0.0,0.0,0.0,0.0,0.0,0.0,0.0,0.0,0.0,0.0,0.0,0.0,0.0,0.0,0.0,0.0,0.0,0.0,0.0,0.0,0.0,0.0,0.0,0.0,0.0,0.0,0.0,0.0,0.0,0.0,0.0,0.0,0.0,0.0,0.0,0.0,0.0,0.0,0.0,0.0,0.0,0.0,0.0,0.0,0.0,0.0,0.0,0.0,0.0,0.0,0.0,0.0,0.0,0.0,0.0,0.0,0.0,0.0,0.0,0.0,0.0,0.0,0.0,0.0,0.0,0.0,0.0,0.0,0.0,0.0,0.0,0.0,0.0,0.0,0.0,0.0,0.0,0.0,0.0,0.0,0.0,0.0,0.0,0.0,0.0,0.0,0.0,0.4489,0.4418,0.4314,0.0,0.0,0.0,0.0,0.0,0.0,0.0,0.0,0.0,0.0,0.0,0.0,0.0,0.0,0.0,0.0,0.0,0.0,0.0,0.0,0.0,0.0,0.0,0.0,0.0,0.0,0.0,0.0,0.0,0.0,0.0,0.0,0.0,0.0,0.0,0.0,0.0,0.0,0.0,0.0,0.0,0.0,0.0,0.0,0.0,0.0,0.0,0.0,0.0,0.0,0.0,0.0,0.0,0.0,0.0,0.0,0.0,0.0,0.0,0.0,0.0,0.0,0.0,0.0,0.0,0.0,0.0,0.0,0.0,0.0,0.0,0.0,0.0,0.0,0.0,0.0,0.0,0.0,0.0,0.0,0.0,0.0,0.0,0.0,0.0,0.0,0.0,0.0,0.0,0.0,0.0,0.0,0.0,0.0,0.0,0.0,0.0,0.0,0.0,0.0,0.0,0.0,0.0,0.0,0.0,0.0,0.0,0.0,0.0,0.0,0.4468,0.4523,0.466,0.0,0.4065,0.0,0.0,0.0,0.0,0.0,0.0,0.0,0.0,0.0,0.0,0.0,0.0,0.0,0.0,0.0,0.0,0.0,0.0,0.0,0.0,0.0,0.0,0.0,0.0,0.0,0.0,0.0,0.0,0.0,0.0,0.0,0.0,0.0,0.0,0.0,0.0,0.0,0.0,0.0,0.0,0.0,0.0,0.0,0.0,0.0,0.0,0.0,0.0,0.0,0.0,0.0,0.0,0.0,0.0,0.0,0.0,0.0,0.0,0.0,0.0,0.0,0.0,0.0,0.0,0.0,0.0,0.0,0.0,0.0,0.0,0.0,0.0,0.0,0.0,0.0,0.0,0.0,0.0,0.0,0.0,0.0,0.0,0.0,0.0,0.0,0.0,0.0,0.0,0.0,0.0,0.0,0.0,0.0,0.0,0.0,0.0,0.0,0.0,0.0,0.0,0.0,0.0,0.0,0.0,0.0,0.0,0.0,0.0,0.0,0.0,0.0,0.449,0.4684,0.4557,0.0,0.0,0.0,0.0,0.0,0.0,0.0,0.0,0.0,0.0,0.0,0.0,0.0,0.0,0.0,0.0,0.0,0.0,0.0,0.0,0.0,0.0,0.0,0.0,0.0,0.0,0.0,0.0,0.0,0.0,0.0,0.0,0.0,0.0,0.0,0.0,0.0,0.0,0.0,0.0,0.0,0.0,0.0,0.0,0.0,0.0,0.0,0.0,0.0,0.0,0.0,0.0,0.0,0.0,0.0,0.0,0.0,0.0,0.0,0.0,0.0,0.0,0.0,0.0,0.0,0.0,0.0,0.0,0.0,0.0,0.0,0.0,0.0,0.0,0.0,0.0,0.0,0.0,0.0,0.0,0.0,0.0,0.0,0.0,0.0,0.0,0.0,0.0,0.0,0.0,0.0,0.0,0.0,0.0,0.0,0.0,0.0,0.0,0.0,0.0,0.0,0.0,0.0,0.0,0.0,0.0,0.0,0.0,0.0,0.0,0.4323,0.0,0.4587,0.4716,0.4587,0.4103,0.0,0.0,0.0,0.0,0.0,0.0,0.0,0.0,0.0,0.0,0.0,0.0,0.0,0.0,0.0,0.0,0.0,0.0,0.0,0.0,0.0,0.0,0.0,0.0,0.0,0.0,0.0,0.0,0.0,0.0,0.0,0.0,0.0,0.0,0.0,0.0,0.0,0.0,0.0,0.0,0.0,0.0,0.0,0.0,0.0,0.0,0.0,0.0,0.0,0.0,0.0,0.0,0.0,0.0,0.0,0.0,0.0,0.0,0.0,0.0,0.0,0.0,0.0,0.0,0.0,0.0,0.0,0.0,0.0,0.0,0.0,0.0,0.0,0.0,0.0,0.0,0.0,0.0,0.0,0.0,0.0,0.0,0.0,0.0,0.0,0.0,0.0,0.0,0.0,0.0,0.0,0.0,0.0,0.0,0.0,0.0,0.0,0.0,0.0,0.0,0.0,0.0,0.0,0.0,0.0,0.0,0.0,0.0,0.0,0.4355,0.4587,0.478,0.478,0.4587,0.0,0.0,0.0,0.0,0.0,0.0,0.0,0.0,0.0,0.0,0.0,0.0,0.0,0.0,0.0,0.0,0.0,0.0,0.0,0.0,0.0,0.0,0.0,0.0,0.0,0.0,0.0,0.0,0.0,0.0,0.0,0.0,0.0,0.0,0.0,0.0,0.0,0.0,0.0,0.0,0.0,0.0,0.0,0.0,0.0,0.0,0.0,0.0,0.0,0.0,0.0,0.0,0.0,0.0,0.0,0.0,0.0,0.0,0.0,0.0,0.0,0.0,0.0,0.0,0.0,0.0,0.0,0.0,0.0,0.0,0.0,0.0,0.0,0.0,0.0,0.0,0.0,0.0,0.0,0.0,0.0,0.0,0.0,0.0,0.0,0.0,0.0,0.0,0.0,0.0,0.0,0.0,0.0,0.0,0.0,0.0,0.0,0.0,0.0,0.0,0.0,0.0,0.0,0.0,0.0,0.0,0.0,0.0,0.0,0.3936,0.4323,0.4587,0.0,0.4832,0.4642,0.0,0.0,0.0,0.0,0.0,0.0,0.0,0.0,0.0,0.0,0.0,0.0,0.0,0.0,0.0,0.0,0.0,0.0,0.0,0.0,0.0,0.0,0.0,0.0,0.0,0.0,0.0,0.0,0.0,0.0,0.0,0.0,0.0,0.0,0.0,0.0,0.0,0.0,0.0,0.0,0.0,0.0,0.0,0.0,0.0,0.0,0.0,0.0,0.0,0.0,0.0,0.0,0.0,0.0,0.0,0.0,0.0,0.0,0.0,0.0,0.0,0.0,0.0,0.0,0.0,0.0,0.0,0.0,0.0,0.0,0.0,0.0,0.0,0.0,0.0,0.0,0.0,0.0,0.0,0.0,0.0,0.0,0.0,0.0,0.0,0.0,0.0,0.0,0.0,0.0,0.0,0.0,0.0,0.0,0.0,0.0,0.0,0.0,0.0,0.0,0.0,0.0,0.0,0.0,0.0,0.0,0.0,0.0,0.0,0.4033,0.0,0.4684,0.0,0.4858,0.4629,0.0,0.0,0.0,0.0,0.0,0.0,0.0,0.0,0.0,0.0,0.0,0.0,0.0,0.0,0.0,0.0,0.0,0.0,0.0,0.0,0.0,0.0,0.0,0.0,0.0,0.0,0.0,0.0,0.0,0.0,0.0,0.0,0.0,0.0,0.0,0.0,0.0,0.0,0.0,0.0,0.0,0.0,0.0,0.0,0.0,0.0,0.0,0.0,0.0,0.0,0.0,0.0,0.0,0.0,0.0,0.0,0.0,0.0,0.0,0.0,0.0,0.0,0.0,0.0,0.0,0.0,0.0,0.0,0.0,0.0,0.0,0.0,0.0,0.0,0.0,0.0,0.0,0.0,0.0,0.0,0.0,0.0,0.0,0.0,0.0,0.0,0.0,0.0,0.0,0.0,0.0,0.0,0.0,0.0,0.0,0.0,0.0,0.0,0.0,0.0,0.0,0.0,0.0,0.0,0.0,0.0,0.0,0.0,0.3525,0.4371,0.4646,0.478,0.478,0.4864,0.4666,0.0,0.0,0.0,0.0,0.0,0.0,0.0,0.0,0.0,0.0,0.0,0.0,0.0,0.0,0.0,0.0,0.0,0.0,0.0,0.0,0.0,0.0,0.0,0.0,0.0,0.0,0.0,0.0,0.0,0.0,0.0,0.0,0.0,0.0,0.0,0.0,0.0,0.0,0.0,0.0,0.0,0.0,0.0,0.0,0.0,0.0,0.0,0.0,0.0,0.0,0.0,0.0,0.0,0.0,0.0,0.0,0.0,0.0,0.0,0.0,0.0,0.0,0.0,0.0,0.0,0.0,0.0,0.0,0.0,0.0,0.0,0.0,0.0,0.0,0.0,0.0,0.0,0.0,0.0,0.0,0.0,0.0,0.0,0.0,0.0,0.0,0.0,0.0,0.0,0.0,0.0,0.0,0.0,0.0,0.0,0.0,0.0,0.0,0.0,0.0,0.0,0.0,0.0,0.0,0.0,0.0,0.0,0.0,0.0,0.4312,0.4517,0.4684,0.4858,0.4928,0.4726,0.0,0.0,0.0,0.0,0.0,0.0,0.0,0.0,0.0,0.0,0.0,0.0,0.0,0.0,0.0,0.0,0.0,0.0,0.0,0.0,0.0,0.0,0.0,0.0,0.0,0.0,0.0,0.0,0.0,0.0,0.0,0.0,0.0,0.0,0.0,0.0,0.0,0.0,0.0,0.0,0.0,0.0,0.0,0.0,0.0,0.0,0.0,0.0,0.0,0.0,0.0,0.0,0.0,0.0,0.0,0.0,0.0,0.0,0.0,0.0,0.0,0.0,0.0,0.0,0.0,0.0,0.0,0.0,0.0,0.0,0.0,0.0,0.0,0.0,0.0,0.0,0.0,0.0,0.0,0.0,0.0,0.0,0.0,0.0,0.0,0.0,0.0,0.0,0.0,0.0,0.0,0.0,0.0,0.0,0.0,0.0,0.0,0.0,0.0,0.0,0.0,0.0,0.0,0.0,0.0,0.0,0.0,0.0,0.0,0.4215,0.4415,0.464,0.4915,0.4953,0.4838,0.4466,0.0,0.0,0.0,0.0,0.0,0.0,0.0,0.0,0.0,0.0,0.0,0.0,0.0,0.0,0.0,0.0,0.0,0.0,0.0,0.0,0.0,0.0,0.0,0.0,0.0,0.0,0.0,0.0,0.0,0.0,0.0,0.0,0.0,0.0,0.0,0.0,0.0,0.0,0.0,0.0,0.0,0.0,0.0,0.0,0.0,0.0,0.0,0.0,0.0,0.0,0.0,0.0,0.0,0.0,0.0,0.0,0.0,0.0,0.0,0.0,0.0,0.0,0.0,0.0,0.0,0.0,0.0,0.0,0.0,0.0,0.0,0.0,0.0,0.0,0.0,0.0,0.0,0.0,0.0,0.0,0.0,0.0,0.0,0.0,0.0,0.0,0.0,0.0,0.0,0.0,0.0,0.0,0.0,0.0,0.0,0.0,0.0,0.0,0.0,0.0,0.0,0.0,0.0,0.0,0.0,0.0,0.0,0.0,0.4112,0.4464,0.4716,0.4915,0.4985,0.4921,0.0,0.0,0.0,0.0,0.0,0.0,0.0,0.0,0.0,0.0,0.0,0.0,0.0,0.0,0.0,0.0,0.0,0.0,0.0,0.0,0.0,0.0,0.0,0.0,0.0,0.0,0.0,0.0,0.0,0.0,0.0,0.0,0.0,0.0,0.0,0.0,0.0,0.0,0.0,0.0,0.0,0.0,0.0,0.0,0.0,0.0,0.0,0.0,0.0,0.0,0.0,0.0,0.0,0.0,0.0,0.0,0.0,0.0,0.0,0.0,0.0,0.0,0.0,0.0,0.0,0.0,0.0,0.0,0.0,0.0,0.0,0.0,0.0,0.0,0.0,0.0,0.0,0.0,0.0,0.0,0.0,0.0,0.0,0.0,0.0,0.0,0.0,0.0,0.0,0.0,0.0,0.0,0.0,0.0,0.0,0.0,0.0,0.0,0.0,0.0,0.0,0.0,0.0,0.0,0.0,0.0,0.0,0.0,0.0,0.4461,0.4785,0.4961,0.4966,0.5087,0.5069,0.0,0.0,0.0,0.0,0.0,0.0,0.0,0.0,0.0,0.0,0.0,0.0,0.0,0.0,0.0,0.0,0.0,0.0,0.0,0.0,0.0,0.0,0.0,0.0,0.0,0.0,0.0,0.0,0.0,0.0,0.0,0.0,0.0,0.0,0.0,0.0,0.0,0.0,0.0,0.0,0.0,0.0,0.0,0.0,0.0,0.0,0.0,0.0,0.0,0.0,0.0,0.0,0.0,0.0,0.0,0.0,0.0,0.0,0.0,0.0,0.0,0.0,0.0,0.0,0.0,0.0,0.0,0.0,0.0,0.0,0.0,0.0,0.0,0.0,0.0,0.0,0.0,0.0,0.0,0.0,0.0,0.0,0.0,0.0,0.0,0.0,0.0,0.0,0.0,0.0,0.0,0.0,0.0,0.0,0.0,0.0,0.0,0.0,0.0,0.0,0.0,0.0,0.0,0.0,0.0,0.0,0.0,0.0,0.3966,0.4557,0.4917,0.5156,0.5168,0.53,0.5292,0.0,0.0,0.0,0.0,0.0,0.0,0.0,0.0,0.0,0.0,0.0,0.0,0.0,0.0,0.0,0.0,0.0,0.0,0.0,0.0,0.0,0.0,0.0,0.0,0.0,0.0,0.0,0.0,0.0,0.0,0.0,0.0,0.0,0.0,0.0,0.0,0.0,0.0,0.0,0.0,0.0,0.0,0.0,0.0,0.0,0.0,0.0,0.0,0.0,0.0,0.0,0.0,0.0,0.0,0.0,0.0,0.0,0.0,0.0,0.0,0.0,0.0,0.0,0.0,0.0,0.0,0.0,0.0,0.0,0.0,0.0,0.0,0.0,0.0,0.0,0.0,0.0,0.0,0.0,0.0,0.0,0.0,0.0,0.0,0.0,0.0,0.0,0.0,0.0,0.0,0.0,0.0,0.0,0.0,0.0,0.0,0.0,0.0,0.0,0.0,0.0,0.0,0.0,0.0,0.0,0.0,0.0,0.0,0.3981,0.4535,0.4998,0.5307,0.5446,0.5566,0.5524,0.0,0.0,0.0,0.0,0.0,0.0,0.0,0.0,0.0,0.0,0.0,0.0,0.0,0.0,0.0,0.0,0.0,0.0,0.0,0.0,0.0,0.0,0.0,0.0,0.0,0.0,0.0,0.0,0.0,0.0,0.0,0.0,0.0,0.0,0.0,0.0,0.0,0.0,0.0,0.0,0.0,0.0,0.0,0.0,0.0,0.0,0.0,0.0,0.0,0.0,0.0,0.0,0.0,0.0,0.0,0.0,0.0,0.0,0.0,0.0,0.0,0.0,0.0,0.0,0.0,0.0,0.0,0.0,0.0,0.0,0.0,0.0,0.0,0.0,0.0,0.0,0.0,0.0,0.0,0.0,0.0,0.0,0.0,0.0,0.0,0.0,0.0,0.0,0.0,0.0,0.0,0.0,0.0,0.0,0.0,0.0,0.0,0.0,0.0,0.0,0.0,0.0,0.0,0.0,0.0,0.0,0.0,0.0,0.4083,0.4872,0.5296,0.5584,0.5725,0.5698,0.5611,0.0,0.0,0.0,0.0,0.0,0.0,0.0,0.0,0.0,0.0,0.0,0.0,0.0,0.0,0.0,0.0,0.0,0.0,0.0,0.0,0.0,0.0,0.0,0.0,0.0,0.0,0.0,0.0,0.0,0.0,0.0,0.0,0.0,0.0,0.0,0.0,0.0,0.0,0.0,0.0,0.0,0.0,0.0,0.0,0.0,0.0,0.0,0.0,0.6416,0.0,0.0,0.0,0.0,0.0,0.0,0.0,0.0,0.0,0.0,0.0,0.0,0.0,0.0,0.0,0.0,0.0,0.0,0.0,0.0,0.0,0.0,0.0,0.0,0.0,0.0,0.0,0.0,0.0,0.0,0.0,0.0,0.0,0.0,0.0,0.0,0.0,0.0,0.0,0.0,0.0,0.0,0.0,0.0,0.0,0.0,0.0,0.0,0.0,0.0,0.0,0.0,0.0,0.0,0.0,0.0,0.0,0.0,0.0,0.4034,0.4937,0.5187,0.5432,0.5794,0.5689,0.5611,0.0,0.0,0.0,0.0,0.0,0.0,0.0,0.0,0.0,0.0,0.0,0.0,0.0,0.0,0.0,0.0,0.0,0.0,0.0,0.0,0.0,0.0,0.0,0.0,0.0,0.0,0.0,0.0,0.0,0.0,0.0,0.0,0.0,0.0,0.0,0.0,0.0,0.0,0.0,0.0,0.0,0.0,0.0,0.0,0.0,0.0,0.0,0.0,0.0,0.0,0.0,0.0,0.0,0.0,0.0,0.0,0.0,0.0,0.0,0.0,0.0,0.0,0.0,0.0,0.0,0.0,0.0,0.0,0.0,0.0,0.0,0.0,0.0,0.0,0.0,0.0,0.0,0.0,0.0,0.0,0.0,0.0,0.0,0.0,0.0,0.0,0.0,0.0,0.0,0.0,0.0,0.0,0.0,0.0,0.0,0.0,0.0,0.0,0.0,0.0,0.0,0.0,0.0,0.0,0.0,0.0,0.0,0.3368,0.3966,0.4808,0.4876,0.5186,0.5757,0.5667,0.5591,0.5498,0.0,0.0,0.0,0.0,0.0,0.0,0.0,0.0,0.0,0.0,0.0,0.0,0.0,0.0,0.0,0.0,0.0,0.0,0.0,0.0,0.0,0.0,0.0,0.0,0.0,0.0,0.0,0.0,0.0,0.0,0.0,0.0,0.0,0.0,0.0,0.0,0.0,0.0,0.3345,0.4179,0.0,0.0,0.0,0.0,0.0,0.0,0.0,0.0,0.7068,0.0,0.0,0.0,0.0,0.0,0.0,0.0,0.0,0.0,0.0,0.0,0.0,0.0,0.0,0.0,0.0,0.0,0.0,0.0,0.0,0.0,0.0,0.0,0.0,0.0,0.0,0.0,0.0,0.0,0.0,0.0,0.0,0.0,0.0,0.0,0.0,0.0,0.0,0.0,0.0,0.0,0.0,0.0,0.0,0.0,0.0,0.0,0.0,0.0,0.0,0.0,0.0,0.0,0.0,0.0,0.0,0.2937,0.3368,0.397,0.4721,0.4846,0.5151,0.5609,0.566,0.5645,0.5498,0.0,0.0,0.0,0.0,0.0,0.0,0.0,0.0,0.0,0.0,0.0,0.0,0.0,0.0,0.0,0.0,0.0,0.0,0.0,0.0,0.0,0.0,0.0,0.0,0.0,0.0,0.0,0.0,0.0,0.0,0.0,0.0,0.0,0.0,0.0,0.0,0.0,0.0,0.0,0.4173,0.45,0.0,0.0,0.0,0.0,0.0,0.0,0.0,0.0,0.699,0.0,0.0,0.0,0.0,0.0,0.0,0.0,0.0,0.0,0.0,0.0,0.0,0.0,0.0,0.0,0.0,0.0,0.0,0.0,0.0,0.0,0.0,0.0,0.0,0.0,0.0,0.0,0.0,0.0,0.0,0.0,0.0,0.0,0.0,0.0,0.0,0.0,0.0,0.0,0.0,0.0,0.0,0.0,0.0,0.0,0.0,0.0,0.0,0.0,0.0,0.0,0.0,0.0,0.0,0.0,0.2937,0.3237,0.3798,0.4593,0.4608,0.4911,0.5566,0.5471,0.5443,0.0,0.0,0.0,0.0,0.0,0.0,0.0,0.0,0.0,0.0,0.0,0.0,0.0,0.0,0.0,0.0,0.0,0.0,0.0,0.0,0.0,0.0,0.0,0.0,0.0,0.0,0.0,0.0,0.0,0.0,0.0,0.0,0.0,0.0,0.0,0.0,0.0,0.0,0.0,0.0,0.3976,0.4309,0.4727,0.0,0.0,0.0,0.0,0.0,0.0,0.6315,0.6673,0.0,0.0,0.0,0.0,0.0,0.0,0.0,0.0,0.0,0.0,0.0,0.0,0.0,0.0,0.0,0.0,0.0,0.0,0.0,0.0,0.0,0.0,0.0,0.0,0.0,0.0,0.0,0.0,0.0,0.0,0.0,0.0,0.0,0.0,0.0,0.0,0.0,0.0,0.0,0.0,0.0,0.0,0.0,0.0,0.0,0.0,0.0,0.0,0.0,0.0,0.0,0.0,0.0,0.0,0.0,0.2937,0.3109,0.366,0.4502,0.4393,0.4711,0.5522,0.5303,0.5264,0.0,0.0,0.0,0.0,0.0,0.0,0.0,0.0,0.0,0.0,0.0,0.0,0.0,0.0,0.0,0.0,0.0,0.0,0.0,0.0,0.0,0.0,0.0,0.0,0.0,0.0,0.0,0.0,0.0,0.0,0.0,0.0,0.0,0.0,0.0,0.0,0.0,0.0,0.0,0.0,0.0,0.4094,0.437,0.457,0.0,0.0,0.0,0.0,0.5592,0.5967,0.0,0.0,0.0,0.0,0.0,0.0,0.0,0.0,0.0,0.0,0.0,0.0,0.0,0.0,0.0,0.0,0.0,0.0,0.0,0.0,0.0,0.0,0.0,0.0,0.0,0.0,0.0,0.0,0.0,0.0,0.0,0.0,0.0,0.0,0.0,0.0,0.0,0.0,0.0,0.0,0.0,0.0,0.0,0.0,0.0,0.0,0.0,0.0,0.0,0.0,0.0,0.0,0.0,0.0,0.0,0.0,0.3006,0.3179,0.366,0.4375,0.4319,0.4678,0.5491,0.5343,0.534,0.0,0.0,0.0,0.0,0.0,0.0,0.0,0.0,0.0,0.0,0.0,0.0,0.0,0.0,0.0,0.0,0.0,0.0,0.0,0.0,0.0,0.0,0.0,0.0,0.0,0.0,0.0,0.0,0.0,0.0,0.0,0.0,0.0,0.0,0.0,0.0,0.0,0.0,0.0,0.0,0.0,0.3771,0.4092,0.4253,0.4377,0.0,0.0,0.4928,0.5163,0.5554,0.0,0.0,0.0,0.0,0.0,0.0,0.0,0.0,0.0,0.0,0.0,0.0,0.0,0.0,0.0,0.0,0.0,0.0,0.0,0.0,0.0,0.0,0.0,0.0,0.0,0.0,0.0,0.0,0.0,0.0,0.0,0.0,0.0,0.0,0.0,0.0,0.0,0.0,0.0,0.0,0.0,0.0,0.0,0.0,0.0,0.0,0.0,0.0,0.0,0.0,0.0,0.0,0.0,0.0,0.0,0.2812,0.297,0.3109,0.3552,0.4323,0.4221,0.4581,0.536,0.5236,0.5302,0.0,0.0,0.0,0.0,0.0,0.0,0.0,0.0,0.0,0.0,0.0,0.0,0.0,0.0,0.0,0.0,0.0,0.0,0.0,0.0,0.0,0.0,0.0,0.0,0.0,0.0,0.0,0.0,0.0,0.0,0.0,0.0,0.0,0.0,0.0,0.0,0.0,0.0,0.0,0.0,0.0,0.0,0.3788,0.3993,0.0,0.0,0.0,0.4672,0.4896,0.0,0.0,0.0,0.0,0.0,0.0,0.0,0.0,0.0,0.0,0.0,0.0,0.0,0.0,0.0,0.0,0.0,0.0,0.0,0.0,0.0,0.0,0.0,0.0,0.0,0.0,0.0,0.0,0.0,0.0,0.0,0.0,0.0,0.0,0.0,0.0,0.0,0.0,0.0,0.0,0.0,0.0,0.0,0.0,0.0,0.0,0.0,0.0,0.0,0.0,0.0,0.0,0.0,0.0,0.0,0.0,0.0,0.2904,0.3039,0.3462,0.4178,0.4132,0.4424,0.5182,0.5138,0.0,0.0,0.0,0.0,0.0,0.0,0.0,0.0,0.0,0.0,0.0,0.0,0.0,0.0,0.0,0.0,0.0,0.0,0.0,0.0,0.0,0.0,0.0,0.0,0.0,0.0,0.0,0.1849,0.0,0.0,0.0,0.0,0.0,0.0,0.0,0.0,0.0,0.0,0.0,0.0,0.0,0.0,0.3499,0.3504,0.3733,0.3896,0.0,0.0,0.4382,0.4614,0.4966,0.5277,0.0,0.0,0.0,0.0,0.0,0.0,0.0,0.0,0.0,0.0,0.0,0.0,0.0,0.0,0.0,0.0,0.0,0.0,0.0,0.0,0.0,0.0,0.0,0.0,0.0,0.0,0.0,0.0,0.0,0.0,0.0,0.0,0.0,0.0,0.0,0.0,0.0,0.0,0.0,0.0,0.0,0.0,0.0,0.0,0.0,0.0,0.0,0.0,0.0,0.0,0.0,0.0,0.0,0.0,0.0,0.2904,0.3039,0.3399,0.4009,0.4014,0.431,0.4905,0.4979,0.5112,0.0,0.0,0.0,0.0,0.0,0.0,0.0,0.0,0.0,0.0,0.0,0.0,0.0,0.0,0.0,0.0,0.0,0.0,0.0,0.0,0.0,0.0,0.0,0.0,0.0,0.0,0.0,0.0,0.0,0.0,0.0,0.0,0.0,0.0,0.0,0.0,0.0,0.0,0.0,0.0,0.0,0.3245,0.3311,0.3434,0.3565,0.0,0.0,0.4016,0.4215,0.4581,0.4902,0.5106,0.0,0.0,0.0,0.0,0.0,0.0,0.0,0.0,0.0,0.0,0.0,0.0,0.0,0.0,0.0,0.0,0.0,0.0,0.0,0.0,0.0,0.0,0.0,0.0,0.0,0.0,0.0,0.0,0.0,0.0,0.0,0.0,0.0,0.0,0.0,0.0,0.0,0.0,0.0,0.0,0.0,0.0,0.0,0.0,0.0,0.0,0.0,0.0,0.0,0.0,0.0,0.0,0.0,0.2775,0.2904,0.297,0.3255,0.3849,0.3937,0.4195,0.4772,0.4901,0.5081,0.0,0.0,0.0,0.0,0.0,0.0,0.0,0.0,0.0,0.0,0.0,0.0,0.0,0.0,0.0,0.0,0.0,0.0,0.0,0.0,0.0,0.0,0.0,0.0,0.0,0.0,0.0,0.0,0.2138,0.207,0.1942,0.0,0.0,0.0,0.0,0.0,0.0,0.0,0.0,0.0,0.0,0.3052,0.3259,0.344,0.0,0.0,0.3935,0.4028,0.4113,0.4366,0.4616,0.4754,0.5011,0.0,0.0,0.0,0.0,0.0,0.0,0.0,0.0,0.0,0.0,0.0,0.0,0.0,0.0,0.0,0.0,0.0,0.0,0.0,0.0,0.0,0.0,0.0,0.0,0.0,0.0,0.0,0.0,0.0,0.0,0.0,0.0,0.0,0.0,0.0,0.0,0.0,0.0,0.0,0.0,0.0,0.0,0.0,0.0,0.0,0.0,0.0,0.0,0.0,0.0,0.0,0.0,0.2742,0.2874,0.2904,0.3131,0.3599,0.3742,0.4031,0.4479,0.4695,0.4909,0.0,0.0,0.0,0.0,0.0,0.0,0.0,0.0,0.0,0.0,0.0,0.0,0.0,0.0,0.0,0.0,0.0,0.0,0.0,0.0,0.0,0.0,0.0,0.0,0.0,0.0,0.0,0.0,0.207,0.196,0.1799,0.0,0.0,0.0,0.0,0.0,0.0,0.0,0.0,0.0,0.0,0.2872,0.3164,0.3365,0.3577,0.3762,0.3859,0.3956,0.4049,0.4207,0.4403,0.4592,0.0,0.0,0.0,0.0,0.0,0.0,0.0,0.0,0.0,0.0,0.0,0.0,0.0,0.0,0.0,0.0,0.0,0.0,0.0,0.0,0.0,0.0,0.0,0.0,0.0,0.0,0.0,0.0,0.0,0.0,0.183,0.0,0.0,0.0,0.0,0.0,0.0,0.0,0.0,0.0,0.0,0.0,0.0,0.0,0.0,0.0,0.0,0.0,0.0,0.0,0.0,0.0,0.0,0.2749,0.2819,0.2882,0.301,0.3228,0.3475,0.3742,0.4046,0.4339,0.4548,0.4623,0.0,0.0,0.0,0.0,0.0,0.0,0.0,0.0,0.0,0.0,0.0,0.0,0.0,0.0,0.0,0.0,0.0,0.0,0.0,0.0,0.0,0.0,0.0,0.0,0.0,0.0,0.2086,0.1942,0.1819,0.0,0.0,0.0,0.0,0.0,0.0,0.0,0.0,0.0,0.0,0.2517,0.2805,0.2986,0.3115,0.3301,0.3506,0.3517,0.3625,0.394,0.4042,0.419,0.0,0.0,0.0,0.0,0.0,0.0,0.0,0.0,0.0,0.0,0.0,0.0,0.0,0.0,0.0,0.0,0.0,0.0,0.0,0.0,0.0,0.0,0.0,0.0,0.0,0.0,0.0,0.1846,0.1917,0.0,0.0,0.0,0.0,0.0,0.0,0.0,0.0,0.0,0.0,0.0,0.2501,0.2501,0.0,0.0,0.0,0.0,0.0,0.0,0.0,0.0,0.0,0.0,0.0,0.0,0.2798,0.2923,0.3035,0.3227,0.3521,0.3695,0.3916,0.4187,0.4394,0.449,0.4459,0.0,0.0,0.0,0.0,0.0,0.0,0.0,0.0,0.0,0.0,0.0,0.0,0.0,0.0,0.0,0.0,0.0,0.0,0.0,0.0,0.0,0.0,0.0,0.0,0.0,0.2009,0.0,0.0,0.0,0.0,0.0,0.0,0.0,0.0,0.0,0.0,0.0,0.1845,0.2147,0.2324,0.2561,0.2947,0.3092,0.3293,0.0,0.0,0.0,0.0,0.0,0.0,0.0,0.0,0.0,0.0,0.0,0.0,0.0,0.0,0.744,0.7928,0.8408,0.8847,0.9227,0.0,0.0,0.0,0.0,0.0,0.0,0.0,0.0,0.0,0.0,0.0,0.0,0.0,0.0,0.2058,0.0,0.2226,0.0,0.0,0.0,0.0,0.0,0.0,0.0,0.0,0.2689,0.2696,0.2755,0.2737,0.2748,0.0,0.2794,0.2875,0.0,0.0,0.0,0.0,0.0,0.0,0.0,0.0,0.2915,0.3044,0.3199,0.3365,0.3575,0.3716,0.3912,0.4156,0.4291,0.4323,0.4289,0.4227,0.4086,0.0,0.0,0.0,0.0,0.0,0.0,0.0,0.0,0.0,0.0,0.0,0.0,0.0,0.0,0.0,0.0,0.0,0.0,0.0,0.0,0.0,0.0,0.0,0.1997,0.0,0.0,0.0,0.0,0.0,0.0,0.0,0.0,0.0,0.1512,0.1603,0.169,0.2004,0.2136,0.2395,0.2784,0.0,0.0,0.0,0.0,0.0,0.0,0.0,0.3818,0.3996,0.4217,0.4471,0.4792,0.524,0.559,0.5732,0.0,0.0,0.6987,0.7345,0.7607,0.7719,0.7731,0.7729,0.7771,0.7946,0.8264,0.0,0.0,0.0,0.0,0.0,0.0,0.0,0.0,0.2072,0.2113,0.0,0.2115,0.0,0.0,0.0,0.0,0.0,0.2656,0.0,0.0,0.2973,0.3072,0.3206,0.3175,0.3213,0.3202,0.2982,0.301,0.3205,0.3027,0.0,0.0,0.0,0.0,0.0,0.0,0.312,0.3088,0.3289,0.3412,0.342,0.3545,0.369,0.3894,0.4014,0.41,0.409,0.4054,0.3949,0.3822,0.3877,0.0,0.0,0.0,0.0,0.0,0.0,0.0,0.0,0.0,0.0,0.0,0.0,0.0,0.0,0.0,0.0,0.0,0.0,0.0,0.0,0.2133,0.0,0.0,0.0,0.0,0.0,0.0,0.0,0.0,0.0,0.0,0.1252,0.1445,0.1637,0.1859,0.0,0.0,0.0,0.0,0.2817,0.2973,0.3078,0.3262,0.353,0.3575,0.3711,0.4012,0.0,0.0,0.4999,0.5024,0.5034,0.5088,0.5061,0.5242,0.6019,0.6182,0.6174,0.586,0.5537,0.5162,0.4569,0.36,0.2911,0.3276,0.0,0.0,0.0,0.0,0.211,0.2173,0.2194,0.2244,0.2293,0.2386,0.2459,0.0,0.0,0.0,0.0,0.0,0.0,0.3058,0.31,0.3134,0.3175,0.3188,0.3207,0.3216,0.3213,0.3248,0.3314,0.3444,0.3331,0.3215,0.3124,0.0,0.0,0.0,0.0,0.3135,0.3236,0.3371,0.3547,0.374,0.3707,0.3759,0.3966,0.4054,0.4094,0.409,0.4023,0.3926,0.3822,0.3877,0.0,0.0,0.0,0.0,0.0,0.0,0.0,0.0,0.0,0.0,0.0,0.0,0.0,0.0,0.0,0.0,0.0,0.0,0.0,0.22,0.2135,0.2099,0.0,0.0,0.0,0.0,0.0,0.0,0.0,0.0,0.0,0.0999,0.1193,0.1367,0.0,0.0,0.1988,0.2222,0.2371,0.2468,0.263,0.0,0.0,0.0,0.3309,0.3534,0.3711,0.402,0.4308,0.4599,0.4707,0.4703,0.4735,0.461,0.4408,0.396,0.4239,0.4315,0.3752,0.2874,0.1798,0.0528,-0.0578,-0.1451,0.3909,0.3305,0.2806,0.2541,0.2419,0.2368,0.2387,0.2419,0.2473,0.2525,0.2523,0.2592,0.2626,0.2626,0.2895,0.0,0.0,0.0,0.3237,0.3267,0.3284,0.3316,0.3362,0.3362,0.3365,0.336,0.3365,0.3499,0.3598,0.3537,0.3433,0.3387,0.0,0.0,0.3303,0.3303,0.3344,0.3436,0.3528,0.3698,0.3917,0.3806,0.383,0.3845,0.3982,0.4023,0.3989,0.4031,0.3955,0.378,0.3814,0.3869,0.0,0.0,0.0,0.0,0.0,0.0,0.0,0.0,0.0,0.0,0.0,0.3138,0.0,0.0,0.0,0.0,0.2494,0.2333,0.2206,0.2225,0.0,0.0,0.0,0.0,0.0,0.0,0.0,0.1179,0.0988,0.0883,0.0862,0.0994,0.1173,0.1325,0.155,0.1724,0.1898,0.0,0.2239,0.2375,0.2462,0.2637,0.2865,0.309,0.3265,0.349,0.3711,0.3884,0.4144,0.4184,0.4176,0.4089,0.3814,0.3299,0.2402,0.2112,0.1828,0.1454,0.0224,-0.1381,-0.3209,-0.51,-0.6597,0.4366,0.4018,0.3297,0.2906,0.2779,0.2673,0.2613,0.2689,0.2691,0.2691,0.2685,0.2547,0.2566,0.2722,0.2892,0.0,0.3054,0.3147,0.3292,0.3417,0.34,0.3477,0.3583,0.3585,0.3585,0.358,0.3468,0.347,0.3623,0.3604,0.3689,0.382,0.3475,0.343,0.3605,0.3605,0.3598,0.3643,0.3663,0.3741,0.3902,0.3882,0.3802,0.3638,0.3868,0.3945,0.3853,0.3989,0.3992,0.3744,0.3773,0.3821,0.389,0.0,0.0,0.0,0.0,0.0,0.0,0.0,0.0,0.0,0.0,0.0,0.0,0.0,0.0,0.0,0.2603,0.0,0.2276,0.2406,0.0,0.0,0.0,0.2047,0.1911,0.1552,0.1287,0.1221,0.0,0.0,0.0785,0.0,0.0973,0.1139,0.1267,0.1435,0.1569,0.1792,0.1975,0.2109,0.2239,0.2417,0.2732,0.2868,0.3001,0.3309,0.335,0.3439,0.3609,0.3568,0.3476,0.3337,0.2804,0.2135,0.1246,0.0044,-0.1036,-0.1026,-0.2484,-0.4396,-0.6682,-0.9496,-1.1827,0.4919,0.4673,0.3938,0.3237,0.2715,0.266,0.2615,0.2577,0.2635,0.2691,0.2689,0.2666,0.2713,0.2881,0.2911,0.3063,0.3278,0.3333,0.3452,0.3583,0.3536,0.3558,0.3585,0.3585,0.3585,0.3583,0.3553,0.3594,0.3747,0.3732,0.3822,0.3916,0.3867,0.388,0.391,0.3799,0.3741,0.3784,0.3677,0.3648,0.3734,0.3858,0.3867,0.3844,0.3918,0.4019,0.402,0.4053,0.4057,0.3928,0.3843,0.385,0.3911,0.3835,0.0,0.0,0.0,0.0,0.0,0.0,0.0,0.0,0.0,0.3089,0.2992,0.0,0.2779,0.0,0.286,0.2746,0.2604,0.2531,0.0,0.0,0.2194,0.2014,0.1776,0.167,0.1501,0.1217,0.112,0.102,0.0911,0.0819,0.0752,0.0841,0.1025,0.121,0.1344,0.1479,0.1614,0.1749,0.2018,0.2243,0.2377,0.2598,0.2821,0.3001,0.3046,0.3043,0.3167,0.3037,0.286,0.2591,0.2012,0.1205,0.0178,-0.1242,-0.2802,-0.4186,-0.5515,-0.7219,-0.9891,-1.2745,-1.5104,0.5144,0.4897,0.4403,0.382,0.3201,0.2983,0.28,0.2691,0.2749,0.2749,0.2691,0.2691,0.2747,0.2805,0.286,0.3026,0.3302,0.336,0.3471,0.3585,0.3585,0.3585,0.3585,0.3585,0.3585,0.3585,0.3585,0.3638,0.3744,0.3836,0.3962,0.4015,0.4151,0.4216,0.4206,0.4002,0.386,0.3792,0.374,0.372,0.372,0.3874,0.3898,0.3814,0.3931,0.3983,0.4027,0.4005,0.4012,0.3951,0.3791,0.3751,0.3807,0.3821,0.3766,0.0,0.0,0.0,0.0,0.0,0.0,0.0,0.0,0.0,0.0,0.0,0.2807,0.2904,0.2932,0.2888,0.2721,0.2641,0.2552,0.2402,0.2264,0.209,0.1845,0.1861,0.1732,0.1395,0.1286,0.1176,0.097,0.0876,0.0764,0.0719,0.0853,0.0987,0.1121,0.1256,0.1389,0.1479,0.1794,0.2064,0.2241,0.2462,0.2637,0.2684,0.2684,0.264,0.2679,0.246,0.2194,0.1878,0.1297,0.0447,-0.0713,-0.2213,-0.3951,-0.6032,-0.7857,-0.982,-1.2107,-1.4633,-1.6765,0.5251,0.4945,0.4803,0.4354,0.3887,0.3439,0.3159,0.2916,0.2914,0.286,0.2747,0.2691,0.2691,0.2691,0.2805,0.297,0.3077,0.3246,0.3471,0.3585,0.3585,0.3585,0.3585,0.3585,0.3585,0.3585,0.3585,0.3585,0.3583,0.3858,0.4021,0.4021,0.4353,0.4463,0.4505,0.4206,0.3982,0.3795,0.3871,0.3853,0.375,0.39,0.3933,0.375,0.3912,0.3952,0.3937,0.3918,0.3949,0.3984,0.3804,0.3715,0.3745,0.3816,0.3716,0.0,0.3535,0.0,0.0,0.0,0.0,0.0,0.0,0.0,0.0,0.2961,0.2932,0.2839,0.293,0.2942,0.2762,0.2698,0.262,0.2435,0.2335,0.2226,0.2061,0.2078,0.1977,0.1662,0.1441,0.1271,0.1064,0.0967,0.0855,0.0764,0.0719,0.0764,0.0899,0.1077,0.1299,0.1344,0.1614,0.1882,0.2148,0.2326,0.237,0.237,0.2326,0.2235,0.2235,0.1971,0.1614,0.121,0.0582,-0.0357,-0.1515,-0.3049,-0.4886,-0.7113,-0.9583,-1.1812,-1.3617,-1.569,-1.7541,0.535,0.5276,0.4842,0.4652,0.4505,0.4297,0.3815,0.3077,0.3077,0.2968,0.286,0.2749,0.2691,0.2691,0.2691,0.2858,0.3132,0.3132,0.3302,0.3585,0.3585,0.3585,0.3585,0.3585,0.3585,0.3585,0.3585,0.3585,0.3585,0.3858,0.4021,0.4021,0.4353,0.4463,0.446,0.0,0.0,0.0,0.3871,0.3865,0.3872,0.3959,0.3955,0.3973,0.3985,0.0,0.4076,0.4113,0.4216,0.4354,0.431,0.0,0.0,0.0,0.0,0.0,0.0,0.0,0.0,0.0,0.0,0.0,0.3067,0.3088,0.3056,0.321,0.3201,0.301,0.3081,0.309,0.2888,0.2656,0.2555,0.256,0.2316,0.2147,0.2157,0.2181,0.2034,0.1701,0.1595,0.146,0.1239,0.1029,0.09,0.0855,0.0764,0.0719,0.0719,0.0987,0.1165,0.1165,0.1479,0.1703,0.1882,0.1927,0.1971,0.1928,0.1927,0.1837,0.1748,0.1567,0.1165,0.0672,-0.0089,-0.1071,-0.2355,-0.3963,-0.582,-0.8119,-1.0594,-1.2891,-1.4609,-1.653,-1.8148,0.5441,0.0,0.5169,0.4965,0.0,0.4712,0.4284,0.3632,0.3576,0.3374,0.3097,0.288,0.2805,0.2805,0.2805,0.2912,0.3132,0.319,0.336,0.3585,0.3585,0.3585,0.3585,0.3585,0.3585,0.3585,0.3585,0.3585,0.3641,0.3858,0.4021,0.4021,0.4353,0.4463,0.446,0.4392,0.4209,0.3907,0.3994,0.3965,0.3928,0.4062,0.4099,0.3996,0.0,0.0,0.0,0.0,0.0,0.0,0.0,0.0,0.0,0.0,0.0,0.3499,0.3319,0.3165,0.3015,0.3073,0.3141,0.3101,0.3256,0.3294,0.3154,0.324,0.3251,0.3129,0.3127,0.3072,0.2904,0.2737,0.2609,0.257,0.243,0.2292,0.2271,0.2238,0.2126,0.1826,0.1725,0.1614,0.1344,0.1211,0.1033,0.09,0.0855,0.0764,0.0719,0.0942,0.112,0.1299,0.1479,0.1658,0.1794,0.1794,0.1794,0.1794,0.1705,0.1569,0.1479,0.1121,0.0717,0.0089,-0.067,-0.1693,-0.3058,-0.4699,-0.6604,-0.8915,-1.1348,-1.37,-1.56,-1.7277,-1.8507,0.5488,0.5428,0.5428,0.5225,0.5051,0.4987,0.4725,0.4359,0.0,0.0,0.0,0.3115,0.3015,0.2941,0.2997,0.3042,0.3132,0.3357,0.3471,0.3585,0.3585,0.3585,0.3585,0.3585,0.3585,0.3585,0.3585,0.3585,0.3641,0.3858,0.4021,0.4021,0.4353,0.4519,0.4508,0.4402,0.4199,0.4072,0.4068,0.4046,0.3888,0.4144,0.4206,0.4039,0.4107,0.414,0.4141,0.4143,0.4197,0.4353,0.4259,0.4202,0.4179,0.3967,0.3774,0.3615,0.3394,0.3214,0.3039,0.3197,0.3323,0.328,0.3453,0.3486,0.3215,0.3246,0.3237,0.3163,0.3137,0.3086,0.2948,0.2778,0.2698,0.2646,0.2561,0.2433,0.2333,0.2273,0.2146,0.1884,0.1837,0.1705,0.1389,0.1344,0.121,0.1033,0.0944,0.0899,0.0854,0.0986,0.121,0.1479,0.1524,0.1614,0.1705,0.1705,0.1705,0.1658,0.1479,0.1299,0.112,0.0718,0.018,-0.0403,-0.1205,-0.2268,-0.3632,-0.5333,-0.7298,-0.9619,-1.2044,-1.44,-1.647,-1.7894,-1.8811,0.5491,0.555,0.5425,0.5481,0.5453,0.5394,0.5186,0.4941,0.4341,0.3928,0.3663,0.3472,0.3356,0.327,0.327,0.3275,0.336,0.3416,0.3471,0.0,0.3585,0.3585,0.3585,0.3585,0.3585,0.3585,0.3585,0.3585,0.3638,0.3858,0.4021,0.4021,0.4353,0.4574,0.4688,0.4666,0.4563,0.4321,0.4109,0.3954,0.3888,0.4064,0.4183,0.4224,0.4169,0.4132,0.4267,0.4295,0.4353,0.4549,0.4652,0.4655,0.4537,0.4359,0.4152,0.3809,0.3614,0.3492,0.3419,0.3462,0.3481,0.3554,0.3511,0.3426,0.322,0.3362,0.3371,0.3146,0.3136,0.3149,0.2979,0.2856,0.2832,0.2899,0.2578,0.2338,0.2466,0.2317,0.2154,0.1975,0.1884,0.1749,0.1569,0.1389,0.1299,0.1254,0.112,0.1075,0.1166,0.1165,0.121,0.1389,0.1435,0.1435,0.1479,0.1389,0.1389,0.1344,0.1165,0.0941,0.0718,0.0359,-0.0179,-0.0851,-0.1739,-0.2843,-0.42,-0.5975,-0.8022,-1.0236,-1.2606,-1.4894,-1.6931,-1.8273,-1.9115,0.555,0.5617,0.5624,0.569,0.5752,0.5484,0.5286,0.5077,0.4758,0.4408,0.4031,0.3781,0.3539,0.3488,0.3433,0.3442,0.3447,0.35,0.353,0.3585,0.3585,0.3585,0.3585,0.3585,0.3638,0.3688,0.3688,0.3747,0.386,0.4024,0.4135,0.4135,0.4467,0.4632,0.4691,0.4794,0.4691,0.442,0.4342,0.4232,0.4028,0.4148,0.4238,0.4304,0.4152,0.4113,0.4236,0.4215,0.4285,0.4441,0.4543,0.4625,0.4568,0.4353,0.4135,0.3918,0.3722,0.3564,0.3521,0.3588,0.3687,0.3754,0.3743,0.3638,0.3488,0.3475,0.3411,0.3235,0.322,0.3187,0.3164,0.3004,0.2917,0.2974,0.2652,0.2452,0.2448,0.233,0.2156,0.202,0.1884,0.1749,0.1614,0.1479,0.1344,0.1299,0.1165,0.1165,0.1299,0.1254,0.1254,0.1389,0.1389,0.1344,0.1344,0.1254,0.121,0.1165,0.0941,0.0718,0.045,0.009,-0.0538,-0.1254,-0.2186,-0.3369,-0.4717,-0.6552,-0.8613,-1.0788,-1.3116,-1.5354,-1.7232,-1.8494,-1.8912,0.5649,0.5686,0.5822,0.5892,0.5892,0.555,0.5348,0.5219,0.5084,0.4832,0.454,0.4116,0.3874,0.3779,0.3698,0.3636,0.3576,0.3667,0.3666,0.3641,0.3694,0.3694,0.3694,0.3691,0.3747,0.3852,0.3852,0.3907,0.4021,0.4135,0.4249,0.4356,0.4632,0.4739,0.4798,0.4904,0.4866,0.4638,0.4687,0.4546,0.4128,0.4192,0.4254,0.4365,0.4182,0.4127,0.4338,0.4187,0.4207,0.4361,0.4421,0.449,0.4479,0.4298,0.4124,0.4088,0.3887,0.3727,0.3635,0.3753,0.3858,0.3945,0.3932,0.3884,0.3783,0.3686,0.3517,0.3368,0.3328,0.3324,0.3289,0.3153,0.3068,0.3031,0.2764,0.2544,0.246,0.2328,0.2196,0.2064,0.193,0.1794,0.1658,0.1524,0.1435,0.1344,0.1254,0.121,0.1299,0.1344,0.1344,0.1344,0.1344,0.1299,0.1254,0.1166,0.1076,0.1031,0.0763,0.0494,0.018,-0.0269,-0.085,-0.1611,-0.2586,-0.3763,-0.5187,-0.701,-0.9067,-1.1306,-1.3592,-1.5821,-1.7927,-1.8698,-1.8763,0.5823,0.5833,0.5896,0.5892,0.5888,0.5686,0.555,0.5481,0.5223,0.508,0.4995,0.4662,0.4324,0.4107,0.4022,0.396,0.3773,0.392,0.3912,0.3808,0.391,0.3968,0.3968,0.3965,0.3965,0.3965,0.3965,0.4021,0.4021,0.4135,0.4356,0.4636,0.4791,0.4956,0.5069,0.5187,0.5259,0.522,0.5153,0.4788,0.4135,0.4108,0.4272,0.4548,0.4365,0.4428,0.4699,0.4377,0.4302,0.453,0.4405,0.4388,0.4458,0.443,0.4349,0.4343,0.4284,0.4183,0.4029,0.3943,0.3988,0.4127,0.4082,0.3984,0.3989,0.3956,0.3805,0.3517,0.3548,0.3534,0.3331,0.3245,0.3181,0.3134,0.2849,0.2637,0.2504,0.2368,0.2281,0.2201,0.2064,0.193,0.1794,0.162,0.153,0.1408,0.1366,0.1364,0.1364,0.1408,0.1362,0.1353,0.1303,0.1257,0.1121,0.0987,0.0899,0.0763,0.0449,0.0135,-0.0225,-0.0672,-0.1252,-0.1967,-0.2937,-0.4113,-0.5647,-0.7423,-0.9513,-1.1792,-1.4067,-1.639,-1.8561,-1.9196,-1.8715,0.6113,0.6041,0.6304,0.6238,0.6086,0.6013,0.5885,0.5752,0.5484,0.5352,0.5223,0.502,0.4794,0.4546,0.4408,0.437,0.4268,0.418,0.4082,0.4023,0.4005,0.4021,0.4021,0.4021,0.4021,0.4135,0.4242,0.4353,0.4411,0.4574,0.4684,0.4846,0.5014,0.5183,0.5242,0.5466,0.5537,0.5449,0.5266,0.4987,0.4642,0.4466,0.4495,0.4691,0.4526,0.4505,0.4681,0.4495,0.4451,0.4509,0.4387,0.4332,0.4372,0.4235,0.4156,0.4151,0.4156,0.4148,0.4157,0.4122,0.4147,0.4298,0.4271,0.4243,0.4152,0.4178,0.4016,0.3746,0.3697,0.3628,0.3473,0.3318,0.3214,0.317,0.2904,0.264,0.2504,0.2368,0.2281,0.2201,0.2064,0.1975,0.1801,0.1649,0.1547,0.153,0.154,0.1488,0.1492,0.1541,0.1445,0.13,0.1251,0.1177,0.1004,0.0809,0.0675,0.054,0.0315,-0.0045,-0.0405,-0.0897,-0.1477,-0.2237,-0.329,-0.45,-0.5956,-0.7802,-0.9849,-1.2298,-1.5335,-1.7859,-1.9244,-1.9204,-1.8562,0.635,0.6278,0.6571,0.6511,0.6284,0.6214,0.6148,0.5954,0.5752,0.562,0.5561,0.5355,0.5226,0.5077,0.4789,0.4662,0.4601,0.4424,0.4355,0.4345,0.4295,0.4284,0.4245,0.4242,0.4301,0.4411,0.4519,0.4629,0.4743,0.4959,0.5014,0.5069,0.5297,0.5462,0.5462,0.574,0.5774,0.5624,0.5493,0.5296,0.5094,0.4893,0.4807,0.4797,0.4664,0.4628,0.4749,0.4625,0.4592,0.4582,0.4428,0.4351,0.4387,0.4232,0.4141,0.4175,0.4136,0.4177,0.4264,0.4279,0.4335,0.4457,0.4485,0.4452,0.4413,0.4374,0.4265,0.3974,0.3816,0.3723,0.3595,0.335,0.3214,0.317,0.2904,0.2684,0.2504,0.2413,0.2328,0.2199,0.2111,0.1984,0.1877,0.1701,0.1614,0.1598,0.161,0.1565,0.1565,0.156,0.151,0.1262,0.1209,0.1135,0.0892,0.0692,0.055,0.041,0.0182,-0.018,-0.0494,-0.1076,-0.1744,-0.2544,-0.3642,-0.4928,-0.6403,-0.8198,-1.0682,-1.3468,-1.6336,-1.8703,-1.9402,-1.9138,-1.8392,0.6518,0.6425,0.6622,0.6591,0.6424,0.6284,0.6214,0.6148,0.5954,0.5892,0.5892,0.5822,0.5822,0.576,0.5143,0.4751,0.4638,0.4795,0.4829,0.4721,0.48,0.483,0.4849,0.4846,0.4846,0.4791,0.4846,0.4897,0.4901,0.5183,0.5301,0.5301,0.5572,0.574,0.5791,0.5896,0.5996,0.6,0.5872,0.5742,0.5594,0.5382,0.5119,0.4882,0.4787,0.4822,0.4938,0.4804,0.4695,0.4776,0.4607,0.4527,0.4565,0.4588,0.4563,0.453,0.4493,0.4465,0.4484,0.4418,0.448,0.4657,0.4695,0.4652,0.4552,0.4574,0.4418,0.4108,0.3953,0.3822,0.3615,0.335,0.3214,0.317,0.2998,0.2773,0.2549,0.2504,0.2417,0.2252,0.2174,0.2079,0.1947,0.1821,0.1763,0.1676,0.1623,0.1627,0.1634,0.1627,0.1477,0.1324,0.122,0.1109,0.0851,0.0632,0.0525,0.0379,0.0046,-0.0361,-0.0808,-0.1343,-0.2057,-0.2851,-0.3902,-0.5182,-0.6809,-0.9156,-1.2049,-1.4683,-1.7027,-1.8884,-1.9453,-1.9111,-1.8324,0.6832,0.688,0.6748,0.6656,0.6587,0.6402,0.6354,0.6284,0.6148,0.6083,0.6086,0.5954,0.5892,0.5892,0.5624,0.5463,0.547,0.5439,0.5337,0.5135,0.5093,0.5008,0.4912,0.4901,0.4901,0.4901,0.4959,0.512,0.5344,0.5517,0.5626,0.5626,0.5845,0.5896,0.595,0.6114,0.6273,0.6303,0.622,0.613,0.6026,0.561,0.5346,0.5229,0.5051,0.4937,0.4985,0.4909,0.4919,0.4914,0.4745,0.463,0.466,0.4543,0.4476,0.4476,0.4476,0.4495,0.4606,0.4595,0.469,0.4843,0.4872,0.48,0.4648,0.4618,0.4447,0.4148,0.3972,0.384,0.366,0.3391,0.3214,0.317,0.304,0.2821,0.264,0.2549,0.2485,0.2414,0.2282,0.216,0.2123,0.2123,0.2001,0.188,0.1834,0.1779,0.1729,0.173,0.1617,0.1459,0.1352,0.119,0.1028,0.0667,0.0395,0.0196,-0.0096,-0.0518,-0.0979,-0.1542,-0.2207,-0.3096,-0.41,-0.5679,-0.7402,-1.0485,-1.3373,-1.5711,-1.8048,-1.8996,-1.9467,-1.9052,-1.8128,0.6999,0.7126,0.6968,0.6802,0.6684,0.6558,0.6469,0.6428,0.6284,0.6284,0.6218,0.6086,0.609,0.6086,0.6024,0.602,0.6013,0.5898,0.5698,0.5536,0.5366,0.5254,0.5162,0.5089,0.5066,0.5179,0.5293,0.5458,0.5681,0.5791,0.5845,0.59,0.6055,0.6109,0.6109,0.6381,0.6539,0.6553,0.6496,0.64,0.6242,0.5868,0.5597,0.5462,0.5232,0.5029,0.5029,0.4985,0.4985,0.4966,0.489,0.4809,0.4795,0.4681,0.4604,0.4604,0.4569,0.4661,0.4785,0.4768,0.4871,0.4966,0.4985,0.4893,0.4705,0.4613,0.4491,0.428,0.4016,0.388,0.3748,0.348,0.3258,0.3214,0.304,0.2865,0.2687,0.2585,0.2511,0.2461,0.2403,0.2326,0.2278,0.2307,0.2237,0.2068,0.2015,0.1961,0.1906,0.1796,0.1741,0.1628,0.1397,0.1227,0.1055,0.0697,0.0414,0.0205,-0.0199,-0.0635,-0.1201,-0.1771,-0.2506,-0.3353,-0.4675,-0.6277,-0.869,-1.1779,-1.4327,-1.6653,-1.8111,-1.9168,-1.9175,-1.8934,-1.7931,0.7003,0.717,0.722,0.7005,0.6737,0.6672,0.657,0.6436,0.642,0.6354,0.6354,0.6354,0.6354,0.6354,0.6354,0.6354,0.6284,0.6063,0.5971,0.5864,0.5712,0.5719,0.5706,0.5489,0.5466,0.5681,0.5795,0.5791,0.5791,0.5955,0.6005,0.6059,0.6277,0.6386,0.6381,0.6598,0.6701,0.6696,0.673,0.6589,0.6329,0.6117,0.5866,0.5577,0.5351,0.514,0.5048,0.4994,0.4985,0.4985,0.4975,0.498,0.4957,0.4938,0.4961,0.4976,0.5,0.4966,0.4966,0.4966,0.4952,0.4985,0.4985,0.4937,0.4797,0.4661,0.4574,0.4456,0.4148,0.388,0.3836,0.3615,0.335,0.3214,0.3078,0.2904,0.276,0.2655,0.256,0.2461,0.2497,0.2495,0.2412,0.2405,0.2397,0.2237,0.2128,0.2015,0.1961,0.1906,0.174,0.1628,0.1459,0.1234,0.101,0.0727,0.0438,0.0161,-0.031,-0.0806,-0.1397,-0.2001,-0.2858,-0.3815,-0.5556,-0.7237,-0.9781,-1.2725,-1.4857,-1.6925,-1.8174,-1.9226,-1.9156,-1.8832,-1.7772,0.7065,0.7391,0.7273,0.709,0.6867,0.6741,0.6587,0.6428,0.642,0.642,0.642,0.642,0.642,0.642,0.642,0.642,0.642,0.6412,0.6383,0.6232,0.6154,0.6082,0.6,0.5892,0.5862,0.5868,0.59,0.595,0.5955,0.6059,0.6173,0.6277,0.6327,0.6495,0.6652,0.6766,0.6874,0.6977,0.6977,0.6934,0.6797,0.654,0.6278,0.6042,0.5617,0.5334,0.5188,0.5061,0.499,0.4985,0.4985,0.4985,0.4985,0.4985,0.4985,0.4985,0.4985,0.4985,0.4985,0.4985,0.4985,0.4985,0.4985,0.4937,0.4801,0.4705,0.4578,0.4499,0.4196,0.402,0.388,0.3744,0.353,0.3214,0.3078,0.2993,0.2913,0.2872,0.278,0.2617,0.2593,0.2642,0.2593,0.2629,0.2575,0.2465,0.2352,0.2296,0.2071,0.1959,0.1906,0.174,0.1514,0.129,0.1122,0.0785,0.0389,0.0055,-0.0374,-0.0942,-0.1555,-0.2286,-0.318,-0.4712,-0.6433,-0.8559,-1.1131,-1.3385,-1.5536,-1.7173,-1.8512,-1.9075,-1.9265,-1.8646,-1.7636,0.7176,0.7472,0.7366,0.722,0.7041,0.6867,0.6688,0.6518,0.6444,0.642,0.642,0.642,0.642,0.642,0.642,0.642,0.6416,0.6609,0.6677,0.657,0.6552,0.6419,0.6299,0.619,0.609,0.6041,0.6064,0.6059,0.6059,0.6228,0.6332,0.6386,0.6549,0.6657,0.682,0.6928,0.7036,0.7085,0.7085,0.7133,0.7036,0.6801,0.6581,0.6375,0.5926,0.5622,0.5385,0.521,0.5065,0.5004,0.4985,0.4985,0.4985,0.4985,0.4985,0.4985,0.4985,0.4985,0.4985,0.4985,0.4985,0.4985,0.4985,0.4985,0.4888,0.4753,0.4666,0.4495,0.4324,0.4104,0.3932,0.3853,0.3646,0.3384,0.3251,0.3143,0.3107,0.3002,0.2941,0.2765,0.2711,0.2685,0.2691,0.2691,0.2691,0.2579,0.2521,0.2465,0.224,0.2071,0.1961,0.1794,0.1514,0.1346,0.129,0.0841,0.0336,-0.0056,-0.044,-0.1089,-0.1729,-0.2517,-0.3374,-0.5692,-0.7582,-0.9811,-1.2294,-1.4195,-1.6175,-1.7519,-1.896,-1.9132,-1.9264,-1.8545,-1.7552,0.7334,0.7484,0.748,0.737,0.7196,0.7013,0.6896,0.6656,0.6493,0.642,0.642,0.642,0.642,0.642,0.642,0.642,0.642,0.6613,0.6806,0.6815,0.683,0.675,0.6561,0.636,0.6243,0.6187,0.6173,0.6232,0.6228,0.6327,0.644,0.649,0.6712,0.6879,0.6928,0.7031,0.7085,0.7085,0.7133,0.7133,0.7074,0.6891,0.6721,0.6607,0.6237,0.5891,0.5604,0.5353,0.5179,0.5018,0.4985,0.4985,0.4985,0.4985,0.4985,0.4985,0.4985,0.4985,0.4985,0.4985,0.4985,0.4985,0.4985,0.4985,0.4985,0.4845,0.4709,0.4578,0.4424,0.422,0.4029,0.4,0.3896,0.3636,0.3468,0.3326,0.3247,0.3144,0.304,0.2941,0.2802,0.2691,0.2691,0.2691,0.2691,0.2691,0.2579,0.2521,0.241,0.224,0.2071,0.1847,0.1569,0.1402,0.129,0.0841,0.0336,-0.0056,-0.0556,-0.122,-0.2156,-0.3069,-0.4282,-0.6586,-0.8767,-1.1018,-1.319,-1.5086,-1.7013,-1.8743,-1.9465,-1.9454,-1.9283,-1.8907,-1.7854,0.7334,0.748,0.748,0.7387,0.7212,0.7033,0.6921,0.6664,0.6493,0.642,0.642,0.642,0.642,0.642,0.642,0.642,0.6486,0.6683,0.6876,0.6937,0.7158,0.698,0.668,0.6462,0.6309,0.6196,0.6232,0.6282,0.6332,0.6386,0.6549,0.6766,0.6874,0.6928,0.7031,0.7085,0.7079,0.7133,0.7133,0.7133,0.7074,0.7026,0.6945,0.6818,0.6561,0.6263,0.5917,0.5496,0.5238,0.5009,0.4985,0.4985,0.4985,0.4985,0.4985,0.4985,0.4985,0.4985,0.4985,0.4985,0.4985,0.4985,0.4985,0.4985,0.4985,0.4893,0.4753,0.4644,0.4553,0.4509,0.4311,0.43,0.414,0.3904,0.3706,0.3482,0.3398,0.332,0.3219,0.3074,0.2912,0.2858,0.2805,0.2802,0.2691,0.2691,0.2691,0.2635,0.2521,0.2465,0.224,0.1961,0.1737,0.1514,0.1234,0.0729,0.0336,-0.0056,-0.0615,-0.1396,-0.2613,-0.3957,-0.5593,-0.7654,-0.9581,-1.1752,-1.3924,-1.5957,-1.7904,-1.9847,-2.0587,-2.0858,-2.0603,-2.0209,-1.8704,0.7411,0.748,0.748,0.7427,0.7305,0.7058,0.6891,0.6757,0.6526,0.642,0.642,0.642,0.642,0.642,0.642,0.642,0.6482,0.6749,0.6881,0.6942,0.7326,0.7225,0.6884,0.6634,0.6426,0.6251,0.6228,0.6337,0.6436,0.6549,0.6717,0.6879,0.6982,0.7036,0.7085,0.7133,0.7133,0.7133,0.7133,0.7133,0.7133,0.7133,0.7085,0.6961,0.6781,0.654,0.6098,0.5692,0.5385,0.5105,0.4985,0.4985,0.4985,0.4985,0.4985,0.4985,0.4985,0.4985,0.4985,0.4985,0.4985,0.4985,0.4985,0.4985,0.4985,0.4941,0.4863,0.4803,0.4809,0.4756,0.4622,0.4519,0.4374,0.4297,0.4019,0.3749,0.3582,0.3539,0.3408,0.3246,0.3079,0.297,0.297,0.2912,0.2856,0.2854,0.2858,0.2747,0.2691,0.2579,0.241,0.2128,0.185,0.1628,0.129,0.0841,0.0224,-0.0112,-0.1064,-0.1792,-0.3063,-0.4659,-0.6308,-0.8159,-1.0287,-1.2428,-1.4661,-1.6809,-1.8796,-2.0433,-2.1503,-2.1889,-2.1505,-2.0912,-1.9437,0.7561,0.7561,0.7561,0.7557,0.7495,0.7179,0.7086,0.6954,0.6638,0.6486,0.6486,0.6482,0.6482,0.6416,0.6482,0.6416,0.6482,0.6815,0.6946,0.7073,0.7307,0.7326,0.7062,0.671,0.6469,0.6265,0.6332,0.6436,0.649,0.6766,0.6879,0.6982,0.7031,0.7085,0.7133,0.7133,0.7133,0.7133,0.7139,0.7139,0.7139,0.7139,0.7139,0.7085,0.6912,0.6675,0.6292,0.5962,0.561,0.5119,0.5076,0.5023,0.5009,0.4985,0.4985,0.4985,0.4985,0.4985,0.4985,0.4985,0.4985,0.4985,0.4985,0.5004,0.5027,0.5051,0.5037,0.5125,0.5063,0.5017,0.4923,0.4713,0.4623,0.4631,0.4398,0.4132,0.391,0.3747,0.358,0.3469,0.3244,0.3132,0.3132,0.3132,0.3077,0.2965,0.2968,0.2912,0.2802,0.2691,0.2465,0.2184,0.1962,0.1684,0.1346,0.0954,0.0336,-0.028,-0.1512,-0.2462,-0.3674,-0.5148,-0.6704,-0.854,-1.0648,-1.3011,-1.5504,-1.7605,-1.9661,-2.1295,-2.2555,-2.2376,-2.1909,-2.1189,-2.0044,0.7949,0.7949,0.7949,0.7949,0.7888,0.7552,0.7384,0.7349,0.6983,0.6762,0.6749,0.6679,0.6675,0.6609,0.6609,0.6613,0.6679,0.6942,0.7204,0.7396,0.7461,0.7397,0.7145,0.6865,0.6524,0.6327,0.6337,0.649,0.6652,0.682,0.6928,0.7036,0.7085,0.7133,0.7133,0.7133,0.7133,0.7139,0.7198,0.7252,0.7257,0.7252,0.7252,0.7203,0.7041,0.6759,0.6525,0.6273,0.6017,0.5692,0.5409,0.5238,0.5046,0.5004,0.4999,0.4985,0.4985,0.4985,0.4985,0.4985,0.499,0.5009,0.5018,0.5056,0.5212,0.5221,0.5274,0.5365,0.5431,0.5413,0.5218,0.5089,0.4914,0.4838,0.4684,0.4522,0.4353,0.4021,0.3796,0.3685,0.3522,0.3357,0.3357,0.3188,0.3188,0.3132,0.3077,0.3023,0.2914,0.286,0.2579,0.2296,0.2073,0.1794,0.129,0.0841,0.0112,-0.056,-0.1737,-0.291,-0.4122,-0.5425,-0.6929,-0.8826,-1.0971,-1.3432,-1.5877,-1.8467,-2.0541,-2.2057,-2.3381,-2.3222,-2.2797,-2.1843,-2.0467,0.8102,0.8102,0.8102,0.8102,0.8053,0.7785,0.761,0.7482,0.7214,0.7025,0.6889,0.6811,0.6806,0.6806,0.6806,0.6806,0.6876,0.7073,0.733,0.7461,0.7517,0.7412,0.7216,0.6946,0.6618,0.6388,0.648,0.6603,0.6707,0.6869,0.7031,0.7085,0.7133,0.7133,0.7133,0.7133,0.7139,0.7198,0.7257,0.7311,0.7365,0.7413,0.7365,0.7257,0.709,0.6908,0.676,0.6639,0.6359,0.6082,0.5878,0.5576,0.5229,0.5127,0.5089,0.4999,0.4985,0.4985,0.4985,0.499,0.5027,0.5122,0.5127,0.525,0.5377,0.5434,0.5538,0.5603,0.5649,0.5633,0.5433,0.5293,0.5128,0.5014,0.4904,0.4739,0.4625,0.4294,0.3965,0.391,0.3744,0.3691,0.3635,0.3463,0.3463,0.3463,0.3299,0.3246,0.3137,0.3026,0.2691,0.2465,0.224,0.1905,0.1346,0.0673,-0.0112,-0.0896,-0.1849,-0.3019,-0.4181,-0.5588,-0.6988,-0.9027,-1.1038,-1.3499,-1.594,-1.8619,-2.105,-2.2552,-2.3572,-2.3945,-2.3622,-2.2353,-2.0808,0.8255,0.8255,0.8255,0.8259,0.8223,0.8031,0.7834,0.7575,0.7453,0.7239,0.7034,0.6946,0.6946,0.6946,0.6942,0.6946,0.7007,0.7134,0.7396,0.7461,0.7526,0.7436,0.7201,0.6979,0.6771,0.6625,0.6663,0.6717,0.6761,0.6923,0.7085,0.7133,0.7133,0.7133,0.7133,0.7133,0.7139,0.7257,0.7311,0.7413,0.7521,0.7515,0.7467,0.7365,0.7252,0.7085,0.7004,0.6891,0.677,0.6442,0.6374,0.6047,0.5639,0.5381,0.5278,0.5148,0.5131,0.515,0.516,0.5136,0.5188,0.533,0.5335,0.5439,0.5594,0.5665,0.576,0.5831,0.5852,0.5739,0.5655,0.5513,0.5348,0.5183,0.5069,0.4956,0.4846,0.4522,0.4298,0.4132,0.3965,0.3858,0.3855,0.3796,0.3796,0.3796,0.3577,0.3413,0.336,0.3137,0.2856,0.2521,0.2296,0.1793,0.1234,0.0617,-0.0224,-0.1009,-0.1906,-0.3019,-0.4181,-0.5487,-0.6983,-0.8937,-1.1094,-1.3514,-1.6014,-1.8614,-2.0843,-2.2685,-2.3777,-2.4183,-2.3636,-2.2705,-2.1077,0.9094,0.9094,0.9094,0.9018,0.8836,0.8635,0.8346,0.8,0.7798,0.7592,0.7414,0.7204,0.7138,0.7138,0.7138,0.7204,0.733,0.7396,0.7461,0.7526,0.7526,0.7474,0.7397,0.7017,0.6892,0.6934,0.6819,0.6712,0.6761,0.6923,0.7085,0.7133,0.7133,0.7133,0.7133,0.7139,0.7192,0.7311,0.7419,0.7521,0.7622,0.7622,0.7568,0.7467,0.7413,0.7359,0.7257,0.7209,0.7079,0.6827,0.6822,0.656,0.6177,0.5893,0.5688,0.551,0.5486,0.5472,0.5429,0.5472,0.5509,0.5552,0.5552,0.5651,0.5798,0.5864,0.5954,0.6023,0.6044,0.5964,0.5941,0.5791,0.5622,0.5513,0.5348,0.5183,0.5069,0.4901,0.468,0.4463,0.4242,0.4076,0.4076,0.4076,0.3965,0.3907,0.3741,0.3633,0.3524,0.3302,0.2965,0.2687,0.241,0.1737,0.1066,0.0449,-0.0224,-0.1009,-0.1849,-0.285,-0.4067,-0.5328,-0.6972,-0.884,-1.1004,-1.3474,-1.6021,-1.8593,-2.0805,-2.2792,-2.3655,-2.4432,-2.3712,-2.2826,-2.1176,0.9397,0.9322,0.9322,0.9251,0.9135,0.8931,0.8712,0.8428,0.8142,0.7927,0.7705,0.7461,0.7396,0.74,0.7396,0.7391,0.7456,0.7526,0.7526,0.7526,0.7526,0.7526,0.7543,0.7163,0.7065,0.7081,0.6941,0.682,0.682,0.6977,0.7085,0.7133,0.7133,0.7133,0.7133,0.7139,0.7246,0.7359,0.7467,0.7574,0.7783,0.7729,0.7676,0.7622,0.7521,0.7467,0.7419,0.7419,0.7359,0.7246,0.7144,0.6977,0.6702,0.6483,0.6172,0.5913,0.5765,0.5712,0.5702,0.5658,0.5642,0.575,0.576,0.5864,0.601,0.6091,0.6065,0.6136,0.6173,0.6059,0.6,0.5955,0.5845,0.5736,0.5626,0.5517,0.5348,0.5234,0.5014,0.4794,0.4574,0.4411,0.4356,0.4301,0.4135,0.4021,0.3907,0.3799,0.3688,0.3411,0.3077,0.2687,0.2352,0.1738,0.1066,0.0449,-0.0112,-0.0897,-0.1736,-0.2683,-0.3843,-0.5105,-0.6768,-0.8561,-1.0937,-1.3227,-1.5819,-1.8361,-2.0588,-2.273,-2.3679,-2.4255,-2.3774,-2.2815,-2.1217,0.9695,0.9544,0.9549,0.9473,0.9362,0.9227,0.8929,0.8644,0.8353,0.8127,0.8007,0.7792,0.7661,0.7727,0.7661,0.7591,0.7587,0.7591,0.7657,0.7657,0.7657,0.7661,0.7609,0.7397,0.7195,0.7254,0.6987,0.6885,0.6879,0.7031,0.7085,0.7133,0.7133,0.7133,0.7133,0.7133,0.7246,0.7408,0.7521,0.7628,0.7788,0.7788,0.7729,0.7729,0.7628,0.7574,0.7574,0.7568,0.7521,0.7467,0.7365,0.7252,0.7139,0.7036,0.6755,0.6344,0.6072,0.6022,0.5987,0.5951,0.5952,0.601,0.6025,0.6072,0.6152,0.614,0.6164,0.6173,0.6173,0.6173,0.6059,0.6059,0.5955,0.59,0.5845,0.5791,0.5626,0.5513,0.5348,0.5183,0.4963,0.4743,0.4632,0.4522,0.4411,0.4245,0.4132,0.3965,0.3799,0.3524,0.319,0.2742,0.224,0.1682,0.1122,0.0561,0.0,-0.0617,-0.1512,-0.246,-0.3619,-0.4886,-0.6543,-0.8199,-1.0362,-1.2711,-1.5405,-1.8055,-2.0397,-2.2335,-2.3616,-2.4158,-2.389,-2.2996,-2.1555,1.0368,1.0363,1.0363,1.0143,0.9809,0.959,0.9216,0.8709,0.8407,0.8133,0.8052,0.8057,0.8057,0.7987,0.7917,0.7917,0.7917,0.7917,0.7852,0.7852,0.7852,0.7922,0.7852,0.7461,0.741,0.7421,0.7099,0.6911,0.6933,0.7031,0.7079,0.7133,0.7133,0.7133,0.7133,0.7139,0.7246,0.7467,0.7521,0.7628,0.7848,0.7901,0.7848,0.7848,0.7848,0.7794,0.7676,0.767,0.7622,0.7521,0.7521,0.7467,0.7467,0.7306,0.7252,0.7079,0.6844,0.6567,0.6531,0.6448,0.6395,0.6343,0.6313,0.6253,0.6273,0.6282,0.6282,0.6173,0.6228,0.6228,0.6228,0.6173,0.6123,0.6064,0.6005,0.5955,0.5791,0.5732,0.5622,0.5458,0.5238,0.4963,0.4798,0.4688,0.4577,0.4467,0.4301,0.4135,0.3855,0.358,0.3193,0.2745,0.2296,0.1738,0.1234,0.0673,0.0112,-0.0449,-0.1287,-0.2237,-0.3345,-0.4611,-0.6072,-0.7864,-0.9941,-1.2272,-1.4955,-1.7586,-2.0118,-2.201,-2.3442,-2.3996,-2.4181,-2.3056,-2.179,1.0887,1.0513,1.0513,1.0443,1.0168,0.9824,0.9608,0.9302,0.8818,0.8597,0.8517,0.8382,0.8257,0.8052,0.7982,0.7982,0.7982,0.8047,0.7982,0.8047,0.8047,0.8047,0.8004,0.7675,0.7509,0.7507,0.7253,0.7052,0.7036,0.7085,0.7133,0.7133,0.7133,0.7133,0.7139,0.7198,0.7306,0.7521,0.7628,0.7794,0.7901,0.7901,0.7901,0.7901,0.7901,0.7848,0.7842,0.7788,0.7788,0.7681,0.7676,0.7622,0.7574,0.7521,0.7413,0.7413,0.7192,0.6966,0.6804,0.6761,0.6652,0.6598,0.6544,0.6534,0.649,0.6495,0.6495,0.6495,0.6495,0.6495,0.6495,0.6495,0.6381,0.6273,0.6218,0.6055,0.6005,0.5896,0.5841,0.5677,0.5513,0.5238,0.4963,0.4798,0.4688,0.4577,0.4356,0.4135,0.3855,0.3466,0.3135,0.2691,0.2298,0.1849,0.1346,0.0841,0.028,-0.0336,-0.1175,-0.2124,-0.3072,-0.4336,-0.5801,-0.7446,-0.9504,-1.1927,-1.4573,-1.7174,-1.9751,-2.1593,-2.3333,-2.3796,-2.4125,-2.3284,-2.1669,1.1335,1.0812,1.0738,1.0708,1.053,1.0036,0.9817,0.9708,0.9222,0.8958,0.8888,0.8705,0.8447,0.8312,0.8306,0.8306,0.8247,0.8247,0.8247,0.8242,0.8242,0.8371,0.8292,0.7992,0.7801,0.7849,0.7372,0.7166,0.7085,0.7133,0.7133,0.7133,0.7133,0.7139,0.7192,0.7252,0.7365,0.7568,0.7788,0.7848,0.7901,0.7901,0.7901,0.7901,0.7901,0.7901,0.7901,0.7901,0.7901,0.7848,0.7788,0.7735,0.7735,0.7628,0.7568,0.7521,0.7359,0.7257,0.7036,0.6923,0.6815,0.6761,0.6707,0.6647,0.6707,0.6707,0.6707,0.6652,0.6652,0.6707,0.6707,0.6707,0.6593,0.649,0.6436,0.6273,0.6168,0.6114,0.6005,0.5841,0.5677,0.5513,0.5238,0.4967,0.4798,0.4688,0.4467,0.419,0.3858,0.3524,0.319,0.28,0.2465,0.2073,0.157,0.1066,0.0505,-0.0168,-0.1008,-0.1845,-0.2738,-0.3953,-0.5316,-0.7164,-0.8996,-1.1193,-1.3634,-1.6466,-1.9299,-2.1225,-2.2932,-2.3779,-2.3936,-2.313,-2.1473,1.1632,1.1632,1.1397,1.1034,1.0665,1.0249,0.9851,0.9585,0.929,0.9157,0.9017,0.8952,0.8952,0.8888,0.8823,0.8829,0.8894,0.8952,0.8823,0.8823,0.8888,0.8823,0.8661,0.8393,0.8151,0.796,0.755,0.7214,0.7139,0.7187,0.7133,0.7133,0.7139,0.7198,0.7252,0.7365,0.7473,0.7676,0.7842,0.7901,0.7901,0.7901,0.7901,0.7901,0.7901,0.7901,0.7901,0.7901,0.7955,0.7955,0.7955,0.7949,0.7949,0.7783,0.7729,0.7729,0.7568,0.7413,0.7252,0.7144,0.6982,0.6874,0.682,0.6761,0.6761,0.6701,0.6701,0.6761,0.6815,0.6761,0.6761,0.6707,0.6756,0.6652,0.6603,0.6549,0.6386,0.6332,0.6223,0.6005,0.5841,0.5622,0.5454,0.5128,0.4908,0.4743,0.4467,0.4245,0.4027,0.3635,0.3357,0.3023,0.2687,0.2298,0.1852,0.1346,0.0785,0.0168,-0.0616,-0.1399,-0.2183,-0.3506,-0.4882,-0.6543,-0.8371,-1.0515,-1.2768,-1.5603,-1.8366,-2.081,-2.2536,-2.3546,-2.3471,-2.2592,-2.0705,1.1821,1.1808,1.141,1.1165,1.1047,1.0542,1.0166,0.9971,0.9786,0.9536,0.9332,0.9262,0.9204,0.9081,0.9022,0.9022,0.9022,0.9022,0.9022,0.9022,0.9022,0.9022,0.8845,0.8583,0.8215,0.8113,0.7678,0.7413,0.7354,0.73,0.7354,0.7359,0.7306,0.7306,0.7413,0.7521,0.7628,0.7794,0.7848,0.7901,0.7901,0.7901,0.7901,0.7901,0.7901,0.7955,0.8062,0.8062,0.8109,0.8156,0.8215,0.8215,0.8162,0.8049,0.7996,0.7943,0.7783,0.7622,0.7521,0.7359,0.7144,0.7031,0.6977,0.6923,0.6923,0.6918,0.6972,0.6977,0.6923,0.6918,0.6923,0.6977,0.6923,0.6874,0.6766,0.6712,0.6603,0.6495,0.6386,0.6168,0.595,0.5732,0.5513,0.5289,0.5069,0.4849,0.4522,0.4245,0.4024,0.3805,0.3524,0.3188,0.2854,0.2519,0.2132,0.157,0.1066,0.0449,-0.0168,-0.1008,-0.1846,-0.3014,-0.4385,-0.6,-0.7706,-0.9773,-1.2149,-1.4833,-1.7497,-2.0213,-2.2104,-2.3493,-2.2993,-2.2188,-2.0277,1.1737,1.1703,1.1279,1.1073,1.1051,1.0625,1.035,1.0242,1.0072,0.9856,0.9652,0.9652,0.953,0.9338,0.928,0.9338,0.9338,0.9338,0.9338,0.9338,0.9344,0.928,0.9166,0.8888,0.8622,0.8335,0.7923,0.7574,0.7461,0.7521,0.7515,0.7521,0.7526,0.7574,0.7568,0.7676,0.7788,0.7901,0.7901,0.7901,0.7901,0.7901,0.7955,0.8008,0.8008,0.8115,0.8221,0.8221,0.8268,0.8315,0.8368,0.8368,0.8368,0.8321,0.8275,0.8162,0.8055,0.783,0.7729,0.7467,0.7257,0.7198,0.7085,0.7085,0.7133,0.7133,0.7085,0.7085,0.7079,0.7133,0.7133,0.7085,0.7031,0.6982,0.6982,0.6869,0.6761,0.6652,0.6495,0.6277,0.6059,0.5791,0.5572,0.5348,0.5069,0.4849,0.4629,0.4356,0.4135,0.3913,0.3691,0.3411,0.3077,0.2742,0.241,0.1905,0.1457,0.0897,0.0224,-0.0672,-0.1566,-0.2679,-0.384,-0.5362,-0.7105,-0.9078,-1.1425,-1.397,-1.6861,-1.9782,-2.176,-2.3818,-2.3265,-2.2396,-2.0582,1.1436,1.1403,1.1116,1.0877,1.0704,1.0466,1.0314,1.0117,1.0066,1.0047,0.9983,0.9983,0.9919,0.9856,0.9792,0.9792,0.9792,0.9856,0.9856,0.9856,0.9792,0.9919,0.9718,0.9357,0.8909,0.867,0.825,0.7788,0.7574,0.7681,0.7676,0.7729,0.7842,0.7842,0.7723,0.7842,0.7901,0.7901,0.7955,0.7955,0.7955,0.7955,0.8062,0.8168,0.8162,0.8215,0.8374,0.8374,0.8421,0.848,0.8474,0.8474,0.8474,0.8427,0.8427,0.8374,0.8268,0.8109,0.7901,0.7532,0.7365,0.7306,0.7192,0.7139,0.7139,0.7133,0.7133,0.7133,0.7133,0.7133,0.7133,0.7085,0.7085,0.7085,0.7085,0.7031,0.6869,0.6766,0.6603,0.644,0.6168,0.595,0.5681,0.5407,0.5069,0.4794,0.4629,0.4408,0.419,0.4024,0.3858,0.3635,0.3357,0.3079,0.2745,0.2296,0.1792,0.1289,0.0617,-0.0168,-0.1063,-0.2066,-0.3282,-0.471,-0.6426,-0.826,-1.0615,-1.3093,-1.6571,-2.0058,-2.2455,-2.4005,-2.3476,-2.2579,-2.0853,1.1142,1.1116,1.0828,1.0701,1.0637,1.0573,1.045,1.0378,1.0364,1.0308,1.018,1.018,1.011,1.0053,1.0053,1.0047,1.0053,0.9989,0.9989,1.0047,1.0053,0.9989,0.9869,0.9573,0.9143,0.8927,0.8508,0.8215,0.8156,0.8049,0.8103,0.8209,0.8215,0.8209,0.8156,0.8215,0.8215,0.8209,0.8268,0.8215,0.8215,0.8215,0.8268,0.8321,0.8321,0.8374,0.8527,0.8527,0.858,0.8639,0.8639,0.8639,0.8586,0.8586,0.8527,0.8527,0.8421,0.8321,0.8162,0.7895,0.7628,0.7467,0.7306,0.7252,0.7252,0.7139,0.7139,0.7133,0.7133,0.7133,0.7133,0.7133,0.7085,0.7085,0.7085,0.7079,0.6977,0.6874,0.6771,0.6603,0.6332,0.6005,0.5736,0.5517,0.5179,0.4963,0.4798,0.4522,0.4301,0.419,0.4079,0.386,0.3635,0.3413,0.3079,0.2687,0.2238,0.168,0.1065,0.0336,-0.0559,-0.1454,-0.2619,-0.3941,-0.5671,-0.7482,-1.0326,-1.3387,-1.7186,-2.0448,-2.2615,-2.4018,-2.3846,-2.2832,-2.1312,1.1036,1.1016,1.0826,1.0807,1.0744,1.0624,1.0618,1.0618,1.0618,1.0491,1.0434,1.0428,1.0428,1.0364,1.0364,1.0364,1.0364,1.0364,1.0364,1.0364,1.0364,1.0355,1.0124,0.9748,0.9453,0.9193,0.877,0.848,0.8368,0.8368,0.8421,0.848,0.8586,0.8639,0.8633,0.8527,0.8368,0.8368,0.8368,0.8368,0.8368,0.8368,0.8421,0.8421,0.8474,0.8527,0.8633,0.8685,0.8692,0.8804,0.8804,0.8804,0.8745,0.8745,0.8685,0.8633,0.858,0.8474,0.8315,0.8215,0.7949,0.7794,0.7526,0.7365,0.7365,0.7252,0.7198,0.7192,0.7139,0.7139,0.7139,0.7139,0.7133,0.7133,0.7079,0.7079,0.7085,0.6982,0.682,0.6657,0.644,0.6114,0.5736,0.5513,0.5289,0.5128,0.4963,0.4688,0.4411,0.4356,0.4245,0.4079,0.3916,0.3691,0.3413,0.3132,0.2631,0.2127,0.1512,0.0896,0.0112,-0.0727,-0.195,-0.3226,-0.486,-0.7067,-1.0417,-1.3795,-1.72,-2.0062,-2.2374,-2.3437,-2.3975,-2.3067,-2.17,1.1129,1.1129,1.1129,1.1066,1.1066,1.0751,1.0618,1.0618,1.0618,1.0618,1.0624,1.0744,1.0744,1.08,1.0996,1.1003,1.094,1.0996,1.0996,1.1003,1.087,1.076,1.0497,1.0179,0.9731,0.9307,0.8971,0.8745,0.8474,0.8527,0.8639,0.8745,0.8903,0.8949,0.8896,0.8738,0.858,0.858,0.858,0.858,0.858,0.8527,0.858,0.8633,0.8679,0.8738,0.8798,0.885,0.8857,0.8857,0.8857,0.8804,0.8804,0.8811,0.8804,0.8804,0.8685,0.858,0.848,0.8427,0.8321,0.8109,0.7836,0.7622,0.7461,0.7413,0.7306,0.7252,0.7198,0.7192,0.7139,0.7139,0.7133,0.7133,0.7133,0.7085,0.7085,0.6982,0.6869,0.6707,0.6495,0.6223,0.59,0.5626,0.5454,0.5293,0.5128,0.4963,0.4743,0.4574,0.4519,0.4356,0.419,0.3968,0.3691,0.3522,0.3132,0.2629,0.2183,0.1568,0.0784,-0.0056,-0.1172,-0.2502,-0.4045,-0.6564,-1.0178,-1.3527,-1.6807,-1.9473,-2.1917,-2.3314,-2.3974,-2.3318,-2.1984,1.1129,1.1129,1.1129,1.1129,1.1066,1.0996,1.0933,1.0933,1.094,1.094,1.0996,1.1003,1.0996,1.0996,1.1059,1.1129,1.1129,1.1129,1.1066,1.1122,1.1087,1.0897,1.0569,1.0247,0.9903,0.9549,0.9233,0.9008,0.9001,0.8949,0.8949,0.9054,0.9159,0.9211,0.9159,0.9047,0.8995,0.8949,0.8949,0.8896,0.889,0.889,0.8942,0.8942,0.8942,0.9001,0.9054,0.9054,0.9061,0.9054,0.9054,0.9054,0.9061,0.9061,0.9061,0.9061,0.9001,0.8844,0.8798,0.8633,0.8527,0.8474,0.8209,0.7937,0.7723,0.7568,0.7467,0.7413,0.7311,0.7252,0.7252,0.7192,0.7192,0.7192,0.7192,0.7139,0.7139,0.709,0.6977,0.6766,0.6549,0.6277,0.5955,0.5786,0.5563,0.5458,0.5348,0.5187,0.5018,0.4849,0.4739,0.4574,0.4463,0.4298,0.4132,0.3907,0.3574,0.3188,0.2685,0.2183,0.1455,0.0559,-0.0447,-0.1946,-0.3871,-0.6728,-1.0066,-1.3212,-1.6026,-1.8893,-2.1312,-2.2733,-2.3711,-2.3171,-2.2228,1.1373,1.1373,1.1435,1.1498,1.1505,1.149,1.1498,1.1435,1.1254,1.1129,1.1129,1.1129,1.1185,1.1185,1.1254,1.1317,1.131,1.131,1.131,1.1288,1.1133,1.0895,1.0571,1.0272,0.9875,0.962,0.9397,0.9211,0.9263,0.9309,0.9309,0.9361,0.9368,0.948,0.9532,0.9524,0.9524,0.942,0.9316,0.9204,0.9204,0.9204,0.9204,0.9204,0.9204,0.9204,0.9204,0.9204,0.9204,0.9204,0.9204,0.9204,0.9211,0.9211,0.9211,0.9159,0.9106,0.9054,0.9008,0.8949,0.8791,0.8685,0.8586,0.8374,0.8049,0.7836,0.7676,0.7568,0.7467,0.7365,0.7359,0.7306,0.7306,0.7246,0.7246,0.7246,0.7192,0.7198,0.7036,0.6874,0.6603,0.6332,0.6059,0.5891,0.5732,0.5681,0.5626,0.5517,0.5352,0.5128,0.4959,0.4791,0.4736,0.4625,0.446,0.4294,0.4018,0.3633,0.3244,0.2685,0.2014,0.1174,0.0167,-0.1774,-0.3917,-0.6654,-0.9256,-1.2149,-1.5,-1.785,-2.0579,-2.2362,-2.3377,-2.3396,-2.2225,1.1802,1.1809,1.2058,1.2065,1.2065,1.2058,1.2065,1.2003,1.1505,1.1192,1.1247,1.131,1.1435,1.1498,1.156,1.1622,1.1622,1.1622,1.1615,1.16,1.1267,1.0975,1.0588,1.0265,0.9915,0.9549,0.9413,0.9472,0.9368,0.942,0.9569,0.9621,0.974,0.9792,0.9844,0.9895,0.9844,0.9792,0.9577,0.9368,0.9368,0.9316,0.9263,0.9316,0.9316,0.9316,0.9316,0.9263,0.9263,0.9263,0.9256,0.9263,0.9256,0.9256,0.9256,0.9256,0.9263,0.9211,0.9211,0.9159,0.9001,0.8903,0.8857,0.8646,0.8427,0.8109,0.7943,0.7788,0.7687,0.7574,0.7521,0.7467,0.7413,0.7408,0.7354,0.7354,0.7359,0.7306,0.7149,0.6933,0.6766,0.6495,0.6332,0.6114,0.5955,0.585,0.574,0.574,0.5626,0.5403,0.5289,0.512,0.5066,0.5011,0.4794,0.4629,0.4408,0.4076,0.3688,0.3355,0.2794,0.1842,0.0726,-0.122,-0.3262,-0.5462,-0.8049,-1.0888,-1.3828,-1.69,-1.9495,-2.1837,-2.2863,-2.3256,-2.2404,1.1996,1.2058,1.2065,1.2065,1.2065,1.2065,1.2127,1.2065,1.1941,1.1872,1.1872,1.1872,1.1879,1.1872,1.1879,1.1934,1.1934,1.1872,1.1872,1.1667,1.1361,1.0945,1.0615,1.0254,0.9914,0.9724,0.9629,0.9688,0.974,0.9792,0.9836,0.9888,0.9947,1.0007,1.0051,1.0058,1.0058,1.0051,0.9947,0.9784,0.9784,0.9792,0.9844,0.9792,0.9792,0.974,0.974,0.9792,0.974,0.9688,0.9695,0.9629,0.951,0.9517,0.9517,0.951,0.942,0.942,0.9368,0.9316,0.9218,0.9159,0.9061,0.8903,0.8699,0.8427,0.8215,0.8055,0.7949,0.7788,0.7676,0.7622,0.7574,0.7574,0.7521,0.7521,0.7467,0.7365,0.7257,0.7095,0.6874,0.6712,0.6549,0.6391,0.6178,0.6014,0.585,0.5791,0.5845,0.5736,0.5791,0.5622,0.5454,0.5344,0.5183,0.5018,0.4798,0.4574,0.4242,0.391,0.3519,0.24,0.1228,-0.0501,-0.2435,-0.449,-0.6702,-0.9429,-1.2453,-1.5613,-1.8614,-2.1045,-2.262,-2.3254,-2.2318,1.2436,1.2436,1.2498,1.2498,1.249,1.2498,1.249,1.249,1.249,1.2498,1.2428,1.2243,1.2065,1.2065,1.2065,1.2127,1.2127,1.2065,1.1867,1.1639,1.1367,1.0955,1.0591,1.0245,1.0007,0.9859,0.9844,0.9895,1.0007,0.9999,0.9991,1.0102,1.011,1.0154,1.0205,1.0213,1.0205,1.0257,1.0205,1.0205,1.0205,1.0102,1.0007,1.0007,0.9999,1.0007,1.0007,1.0007,0.9955,0.9895,0.9903,0.9844,0.9777,0.9784,0.9777,0.9777,0.9725,0.9681,0.9629,0.9524,0.942,0.9368,0.9316,0.9159,0.9061,0.8791,0.8527,0.8421,0.8215,0.8103,0.8049,0.8002,0.7895,0.7895,0.7788,0.7681,0.7628,0.7467,0.7413,0.7306,0.7144,0.6928,0.682,0.6652,0.6495,0.644,0.6223,0.6168,0.6168,0.6114,0.6173,0.6119,0.595,0.5732,0.5517,0.5407,0.5293,0.5018,0.4739,0.4242,0.3796,0.2792,0.1618,0.0278,-0.1276,-0.3092,-0.5415,-0.7992,-1.0959,-1.4121,-1.7263,-2.0291,-2.1708,-2.2979,-2.2217,1.2805,1.2867,1.2928,1.2981,1.2981,1.2981,1.2981,1.2981,1.2981,1.2981,1.2928,1.2428,1.2251,1.2189,1.2189,1.2182,1.2143,1.2112,1.1828,1.1539,1.1222,1.0898,1.0538,1.0159,1.0075,1.0014,1.0051,1.0051,1.011,1.0154,1.0205,1.0316,1.0368,1.0411,1.0522,1.0573,1.0565,1.0522,1.0522,1.0573,1.0411,1.0249,1.0162,1.0102,1.0051,1.0058,1.011,1.011,1.011,1.011,1.0102,0.9999,0.9947,0.9947,0.9947,0.9947,0.9947,0.9947,0.9955,0.9844,0.9732,0.9673,0.9517,0.942,0.9316,0.9106,0.8896,0.8738,0.8527,0.8427,0.8374,0.8268,0.8215,0.8162,0.8002,0.7895,0.7788,0.7622,0.7568,0.7515,0.7354,0.7192,0.7085,0.6918,0.681,0.6815,0.6761,0.6761,0.6701,0.6652,0.6598,0.6549,0.6436,0.6168,0.5955,0.5845,0.5727,0.5563,0.5285,0.468,0.407,0.34,0.2565,0.1451,-0.0166,-0.1767,-0.3887,-0.6312,-0.9407,-1.2401,-1.5685,-1.8732,-2.1114,-2.2114,-2.1987,1.2928,1.2989,1.2989,1.3042,1.3042,1.3042,1.2981,1.2981,1.3042,1.2981,1.3042,1.292,1.2797,1.2797,1.2683,1.2589,1.2432,1.2229,1.1968,1.1729,1.1232,1.0801,1.0516,1.0293,1.0185,1.0205,1.0257,1.0316,1.0368,1.0419,1.0419,1.0462,1.0573,1.0624,1.0667,1.0718,1.0769,1.0769,1.0769,1.0769,1.0718,1.0565,1.047,1.0419,1.0411,1.0462,1.0514,1.0565,1.0565,1.0514,1.036,1.0213,1.0162,1.011,1.0154,1.0162,1.0162,1.0102,1.0102,1.0051,0.9991,0.9947,0.9784,0.9629,0.9524,0.9413,0.9256,0.9106,0.8896,0.8639,0.8586,0.8427,0.8374,0.8321,0.8209,0.8162,0.8109,0.7949,0.7842,0.7735,0.7568,0.7467,0.7467,0.73,0.7192,0.7139,0.7139,0.7079,0.7079,0.7079,0.7025,0.6977,0.6869,0.6657,0.6386,0.6332,0.6218,0.605,0.5887,0.534,0.4842,0.4291,0.3398,0.245,0.1224,-0.0277,-0.246,-0.462,-0.7338,-1.0333,-1.3874,-1.6984,-1.955,-2.1042,-2.0741]}]]